GFSSW_sfc_wetblb_000.txt.gz
Wetbulb
59.46 59.44 59.17 59.40 59.61 59.85 60.11 60.05 60.11 60.50 60.94 60.79 60.53 60.13 60.61 60.34 59.27 62.51 59.88 66.31 69.17 73.92 74.24 67.98 66.06 67.49 68.13 67.47 68.77 68.19 59.70 56.87 57.66 58.74 60.64 64.75 63.04 65.35 66.70 65.81 67.46 68.79 68.14 70.30 71.88
58.65 58.71 58.64 58.74 59.17 59.29 59.60 59.92 59.65 59.59 59.81 60.08 60.05 59.90 60.30 59.66 60.69 60.36 68.21 74.19 74.11 73.91 64.86 62.33 62.39 64.10 64.16 65.17 64.48 61.43 57.66 58.10 60.76 62.07 60.73 61.62 64.07 65.42 65.56 65.83 65.91 65.94 69.93 71.16 71.75
57.55 57.98 58.05 57.98 58.52 58.43 58.74 59.16 59.20 58.63 59.16 59.24 59.49 59.73 60.01 59.35 60.57 59.07 72.30 73.71 74.67 73.04 63.51 64.08 64.05 63.90 63.15 63.98 62.05 60.78 57.22 60.04 62.60 63.63 64.60 62.44 65.25 65.68 63.83 63.98 66.31 65.55 68.22 69.94 70.49
57.24 57.10 57.35 57.37 57.64 57.84 58.07 58.20 58.11 58.10 58.79 59.12 59.24 59.69 59.41 61.00 53.66 63.15 74.27 74.24 75.23 65.96 63.58 63.69 61.55 61.47 61.96 59.27 61.07 58.85 62.47 62.00 61.76 64.49 63.02 62.07 65.41 62.72 62.44 63.43 69.60 68.82 69.71 69.84 69.62
56.82 57.20 57.40 57.28 57.16 57.44 57.71 57.72 57.21 57.54 59.18 59.47 59.71 59.18 59.55 58.52 58.35 68.37 73.52 73.25 64.77 62.53 61.63 61.93 59.19 62.45 60.09 59.57 59.37 60.49 61.77 62.30 64.00 64.11 63.40 64.85 64.70 66.17 63.31 68.45 69.17 69.08 69.63 69.38 69.62
56.67 57.00 57.00 57.19 57.05 57.27 57.52 57.27 56.66 57.21 59.38 59.73 59.59 58.04 59.21 55.58 63.47 66.16 62.92 61.96 61.71 61.75 62.05 61.82 60.69 64.20 61.09 59.38 58.71 62.16 62.25 61.67 62.95 61.99 63.40 62.97 64.47 65.99 67.43 69.23 68.29 68.54 68.58 69.22 69.67
56.50 56.62 56.66 56.75 56.75 56.52 56.56 56.16 56.12 57.24 59.51 59.05 58.89 60.15 60.61 57.22 63.93 65.88 63.48 60.28 61.89 62.35 60.88 61.89 63.38 63.22 61.53 58.72 63.31 62.33 59.65 61.26 61.00 62.72 62.36 63.27 62.14 63.77 68.05 69.17 68.07 68.53 69.08 69.54 69.94
56.05 56.27 56.35 56.47 56.37 56.30 56.05 55.66 55.67 58.16 59.19 58.64 59.22 61.61 59.16 64.98 64.84 64.65 63.93 60.74 61.11 62.59 62.31 63.01 66.14 62.58 60.96 61.84 60.78 59.68 60.24 56.11 61.41 62.57 61.28 62.75 59.00 65.50 68.36 68.41 67.84 68.78 69.40 69.89 70.89
55.62 55.80 56.00 55.89 55.85 55.60 54.89 55.01 56.04 60.00 59.68 59.55 60.90 61.96 60.43 65.83 60.70 65.08 63.96 59.11 59.77 61.54 62.35 63.60 64.86 60.32 60.02 57.23 57.82 58.35 55.02 56.58 58.91 61.87 61.11 60.94 60.04 65.70 67.90 67.36 66.89 68.41 68.95 69.87 70.41
55.27 55.27 55.30 55.34 55.13 54.48 54.26 54.77 59.72 60.30 61.18 63.48 63.11 60.36 63.90 61.67 60.49 63.40 64.20 60.85 59.67 59.47 59.16 61.66 60.83 56.99 56.99 56.32 52.42 54.58 55.41 57.60 57.85 60.56 61.57 60.13 60.14 64.39 65.73 66.15 66.34 67.41 68.01 68.84 69.32
55.15 54.84 54.73 54.59 54.24 53.65 54.10 58.49 62.21 62.11 63.50 61.18 59.84 58.39 60.45 64.18 63.76 60.58 62.31 59.30 58.76 57.61 55.91 60.01 55.54 53.09 55.14 57.32 58.12 58.34 56.96 56.78 58.65 62.04 60.94 59.86 59.79 62.67 64.05 65.02 65.69 66.73 67.16 67.65 68.00
54.84 54.55 54.46 54.34 53.57 53.13 53.89 56.25 61.12 61.70 57.63 61.37 62.17 62.05 62.53 61.99 57.77 58.43 61.12 56.25 55.68 53.81 57.07 56.42 53.15 56.69 57.89 58.03 56.78 56.46 55.65 55.71 58.71 60.83 60.32 60.23 59.78 62.76 63.51 63.92 65.49 66.50 66.90 67.29 68.41
54.71 54.38 53.97 53.61 52.95 55.79 58.14 60.91 63.68 62.92 57.37 58.30 60.02 59.04 60.63 61.07 57.68 56.77 58.86 56.99 54.48 54.45 55.39 53.93 55.30 57.70 56.77 55.73 54.87 55.44 53.96 54.67 56.38 59.03 59.30 58.82 58.53 58.37 63.07 64.52 65.18 66.13 67.56 67.95 67.80
54.34 54.18 53.54 52.23 53.48 56.54 56.51 62.84 64.98 63.62 53.10 53.92 56.32 58.73 60.23 60.32 56.62 59.82 59.92 57.62 55.67 54.08 55.44 54.93 57.51 56.35 55.68 54.49 55.01 52.32 55.93 55.43 55.06 55.43 51.94 58.57 50.82 57.95 60.65 61.73 63.74 64.63 65.56 66.62 67.33
54.16 53.79 52.77 51.78 52.71 53.80 57.69 60.32 61.66 61.35 43.76 55.33 55.85 61.89 60.22 57.97 57.38 56.63 60.44 57.43 54.51 54.70 55.19 53.08 54.52 54.84 54.33 55.14 56.22 53.64 56.51 55.06 55.03 53.56 53.25 54.07 52.68 56.60 61.79 59.29 61.21 63.61 64.82 66.08 67.25
53.81 53.11 52.42 54.57 55.09 58.40 60.80 61.23 59.46 52.12 44.30 52.96 56.59 55.33 55.77 57.03 56.35 57.71 56.89 58.23 58.06 55.37 55.66 54.93 57.70 56.02 55.27 56.45 56.52 56.89 57.01 55.94 55.01 53.31 49.12 52.97 53.96 54.61 57.47 61.84 61.02 62.56 64.70 66.20 66.98
52.56 51.68 51.37 54.02 52.03 57.15 57.02 56.99 50.24 46.92 54.48 51.82 53.16 55.17 54.78 54.29 53.86 55.51 53.99 52.77 51.77 50.70 50.60 53.45 54.06 57.08 57.43 54.86 56.96 56.09 54.84 49.92 48.45 48.40 47.94 54.32 52.77 56.84 60.34 62.50 63.81 63.32 64.01 66.18 67.63
50.93 50.14 54.00 55.92 57.22 56.05 56.76 51.46 46.05 52.15 52.32 55.35 54.93 54.84 52.61 54.55 53.10 53.82 52.91 50.73 54.22 53.53 51.33 49.59 48.59 55.11 56.98 55.70 54.60 54.55 54.44 50.02 46.42 46.80 49.15 55.09 51.36 55.99 60.22 63.56 66.19 66.47 67.39 66.50 66.61
50.23 56.46 56.01 60.48 60.21 58.23 52.82 47.34 48.97 51.71 55.64 53.54 54.82 51.81 51.91 53.89 52.61 53.15 52.31 51.06 53.61 54.76 51.86 50.61 51.37 57.23 56.80 57.61 57.31 54.68 52.64 55.86 51.97 52.55 49.29 52.01 55.07 57.82 59.49 59.46 59.67 61.62 61.88 65.93 66.47
51.55 54.17 55.18 58.38 62.03 56.95 49.56 46.02 51.29 54.25 55.46 56.24 52.22 53.71 50.25 51.72 50.89 52.38 51.87 53.88 53.49 56.01 57.41 55.29 52.00 55.53 56.24 57.61 57.51 56.16 57.26 51.19 51.93 48.00 46.37 49.95 51.38 52.02 58.50 58.28 59.35 59.41 60.24 63.35 67.69
53.71 54.51 58.61 59.46 61.75 52.70 46.42 49.58 52.48 55.07 56.58 55.45 54.46 54.06 52.52 51.76 52.09 52.09 52.38 54.17 55.25 55.92 57.51 56.45 55.39 54.07 55.85 54.17 53.21 54.33 53.56 54.17 53.58 51.91 47.97 46.90 49.71 59.31 60.43 60.40 58.95 60.05 61.67 62.43 64.15
52.83 48.72 59.33 61.70 53.22 52.26 48.49 51.85 52.30 54.03 57.37 56.86 56.46 55.70 54.82 55.25 52.33 52.03 52.41 54.53 56.98 56.80 54.28 56.74 54.88 52.17 53.26 56.84 57.52 56.18 55.06 55.60 51.11 51.72 53.14 52.25 50.71 59.49 59.56 59.46 59.91 61.02 61.60 63.89 65.69
49.85 52.51 59.27 60.18 48.92 49.64 52.48 52.60 54.00 53.25 55.16 55.57 54.21 55.90 56.83 55.59 53.15 53.30 53.74 56.82 57.89 56.78 56.40 57.08 54.28 50.56 51.95 54.20 56.13 54.15 55.54 55.09 54.83 54.60 53.76 49.93 51.14 61.96 59.82 60.09 61.64 61.30 62.86 67.61 68.74
49.92 48.79 52.89 56.17 55.18 52.09 51.30 52.21 52.22 54.82 54.87 56.84 55.60 56.36 54.63 54.79 56.71 54.28 53.61 55.76 57.70 57.52 63.46 61.09 54.13 53.90 48.45 52.71 54.95 53.01 53.52 54.29 53.57 52.33 52.61 52.58 54.66 57.99 59.47 60.82 63.88 63.69 65.24 65.93 69.13
52.45 50.21 55.43 51.55 51.31 52.37 52.98 53.82 53.60 51.72 55.51 57.23 55.34 54.94 54.87 53.89 54.40 53.97 54.85 55.06 56.38 61.55 58.21 57.03 55.75 53.93 53.39 53.55 53.86 54.03 53.59 53.64 52.68 54.38 52.08 54.57 55.88 59.08 60.39 61.08 61.75 62.56 64.05 64.80 67.71
50.48 47.89 52.05 50.89 54.15 55.30 51.36 52.92 54.26 54.80 54.51 54.13 53.81 54.87 55.43 54.35 56.81 56.39 57.63 57.89 55.46 56.83 56.08 57.32 55.11 54.51 52.22 54.01 53.56 52.11 53.46 54.69 54.23 53.68 53.53 54.47 55.92 59.79 62.34 63.21 61.75 60.97 61.83 64.01 65.52
53.66 51.35 50.13 49.68 51.97 52.20 53.44 54.35 54.65 56.24 55.94 56.30 55.83 55.93 54.98 56.59 60.06 60.75 59.96 59.85 59.61 58.48 57.23 58.18 54.69 54.77 50.65 53.59 53.32 50.76 53.29 53.52 54.72 56.08 55.43 53.90 59.17 61.61 60.83 60.13 60.48 62.46 62.78 64.30 65.38

GFSSW_sfc_wetblb_003.txt.gz
Wetbulb
58.89 59.01 58.98 58.96 58.78 59.07 59.41 59.75 59.85 59.94 59.76 59.89 59.57 59.57 59.67 60.40 59.40 59.06 57.98 62.28 65.83 71.31 74.15 64.45 63.41 64.29 64.65 64.38 65.45 66.49 56.05 53.76 55.42 56.40 56.98 61.30 60.24 63.58 65.72 64.95 67.01 67.70 67.64 68.94 71.29
58.27 58.35 58.32 58.42 58.77 58.88 58.92 59.22 59.24 59.16 59.08 59.45 59.62 59.56 60.10 60.39 57.64 56.94 65.86 73.27 72.50 74.70 62.50 58.64 58.67 60.50 58.53 60.39 62.86 61.68 57.18 56.01 60.37 61.44 60.46 63.08 63.81 64.02 63.51 64.15 64.39 66.33 68.89 69.74 70.60
57.46 57.43 57.67 57.91 58.11 58.32 58.67 58.60 58.66 58.40 58.62 59.24 60.10 60.13 60.49 58.85 56.93 56.99 72.47 71.87 73.40 73.27 62.27 58.77 59.38 59.44 57.31 59.47 60.41 62.53 58.05 60.77 60.71 63.00 63.38 61.99 64.20 65.50 64.68 61.02 64.52 64.43 66.25 68.03 69.44
56.92 56.97 57.00 57.24 57.46 57.74 57.98 58.18 57.88 57.87 58.26 58.85 60.07 60.63 59.87 57.11 49.32 58.74 74.27 73.82 73.15 66.73 60.88 58.69 59.34 56.74 54.97 56.11 58.72 57.95 60.33 62.31 63.02 64.66 62.86 61.96 62.63 60.88 64.78 63.30 67.90 67.98 68.27 68.25 67.50
56.25 56.54 56.83 56.73 57.08 57.35 57.61 57.78 57.57 57.19 57.77 59.12 60.26 60.06 57.49 54.71 55.50 66.17 73.27 73.57 66.53 60.29 57.37 57.80 58.08 56.52 54.11 57.55 56.25 57.90 58.71 61.31 61.74 62.18 63.32 64.70 62.23 61.42 61.61 64.60 68.78 68.84 68.71 67.95 67.54
56.34 56.61 56.77 56.93 56.82 57.25 57.51 57.29 57.04 56.82 57.62 59.93 60.04 59.28 54.58 50.40 60.79 64.67 62.77 62.10 58.93 56.74 56.97 58.50 58.39 57.63 56.19 57.82 55.00 60.09 58.85 60.67 60.27 61.16 63.46 62.80 60.94 62.20 62.58 66.28 67.23 67.37 67.22 67.74 67.70
56.31 56.41 56.42 56.54 56.39 56.48 56.70 56.53 56.13 56.53 57.55 60.09 59.57 59.03 56.76 53.21 61.61 63.72 59.70 56.28 57.55 56.94 56.26 59.86 60.69 56.05 56.15 55.65 60.17 60.34 56.45 58.66 59.47 60.72 62.24 64.11 60.99 62.31 65.64 66.15 65.44 66.41 66.88 67.60 67.91
56.24 56.10 56.12 56.28 56.34 56.29 56.02 55.75 55.72 56.66 57.89 59.96 59.79 58.34 52.45 61.81 61.77 61.25 59.46 57.02 57.55 57.64 58.54 60.10 60.05 56.43 56.98 56.77 58.21 55.72 55.06 50.67 57.31 58.91 61.99 61.82 56.32 63.80 66.05 65.22 64.53 66.01 66.86 67.37 67.33
55.85 55.81 55.77 55.76 55.64 55.31 54.68 54.92 56.38 57.94 59.59 60.02 57.60 56.48 56.91 66.49 60.97 61.03 61.30 57.08 55.26 55.00 57.02 61.28 58.18 55.81 57.49 52.08 49.54 52.55 48.94 52.52 55.20 57.56 57.96 58.75 58.31 63.71 66.31 65.73 65.03 65.97 66.59 67.52 67.83
55.48 55.30 55.17 55.13 54.80 54.35 53.97 54.81 57.70 59.50 60.32 61.99 60.97 54.79 59.36 60.64 59.01 60.40 61.83 60.14 55.02 54.59 55.01 54.90 55.18 53.14 51.70 47.98 44.37 49.08 50.38 54.14 54.19 56.44 56.82 57.37 58.70 63.29 65.13 65.37 65.07 66.05 66.94 67.58 67.85
55.24 55.03 54.82 54.70 54.23 53.47 52.05 51.63 54.72 57.33 60.37 58.52 56.77 57.09 58.59 61.59 62.18 58.22 60.91 58.82 54.00 51.83 49.05 52.65 50.59 48.54 51.09 51.77 52.48 54.75 53.59 54.37 57.53 58.55 56.38 56.39 59.45 61.74 63.53 63.86 63.17 63.73 65.00 66.14 66.82
54.97 54.70 54.51 54.23 53.67 53.08 51.23 50.45 53.47 57.22 52.32 58.17 59.55 61.37 62.29 62.41 57.28 58.05 60.15 54.60 51.06 48.98 51.04 50.22 49.60 54.67 56.20 54.92 53.81 52.89 55.19 54.18 57.16 59.22 57.08 55.94 57.81 60.82 61.37 62.67 63.92 64.43 64.52 65.78 65.97
54.46 54.58 54.12 53.66 52.69 52.67 53.84 55.41 60.67 60.21 52.32 55.40 58.27 58.09 57.84 59.88 56.08 54.46 55.76 54.26 49.96 48.73 49.82 48.76 53.19 57.38 55.17 53.02 52.50 51.48 49.97 54.10 54.98 58.55 58.85 57.25 53.83 56.14 61.12 61.29 63.91 65.63 65.79 66.05 66.14
54.33 54.43 53.64 52.23 50.77 51.57 49.88 57.04 59.10 58.42 45.68 50.66 53.57 56.96 57.65 58.37 53.87 58.65 56.81 53.77 51.26 48.86 50.49 51.02 55.39 54.64 52.89 51.84 52.74 46.51 53.48 53.62 55.66 55.00 48.99 56.64 46.54 52.22 56.14 57.21 61.64 63.89 64.63 64.77 66.07
54.27 54.08 52.98 51.74 48.49 50.45 53.80 57.27 57.96 55.24 38.39 54.61 53.83 59.18 57.29 54.57 55.07 54.90 57.37 53.76 49.69 50.44 50.34 50.50 52.53 52.40 51.50 52.42 53.81 50.02 53.96 51.98 51.31 50.98 48.18 51.54 46.37 52.49 55.36 54.07 58.23 61.39 64.20 65.12 66.05
53.84 53.41 52.47 51.21 49.69 52.49 55.67 54.40 54.44 44.50 41.24 51.79 53.89 53.31 53.19 54.03 55.18 56.16 54.22 54.97 54.79 51.66 52.05 51.93 55.55 53.67 53.25 55.18 54.72 55.14 51.44 49.94 48.74 45.36 40.45 46.48 47.38 49.19 52.99 55.93 59.14 61.38 63.41 64.63 65.80
52.53 51.61 50.77 51.35 46.92 52.18 52.61 51.46 43.81 40.56 52.67 50.67 50.20 52.35 51.58 50.95 53.19 53.73 50.96 49.24 47.34 43.73 45.31 50.58 51.46 53.33 54.50 50.12 52.62 51.01 47.48 41.82 40.00 39.97 40.09 46.58 45.85 50.71 57.82 59.87 59.35 59.85 60.23 62.72 65.42
51.09 50.12 50.71 52.51 51.15 51.41 51.34 45.23 39.75 48.56 48.40 53.02 52.31 52.09 49.68 52.15 51.93 52.20 49.80 47.70 49.97 48.50 45.76 45.06 44.15 50.70 53.82 50.07 48.43 48.43 46.74 43.13 38.71 39.46 43.60 49.61 44.46 50.05 60.61 61.81 61.36 62.31 61.34 62.11 64.50
50.40 52.45 52.45 55.50 54.48 52.90 47.58 40.56 42.79 47.71 51.65 51.28 52.47 50.62 49.15 52.09 51.83 50.27 49.37 48.52 49.50 49.77 44.74 45.12 46.18 53.50 54.19 54.11 52.88 49.49 46.35 50.26 44.58 45.81 42.37 45.69 50.09 55.89 60.04 59.75 60.97 62.41 61.58 60.21 61.99
48.47 49.89 52.21 55.20 57.67 52.84 45.27 41.40 47.28 51.63 52.15 51.60 46.81 50.06 49.10 49.84 49.84 48.31 48.42 51.48 50.67 52.15 52.10 48.89 44.43 51.33 53.43 53.87 53.67 51.23 52.69 45.94 44.03 38.96 38.40 44.41 48.22 47.65 52.05 54.76 59.10 59.97 60.04 61.00 61.91
49.30 50.15 56.78 57.07 58.32 49.82 41.12 43.57 48.34 51.71 52.08 49.57 48.43 48.62 51.45 51.30 50.05 47.74 48.32 51.79 52.77 51.79 52.74 50.83 46.80 49.45 51.74 48.84 48.64 49.06 47.27 48.16 46.59 44.49 39.45 39.23 44.12 54.23 55.12 55.50 54.76 55.21 57.16 59.51 63.11
48.81 44.44 56.75 59.11 49.27 48.87 43.98 46.35 48.29 50.42 52.88 51.97 51.99 51.34 52.08 52.64 51.51 48.90 47.99 51.03 54.05 52.79 49.22 51.65 47.58 46.79 48.95 52.65 54.19 51.38 48.74 49.58 43.37 43.12 44.79 44.37 46.68 56.84 56.89 56.62 57.13 58.17 59.11 58.86 61.24
44.23 47.22 55.16 57.51 45.88 46.87 49.59 48.19 49.29 49.47 50.64 51.23 50.69 53.20 53.86 50.97 48.37 51.95 53.83 54.77 54.49 52.52 50.02 51.61 48.67 44.25 46.48 49.74 52.18 50.23 50.48 49.45 49.50 46.51 43.22 43.11 45.51 56.52 55.97 55.32 57.54 57.02 59.11 60.23 60.45
45.91 45.26 50.56 51.20 53.05 49.34 47.86 48.31 48.55 52.53 51.81 52.72 51.81 54.29 53.21 50.70 51.57 50.23 52.61 56.08 55.28 53.86 60.41 57.34 47.59 46.65 43.12 48.12 50.58 48.49 50.96 50.80 47.13 42.81 43.62 46.15 49.33 52.06 55.36 57.77 57.86 58.62 58.95 61.82 62.16
48.10 47.13 49.72 45.09 47.40 46.39 49.36 50.58 47.84 48.62 53.02 54.45 50.93 52.74 51.64 48.80 50.39 50.25 53.34 55.97 57.28 59.09 57.22 53.07 46.95 48.03 48.81 50.86 51.02 52.28 51.50 50.75 47.59 47.24 45.37 47.50 51.74 52.51 54.76 56.01 57.13 58.45 58.54 59.36 62.90
48.02 45.05 46.53 43.50 46.94 48.01 48.68 49.35 49.87 49.78 52.56 52.91 50.89 53.53 52.97 50.60 52.48 51.49 54.31 54.42 54.49 53.36 53.40 51.43 48.30 48.34 46.89 51.41 50.76 49.48 52.13 52.58 52.58 51.23 49.07 49.10 49.34 56.16 57.57 58.65 58.30 58.10 58.18 58.03 58.97
50.10 51.94 46.00 43.35 44.23 44.28 47.66 47.34 51.23 51.09 53.91 55.26 53.67 53.23 52.66 55.19 56.93 55.47 55.72 56.25 53.85 53.90 51.66 51.12 49.96 46.34 42.31 48.99 49.61 46.06 49.93 50.85 51.56 53.13 51.71 48.01 52.09 56.33 56.43 57.87 56.78 56.67 57.72 58.09 59.40

GFSSW_sfc_wetblb_006.txt.gz
Wetbulb
58.17 58.13 58.06 58.22 58.53 58.81 59.09 59.27 59.36 59.54 59.39 59.52 59.40 60.13 59.76 59.96 59.85 57.92 54.25 60.09 62.22 73.25 72.73 62.34 63.05 62.61 64.10 61.03 64.71 64.24 54.74 52.70 55.64 54.65 55.93 59.37 60.83 65.81 67.43 66.89 67.36 68.12 67.53 69.81 71.53
57.59 57.63 57.61 57.69 58.13 58.31 58.54 58.93 59.10 59.00 58.84 59.04 59.06 60.12 60.30 60.40 56.72 55.16 64.05 70.62 71.87 74.41 61.90 58.42 55.21 57.31 55.21 58.40 60.75 60.27 55.18 56.04 60.06 59.79 58.10 60.47 61.42 62.78 64.18 64.62 64.91 66.59 69.33 71.47 71.85
57.08 57.07 57.35 57.36 57.68 57.93 58.20 58.43 58.49 58.40 58.35 58.81 58.84 60.14 60.70 59.00 54.84 55.21 72.26 70.32 73.66 72.66 60.29 57.96 56.29 55.82 53.07 55.41 57.27 59.86 57.23 60.93 60.66 62.37 63.16 62.38 63.23 65.15 63.28 61.67 64.58 64.27 66.50 70.25 70.43
56.52 56.54 56.79 56.90 57.34 57.58 57.70 57.83 57.82 57.76 57.99 58.42 59.12 60.73 60.47 55.85 43.10 57.44 73.50 74.41 74.63 65.30 59.91 56.95 55.79 53.67 52.48 52.27 56.55 57.99 61.54 61.72 61.14 64.34 61.41 61.92 62.35 60.03 63.37 63.87 67.47 67.65 68.62 69.55 69.16
56.10 56.43 56.50 56.50 56.73 57.10 57.33 57.49 57.14 57.06 57.45 58.29 59.47 60.43 56.20 52.26 52.59 62.45 74.99 74.24 67.75 60.21 57.21 55.08 54.70 55.17 52.77 53.26 56.46 58.73 60.46 62.39 63.50 62.06 61.84 62.50 59.90 60.87 63.68 66.65 67.85 67.86 68.24 68.00 68.88
56.39 56.60 56.76 56.78 56.77 57.16 57.28 57.06 56.98 56.71 57.18 58.13 60.02 59.84 52.67 46.11 56.08 60.22 63.74 62.11 59.34 55.87 54.66 55.07 55.57 57.06 54.20 52.72 53.77 60.58 61.70 62.27 62.78 61.84 62.12 59.75 60.07 60.65 65.04 67.34 66.70 66.77 66.30 67.04 67.56
56.16 56.40 56.44 56.48 56.52 56.47 56.82 56.49 55.80 56.46 56.76 57.75 59.99 58.91 55.11 49.92 57.13 59.80 58.15 55.73 56.22 54.87 52.73 56.26 57.02 54.87 54.16 52.04 56.09 61.40 58.66 60.09 61.34 61.56 61.93 64.33 60.50 60.44 64.56 66.70 65.55 65.94 66.36 66.97 67.16
55.71 56.19 56.25 56.15 56.19 56.22 55.81 55.30 55.59 56.66 57.55 57.92 59.76 57.02 49.11 60.09 59.80 58.52 57.05 55.70 56.23 54.03 54.44 55.55 57.77 55.14 52.22 53.92 54.76 54.90 54.15 50.65 56.71 61.41 62.68 60.77 55.56 61.68 65.34 64.79 63.89 65.58 66.42 66.84 66.69
55.44 55.42 55.60 55.66 55.51 55.22 54.61 54.73 55.89 58.91 58.08 59.97 55.09 54.28 51.89 64.99 59.54 59.55 58.68 55.79 54.25 52.46 52.71 57.67 55.60 51.94 52.76 50.83 46.89 49.66 47.29 51.50 53.75 58.61 60.51 58.91 56.77 62.35 64.04 63.70 63.20 64.43 65.48 66.11 65.87
55.13 54.93 54.96 54.96 54.77 54.28 53.83 54.28 55.73 58.64 59.53 60.47 60.22 51.55 54.22 56.91 59.67 59.98 58.39 57.92 52.42 52.12 52.53 51.30 50.14 49.72 48.96 47.10 41.98 46.09 48.93 53.12 52.33 55.58 57.66 58.26 57.60 62.04 63.43 63.06 63.08 63.79 64.47 65.27 65.64
54.79 54.54 54.47 54.57 54.02 53.32 51.47 48.19 48.16 51.18 57.43 54.48 54.84 54.84 56.60 58.67 61.57 58.03 58.58 57.19 51.82 48.84 45.48 48.78 46.22 44.92 49.45 50.21 50.53 50.84 52.33 52.73 55.17 56.10 58.49 58.03 58.50 61.11 63.01 63.58 63.35 63.66 64.26 64.97 65.57
54.31 54.27 54.20 53.97 53.46 52.87 50.67 44.73 47.65 50.80 48.33 56.65 58.81 58.83 60.16 58.88 57.70 59.64 56.71 53.95 49.04 45.14 47.36 46.18 44.89 50.85 54.17 53.87 51.79 49.75 51.10 52.43 55.31 56.63 54.78 57.94 58.07 61.04 62.69 63.38 64.07 64.19 64.95 65.55 66.07
54.10 53.96 54.00 53.41 52.50 50.71 49.37 51.45 55.14 51.16 46.65 51.74 55.02 55.18 55.72 57.29 56.10 56.08 54.12 53.20 48.53 46.08 47.04 44.29 48.07 54.71 54.30 52.52 51.32 48.44 51.33 52.46 53.40 56.63 56.62 57.35 54.39 56.81 61.86 63.59 64.04 64.90 66.27 66.39 66.29
54.04 53.99 53.44 51.83 46.52 47.51 47.21 49.89 52.76 51.92 42.09 47.52 49.46 53.82 55.61 56.85 52.82 59.15 56.67 53.54 48.26 46.71 47.06 46.42 51.39 51.91 52.60 51.66 51.51 44.55 52.34 55.99 55.63 54.19 47.82 55.08 45.95 52.03 57.95 58.55 60.01 62.33 63.92 65.37 66.30
53.95 53.58 52.52 51.39 45.62 46.18 49.72 51.56 51.95 51.18 35.62 51.88 52.33 57.98 54.77 52.38 52.48 52.58 56.50 51.35 48.29 47.84 46.75 46.09 49.50 49.66 49.69 52.12 52.35 48.96 52.27 51.16 55.79 53.12 49.18 51.11 46.85 53.16 53.90 52.36 54.97 60.07 63.53 64.87 66.49
53.59 52.97 52.21 48.03 46.92 48.18 51.06 49.97 48.60 42.23 36.75 50.55 52.51 50.43 50.56 51.53 52.59 54.08 52.26 51.66 52.15 48.46 47.46 48.16 52.96 51.75 51.81 53.90 52.67 53.59 50.04 47.32 47.07 45.00 41.16 49.14 47.07 45.72 51.39 55.10 56.75 58.50 63.91 64.57 65.82
52.32 51.31 50.39 50.07 42.34 46.71 47.04 46.61 40.31 36.35 49.15 48.58 46.56 49.90 48.31 48.06 50.68 51.66 48.49 46.60 45.84 41.14 41.99 46.71 48.88 51.72 53.48 47.93 50.56 49.03 42.94 38.14 37.97 37.42 37.59 42.41 48.38 50.09 55.63 58.53 57.49 58.28 63.22 64.54 65.80
50.93 50.14 49.46 49.80 48.64 48.67 44.68 41.24 35.18 44.87 45.06 49.73 49.53 50.00 46.84 48.43 48.43 50.81 46.97 45.24 46.67 44.38 41.43 41.48 41.54 49.09 51.29 48.88 46.79 45.55 44.15 38.82 35.20 37.26 39.92 44.53 41.77 47.71 57.44 60.21 59.68 61.12 64.07 64.97 64.87
50.39 46.02 46.66 48.34 50.39 46.26 42.52 34.72 37.79 42.93 48.74 48.70 47.77 45.59 45.35 48.76 49.10 49.02 46.13 46.25 48.14 45.84 43.10 40.10 42.10 50.67 51.25 52.34 49.46 46.33 43.14 47.09 42.34 41.58 40.20 42.50 47.50 54.08 56.99 58.07 58.97 58.50 60.52 62.26 64.21
46.65 43.44 45.33 50.65 51.54 45.23 39.26 36.32 40.72 47.89 49.14 48.64 43.07 46.33 43.43 45.20 46.16 46.86 46.97 48.61 48.41 49.17 46.76 43.72 40.43 47.18 50.99 50.82 50.75 49.14 49.07 43.15 40.43 36.59 34.97 40.98 43.59 45.78 52.88 55.42 57.57 57.90 57.83 59.59 63.62
42.40 41.67 48.83 52.66 50.53 42.19 34.51 36.68 43.07 47.04 47.63 46.83 45.65 45.13 45.84 45.65 47.10 46.63 47.69 49.46 50.83 50.13 47.64 46.51 42.66 45.69 47.48 45.94 46.28 47.31 44.92 43.86 43.67 41.08 37.79 36.47 41.12 50.26 55.60 56.74 57.39 58.45 60.23 58.88 61.27
40.52 36.49 49.98 52.88 43.26 40.96 37.97 41.35 45.71 44.75 47.26 46.58 48.56 47.79 46.70 48.30 47.00 47.86 47.10 48.52 52.58 51.91 46.59 46.18 41.98 42.36 44.82 49.77 50.38 49.21 47.12 44.85 41.00 39.40 39.86 40.24 42.50 54.18 55.25 55.88 59.03 59.82 60.73 59.06 60.47
38.18 39.14 48.18 48.48 38.58 39.55 43.56 46.36 46.78 45.30 44.52 45.59 46.73 49.18 49.80 47.86 45.60 49.60 50.52 54.77 52.62 51.59 48.89 48.62 40.94 40.65 41.72 44.33 46.86 48.06 47.48 46.34 43.51 41.83 40.34 39.91 43.02 53.91 53.40 53.38 54.73 54.70 56.08 57.43 59.42
39.65 37.46 43.21 44.50 41.95 41.20 40.35 43.61 45.43 51.00 48.74 49.55 48.42 49.81 48.83 47.68 49.78 47.79 48.74 53.00 54.38 52.62 58.76 54.20 41.47 42.04 41.49 42.48 46.07 45.02 47.87 47.87 45.18 40.63 40.61 42.98 45.75 49.41 52.80 53.84 54.48 55.64 56.62 57.75 59.24
41.54 40.53 40.45 36.78 39.37 38.82 38.60 44.11 45.79 46.72 50.84 49.53 47.33 50.53 49.43 44.35 46.79 48.76 52.66 53.25 55.14 57.43 55.35 47.54 41.98 43.93 45.17 48.81 49.60 49.36 49.14 47.93 44.93 45.68 44.50 45.02 47.21 49.45 53.28 54.40 55.26 56.72 57.96 58.57 58.35
41.45 39.76 41.22 37.97 38.34 39.89 40.27 41.43 43.92 45.66 47.94 47.00 48.17 51.27 49.90 45.55 50.58 49.40 49.75 47.38 48.66 51.69 47.13 45.34 43.06 44.95 46.11 48.73 49.67 47.79 49.38 50.06 50.33 49.22 48.57 47.51 48.86 52.96 55.55 56.70 55.31 56.88 56.82 57.12 58.13
43.36 44.73 41.31 38.12 37.67 37.90 39.15 42.57 43.27 45.33 49.90 52.13 50.87 50.27 48.90 50.82 52.64 52.37 52.23 51.00 51.97 48.13 47.74 45.86 44.19 42.22 41.08 46.83 47.89 45.86 48.79 48.96 50.57 53.19 50.72 45.59 48.75 53.92 53.30 54.72 54.15 54.86 55.74 56.05 57.18

GFSSW_sfc_wetblb_009.txt.gz
Wetbulb
57.39 57.53 57.44 57.71 58.04 58.36 58.68 58.83 59.11 59.20 59.13 59.12 59.40 59.09 59.89 60.41 59.57 57.57 53.41 59.67 60.44 72.22 71.08 62.94 65.01 62.87 63.19 60.41 64.44 63.56 52.66 50.73 53.64 52.96 54.87 62.73 61.47 67.09 68.36 65.87 66.53 67.53 66.70 68.25 71.67
57.11 57.06 57.14 57.26 57.53 57.76 58.14 58.33 58.64 58.55 58.65 58.75 59.03 59.11 59.89 60.61 55.95 53.79 62.82 69.77 71.69 73.13 61.01 57.92 54.71 55.59 53.75 57.35 61.00 58.43 51.76 54.42 58.68 58.09 56.70 60.65 62.93 63.77 64.50 64.02 64.56 65.67 68.43 69.92 71.13
56.73 56.68 56.66 56.88 57.12 57.33 57.58 57.90 57.94 57.94 58.13 58.40 58.79 59.08 60.65 59.18 52.21 52.56 69.71 69.97 71.99 72.13 59.68 57.26 55.16 54.13 51.48 53.69 56.82 58.52 55.47 59.09 59.90 60.80 59.49 60.24 61.51 63.60 63.44 61.18 63.86 64.39 66.49 68.55 69.38
56.06 56.17 56.25 56.56 56.78 56.81 57.10 57.30 57.37 57.24 57.57 57.84 58.62 59.39 60.70 54.75 43.52 52.50 73.13 74.34 72.05 67.76 58.70 55.69 53.49 51.21 51.07 51.33 53.97 53.69 60.04 60.34 60.03 63.50 60.67 60.36 62.02 62.51 63.11 63.01 66.91 68.02 68.73 69.02 68.85
55.89 56.04 55.95 56.07 56.40 56.53 56.74 56.79 56.65 56.84 57.01 57.68 58.57 59.99 54.77 48.92 50.43 60.87 73.45 73.25 69.48 60.93 56.71 53.83 53.26 53.53 51.96 52.53 53.26 53.83 57.77 60.72 61.68 61.71 61.57 60.90 60.27 61.65 62.43 66.02 67.80 68.94 69.45 68.65 69.15
56.11 56.24 56.31 56.56 56.15 56.21 56.59 56.67 56.55 56.22 56.53 57.59 58.30 60.05 51.18 44.68 53.96 58.56 62.62 66.27 62.54 57.50 55.30 54.12 52.75 55.50 53.53 51.67 50.52 57.89 59.69 60.52 60.58 59.93 60.56 59.97 61.69 62.56 64.10 66.76 66.27 68.22 68.11 68.80 69.13
55.84 56.10 56.03 56.05 56.38 55.79 55.67 56.08 55.50 55.92 56.59 57.83 57.99 58.64 53.79 50.34 55.50 55.42 56.89 56.39 55.57 56.47 52.23 54.50 54.60 52.72 52.70 51.63 53.94 60.91 57.31 59.81 59.93 59.43 58.23 61.92 57.86 60.11 64.63 65.94 65.01 66.82 67.36 68.29 68.71
55.65 55.67 55.63 55.52 55.76 55.82 55.46 55.05 55.38 56.32 58.07 58.01 59.12 55.94 47.84 57.47 59.39 59.46 55.54 54.01 54.59 53.20 52.78 53.49 56.37 53.42 52.27 53.21 57.64 56.44 54.20 53.60 57.40 60.19 61.54 59.94 53.91 61.74 64.69 63.99 63.30 64.76 66.04 66.69 67.70
55.17 55.09 55.09 55.13 55.22 54.83 54.22 54.36 55.50 59.79 58.64 59.04 54.19 52.49 50.02 61.63 59.52 61.04 57.06 54.93 53.69 52.17 52.60 57.20 53.44 50.69 50.59 48.61 47.25 49.69 50.87 49.77 54.63 59.39 60.07 57.90 54.97 61.78 64.56 63.59 62.64 63.78 64.67 65.58 65.46
54.86 54.61 54.53 54.57 54.46 53.87 53.50 54.09 54.42 57.33 59.03 59.65 59.24 50.87 52.50 52.33 58.14 58.76 57.14 56.41 52.00 51.23 50.95 49.42 48.40 46.22 46.74 45.66 41.68 50.02 48.03 52.76 53.75 58.86 58.03 56.84 56.08 61.25 63.33 62.96 62.64 63.53 64.09 64.80 65.03
54.63 54.30 54.22 54.18 53.71 52.95 51.03 45.87 46.65 47.88 54.97 51.63 51.00 53.16 55.14 57.62 59.06 58.45 57.28 54.21 50.51 47.38 44.91 46.99 44.42 43.04 45.58 49.39 49.23 50.38 50.07 52.78 55.66 56.80 57.31 56.29 56.75 59.26 61.93 62.04 61.81 62.62 63.17 63.92 64.73
54.46 54.24 53.97 53.62 53.10 52.40 48.47 44.99 45.77 47.81 43.28 51.67 53.25 54.51 57.89 57.31 54.79 56.53 57.57 52.19 48.03 44.59 45.02 43.72 42.80 47.24 50.01 51.69 50.20 48.93 48.77 50.39 53.74 57.91 57.03 55.47 56.27 59.39 60.71 61.24 61.97 61.99 62.36 63.36 64.32
54.24 53.99 53.64 53.10 52.16 49.11 44.86 46.31 50.53 47.13 42.60 48.69 52.25 53.15 54.08 57.05 53.76 54.60 55.30 51.69 48.28 44.68 44.01 41.65 44.93 50.55 51.69 50.79 50.17 46.77 46.62 48.78 51.41 54.80 57.79 56.86 53.49 56.63 60.59 61.57 62.55 63.30 64.05 64.43 64.17
54.11 53.81 53.18 51.13 44.38 45.37 46.04 47.10 48.10 47.87 40.15 45.40 48.26 51.63 53.52 54.95 51.60 58.02 56.16 52.30 48.14 46.64 45.31 44.46 48.63 49.39 50.14 49.87 50.55 43.87 50.74 52.40 53.26 51.91 47.88 55.97 46.28 51.94 57.57 59.18 61.31 62.80 63.20 64.45 64.92
53.81 53.44 52.31 51.08 45.05 44.26 46.98 47.47 47.68 48.38 33.60 48.80 50.30 55.48 51.69 51.22 51.56 53.29 55.97 51.64 48.10 45.94 45.22 43.82 46.93 46.74 47.60 50.01 51.88 49.45 51.33 49.61 51.91 50.61 49.01 49.79 46.67 49.89 55.55 54.53 58.67 61.66 62.71 64.86 65.85
53.24 52.83 51.44 47.58 45.30 46.74 48.37 46.73 46.29 40.36 34.46 47.26 51.68 49.06 48.30 49.20 51.01 52.06 51.70 51.70 52.21 47.00 45.27 46.22 49.62 49.07 48.69 50.95 52.44 53.01 48.77 45.60 44.85 45.21 42.37 49.24 46.80 45.40 52.50 56.39 58.82 60.86 62.19 64.91 65.39
51.87 51.14 50.15 49.53 41.79 44.42 44.55 44.66 38.52 34.40 46.41 45.94 45.17 47.43 45.65 44.77 48.60 49.74 47.26 45.93 44.36 40.52 39.02 44.35 46.27 47.91 51.52 47.00 49.24 47.45 42.33 36.83 37.81 39.54 40.12 45.28 45.72 48.16 54.49 59.58 60.39 60.32 60.77 64.07 65.24
50.41 49.99 48.79 49.10 48.44 47.69 42.61 39.59 32.85 42.24 42.64 46.94 47.52 47.79 44.93 46.97 46.03 47.95 44.87 44.59 44.86 42.85 40.15 38.50 39.48 45.95 48.92 47.91 45.65 44.42 43.07 37.69 33.33 34.46 40.03 42.80 43.82 50.16 55.97 59.50 61.55 61.78 61.70 63.93 64.16
49.91 43.86 44.08 46.17 48.57 44.38 40.80 32.47 36.03 41.05 47.19 46.80 45.38 43.60 42.59 46.60 46.38 46.55 44.14 44.59 46.79 44.44 40.71 37.55 39.33 47.30 49.30 49.80 49.01 44.03 40.80 44.35 38.90 37.51 37.28 39.61 44.38 50.45 54.85 55.50 59.30 58.95 59.25 62.24 63.81
45.92 41.82 42.84 49.11 49.10 41.99 37.47 33.74 37.85 45.55 47.24 45.94 40.80 44.19 40.70 43.16 43.66 43.28 43.71 47.36 46.81 46.57 45.68 42.57 37.91 44.64 47.87 49.15 48.44 47.46 46.78 40.68 38.08 34.61 33.56 38.68 41.07 43.57 49.95 52.30 56.07 57.01 57.79 61.34 63.41
40.29 37.67 43.59 49.19 44.98 39.57 32.73 34.23 39.71 44.56 44.41 43.37 43.19 42.71 42.25 42.24 43.38 41.91 43.69 48.11 49.86 48.78 47.36 42.17 40.22 41.39 45.74 44.21 44.12 44.77 41.89 40.53 41.13 38.40 35.91 35.20 39.75 47.77 51.04 53.54 54.95 56.83 59.00 61.07 62.68
38.01 31.39 46.16 47.67 39.49 36.46 34.57 38.51 44.08 42.27 43.93 43.28 44.65 43.72 42.99 45.22 43.86 43.12 43.90 47.31 51.84 50.72 44.19 43.94 40.38 40.43 42.01 45.93 47.59 45.73 44.89 43.87 41.58 37.28 36.68 38.40 40.78 50.64 52.85 55.29 57.22 57.43 58.56 58.78 61.63
39.41 36.10 45.84 44.90 35.49 36.75 40.67 43.81 45.41 44.38 44.93 42.57 41.78 45.04 46.90 45.04 40.95 44.48 47.19 52.22 53.52 49.94 46.62 43.92 37.87 35.81 38.58 40.31 44.05 43.89 45.14 42.37 40.83 39.88 38.75 39.18 41.49 51.33 51.88 53.49 56.35 56.91 57.48 57.88 59.24
39.48 34.25 40.34 41.11 38.97 37.09 36.96 39.90 42.69 49.86 48.17 48.82 44.90 47.11 47.15 43.41 48.49 44.95 47.36 51.82 53.24 50.58 58.07 52.10 37.51 41.14 40.03 40.63 43.61 43.28 45.85 45.59 44.05 39.40 38.92 41.24 44.11 48.14 51.03 52.88 53.47 55.13 57.11 58.12 58.74
40.30 38.09 38.54 35.10 37.69 36.08 36.05 40.20 42.58 42.63 47.00 48.31 43.99 45.96 47.77 43.31 45.96 47.13 48.86 51.47 54.02 56.88 53.06 45.95 41.59 39.81 44.34 46.03 45.73 46.03 46.33 46.25 44.37 45.24 44.60 44.53 45.54 49.45 51.41 52.64 54.25 54.91 55.24 56.13 57.23
41.36 38.21 40.66 38.85 37.54 37.70 37.28 38.21 40.99 42.20 42.76 43.61 43.78 48.05 48.38 44.37 47.88 47.81 50.26 47.07 49.40 49.80 46.26 43.94 40.86 42.42 42.19 45.01 45.99 45.19 47.08 47.53 47.94 45.29 45.13 44.78 45.68 50.38 53.39 52.78 53.10 54.81 55.00 55.59 55.98
41.39 42.05 40.83 40.10 37.67 36.61 38.23 39.83 42.00 43.21 44.25 45.46 47.99 47.43 47.24 48.94 51.26 51.09 52.13 51.59 51.34 47.16 45.82 41.98 43.07 38.73 41.26 43.40 45.44 42.19 46.12 46.97 48.80 49.84 48.57 44.68 47.89 51.18 51.28 53.36 53.72 53.95 55.59 56.26 56.99

GFSSW_sfc_wetblb_012.txt.gz
Wetbulb
57.34 57.38 57.42 57.41 57.69 57.98 58.21 58.42 58.75 58.73 58.92 59.02 59.24 59.37 59.56 59.38 59.32 55.95 51.06 59.01 60.08 71.38 72.99 70.91 67.74 65.65 65.69 60.45 63.12 61.75 50.87 49.46 52.02 53.16 54.93 61.88 62.53 66.10 67.62 64.84 66.23 66.90 65.56 67.75 71.05
57.00 56.86 56.97 57.15 57.37 57.69 57.75 58.01 58.08 58.29 58.42 58.34 58.66 59.03 58.78 60.31 55.13 52.65 61.46 69.59 72.52 73.50 58.89 57.19 55.27 56.59 54.44 56.26 60.46 56.38 51.13 53.17 56.83 56.51 57.73 61.31 63.33 64.00 63.41 63.24 63.96 64.92 68.50 70.51 71.02
56.34 56.50 56.45 56.55 56.90 57.09 57.39 57.41 57.49 57.57 57.68 57.88 58.16 58.86 58.88 59.37 50.00 49.48 68.23 69.67 72.25 70.72 58.47 58.15 54.46 54.10 50.73 53.32 57.24 57.33 54.04 57.35 58.60 58.35 62.50 61.11 62.21 63.50 62.25 59.96 63.36 63.08 66.53 69.02 69.68
55.89 55.98 56.01 56.17 56.55 56.77 56.96 57.13 57.08 57.11 57.28 57.41 57.80 58.72 60.06 54.03 44.47 51.69 73.26 73.72 72.75 64.99 56.94 54.96 52.29 50.40 49.88 50.02 53.38 53.45 58.49 59.38 59.44 61.41 59.69 59.86 62.09 62.49 62.63 62.09 66.20 66.48 68.12 68.92 68.67
55.48 55.53 55.55 55.73 55.90 56.07 56.46 56.47 56.49 56.41 56.85 57.21 57.77 58.47 53.97 47.35 49.85 55.08 71.68 72.84 68.90 61.57 55.65 52.97 50.95 51.30 50.52 51.41 52.28 52.04 53.03 59.17 60.92 59.42 59.73 61.79 60.64 62.05 61.80 65.30 67.44 67.49 68.45 68.07 68.22
54.98 55.48 55.56 55.32 55.50 55.79 56.39 56.51 56.26 56.01 56.46 57.23 57.86 58.07 49.87 44.58 54.46 56.02 64.21 64.88 62.18 56.30 54.66 53.11 52.76 54.44 52.58 51.62 50.06 52.46 56.96 59.10 59.85 59.49 59.53 59.37 60.52 62.11 63.32 66.97 67.07 66.82 66.81 67.80 68.26
54.90 54.72 55.20 55.50 55.08 55.31 55.79 55.73 55.33 55.66 56.76 57.83 57.83 57.85 52.04 49.52 55.26 57.05 55.81 57.92 59.67 54.49 53.29 54.02 54.05 52.58 52.00 50.28 52.44 59.00 56.33 58.62 58.55 57.59 58.78 61.67 57.34 58.86 64.24 66.24 66.01 66.49 67.24 67.94 68.77
55.23 54.89 54.91 54.62 54.85 55.28 55.19 54.84 54.66 56.29 59.72 58.27 58.84 54.87 46.05 56.57 57.14 59.62 55.93 52.97 55.37 52.94 53.06 53.22 53.83 50.88 50.65 51.89 56.94 54.54 54.54 51.61 56.41 58.40 59.77 58.51 52.30 61.06 64.29 64.18 64.45 66.42 67.12 67.65 68.38
55.22 55.26 55.15 55.17 55.07 54.64 54.11 54.35 55.23 59.17 58.80 59.41 54.01 50.34 48.54 61.04 56.03 58.77 56.59 53.97 52.39 50.86 51.98 56.26 53.11 48.96 49.74 49.14 50.07 49.69 48.80 49.65 54.34 58.67 58.77 56.98 53.63 61.12 63.87 63.13 63.61 65.45 66.28 67.17 67.75
54.68 54.62 54.54 54.54 54.33 53.70 53.19 53.76 53.91 56.16 58.89 59.08 58.78 50.50 52.47 51.61 55.07 57.97 56.11 54.29 50.84 51.04 51.14 48.74 46.88 45.50 45.13 47.95 45.18 47.17 48.54 48.96 52.76 56.61 58.37 55.82 54.68 60.68 62.38 62.25 62.27 63.79 64.85 65.69 66.20
54.62 54.39 54.25 54.03 53.54 52.72 50.67 44.44 45.64 45.93 50.53 49.08 49.69 51.94 53.27 54.78 56.94 56.77 55.98 53.17 48.87 45.81 43.33 45.12 43.41 41.66 45.87 48.40 52.01 50.83 51.97 51.91 54.22 56.71 55.32 54.83 55.37 59.43 61.35 61.58 61.31 61.81 62.71 63.98 64.55
54.35 54.07 53.86 53.43 52.47 52.21 47.14 42.52 45.51 44.61 40.08 47.61 49.53 51.30 54.26 54.48 52.40 54.80 56.54 51.42 48.45 43.37 43.63 43.13 41.31 46.12 48.86 50.01 49.66 51.29 50.22 50.55 52.99 56.94 56.07 55.12 55.35 59.26 60.97 61.11 61.67 61.94 62.20 63.09 64.32
53.97 53.68 53.43 51.84 51.72 47.10 42.49 42.32 47.70 46.13 39.95 45.88 48.49 49.41 50.19 53.37 50.84 52.85 55.21 50.86 47.36 44.20 42.40 40.39 44.07 48.67 50.19 48.42 47.71 45.84 46.99 48.62 52.42 55.54 56.35 55.71 52.94 54.85 59.59 61.19 62.00 62.69 63.37 63.84 63.82
53.41 53.56 52.32 51.21 43.59 44.42 43.76 45.39 45.75 45.39 38.66 44.02 46.62 50.59 52.33 53.55 49.59 56.53 56.19 52.36 46.97 45.43 43.81 42.78 46.73 48.23 47.71 48.55 49.02 43.47 49.57 50.36 52.34 52.59 46.50 54.12 43.44 52.02 56.34 57.90 59.70 61.03 61.86 62.76 63.55
53.08 52.84 51.34 50.50 44.21 42.62 44.85 44.56 45.01 44.50 31.95 47.19 48.08 54.16 50.55 48.59 47.97 51.52 55.11 51.05 46.74 46.34 44.69 43.75 44.61 45.59 46.36 48.57 50.66 48.00 50.72 50.17 51.61 49.03 48.01 50.02 45.17 48.52 55.99 54.54 57.62 60.20 61.75 62.84 63.91
52.46 51.98 51.16 47.09 44.83 45.75 47.40 44.48 43.99 38.59 32.68 44.59 50.39 47.20 47.52 47.78 49.02 50.72 51.60 51.83 51.17 47.03 44.06 46.37 47.99 47.70 47.40 50.14 52.11 50.96 46.62 45.42 44.22 44.62 40.54 47.47 47.82 45.21 51.22 56.46 58.81 60.93 62.50 63.63 64.51
51.06 50.63 49.81 48.99 40.80 43.83 43.76 42.83 36.19 32.40 44.12 43.53 43.00 45.10 44.57 44.51 46.95 47.75 46.66 45.32 44.27 39.86 39.26 43.09 44.53 46.63 49.55 46.30 47.87 45.68 42.22 36.40 36.37 38.33 38.89 44.68 45.72 49.91 53.30 58.81 60.11 60.28 61.95 63.81 65.04
49.85 49.59 47.63 48.21 46.15 46.63 40.71 37.66 30.43 39.88 41.13 44.96 45.54 44.95 42.71 44.21 43.84 47.16 44.86 43.54 43.65 43.28 38.06 38.27 37.47 44.57 47.47 46.27 44.68 43.89 43.07 37.20 33.19 34.00 40.04 44.65 44.46 50.21 57.29 57.91 60.70 61.34 62.36 62.92 64.31
49.58 43.21 42.16 44.67 48.25 43.09 37.57 30.12 33.43 39.13 45.46 44.99 43.78 41.30 40.39 44.90 45.10 44.75 42.48 43.20 45.34 43.46 40.94 36.87 37.92 45.29 47.39 48.34 47.83 42.17 40.16 43.37 37.18 34.25 36.07 39.41 44.02 50.43 53.06 53.55 56.85 58.65 59.96 60.98 63.51
45.09 42.43 40.24 47.85 47.39 39.72 34.02 32.40 35.72 43.12 44.27 43.55 39.14 42.21 38.31 40.67 42.23 41.56 41.45 45.50 44.88 46.33 43.98 41.49 35.95 43.14 45.64 47.33 46.73 45.48 45.46 40.57 36.60 32.99 31.83 37.33 39.55 43.05 48.38 52.03 53.23 55.45 58.27 60.43 62.74
39.12 35.17 41.41 47.62 42.13 37.21 30.47 32.08 37.37 42.50 43.76 40.74 41.24 40.59 40.08 40.20 41.30 40.28 42.28 45.82 47.85 47.14 44.96 41.63 38.58 39.92 43.58 43.21 43.33 42.31 40.51 39.17 39.28 36.91 34.33 33.52 37.85 46.15 48.94 51.64 53.38 55.14 58.71 59.62 61.20
40.01 30.78 43.56 44.96 37.67 32.92 32.64 35.96 42.23 41.43 42.59 41.42 42.05 41.63 41.04 42.54 40.18 41.00 41.90 45.65 49.88 48.25 42.69 42.69 40.96 38.79 40.45 43.76 45.78 45.63 42.89 41.95 39.73 35.33 35.75 36.59 39.17 49.34 51.20 51.79 54.83 55.82 58.36 58.43 60.82
37.04 36.91 43.07 42.47 33.16 34.69 38.18 41.64 43.53 42.50 42.28 42.63 41.85 42.50 41.98 40.72 38.68 41.79 44.15 49.17 49.92 48.73 44.84 42.74 36.83 36.32 36.84 38.93 42.05 42.01 43.17 39.51 39.28 38.24 36.27 37.49 39.87 49.91 50.35 52.30 54.84 55.45 56.31 57.36 60.11
39.72 32.86 37.98 38.74 35.70 34.10 33.45 37.21 40.20 47.41 45.82 46.11 44.07 43.96 41.69 40.82 42.06 41.30 44.46 50.33 51.29 50.93 58.68 51.17 36.76 39.56 39.20 39.89 41.98 41.29 44.11 43.03 41.56 36.93 37.64 39.74 43.59 47.07 51.20 52.05 53.67 55.58 56.75 56.68 59.03
41.14 36.89 38.11 34.41 35.35 35.84 33.21 37.33 40.38 40.94 44.25 44.91 42.44 43.80 42.95 39.13 42.15 41.67 45.59 47.98 52.00 54.88 49.81 43.41 39.12 38.50 44.66 43.58 44.11 44.13 44.55 43.81 42.11 42.16 41.51 44.22 44.27 48.41 51.03 52.22 53.38 56.65 57.22 57.20 57.17
39.98 38.13 39.95 37.64 38.59 35.51 35.48 35.10 39.49 41.41 41.03 40.86 41.59 45.45 43.35 41.55 44.14 42.93 45.38 47.26 47.32 48.56 46.22 42.81 39.57 39.14 42.72 44.52 44.40 43.77 44.97 45.37 45.30 45.08 43.54 44.43 44.67 49.45 52.28 53.48 53.72 54.71 56.09 57.00 57.74
40.19 41.34 40.89 38.22 37.19 34.46 35.18 37.45 39.81 41.69 43.19 44.24 43.41 41.44 42.18 45.98 47.03 48.12 48.43 49.99 50.49 47.86 45.34 41.50 38.97 36.50 39.10 41.77 40.79 38.48 44.17 44.45 45.35 46.69 47.27 43.63 49.35 50.11 51.11 52.58 53.44 53.90 55.40 57.21 57.98

GFSSW_sfc_wetblb_015.txt.gz
Wetbulb
57.21 57.32 57.17 57.23 57.44 57.89 58.11 58.32 58.49 58.69 58.71 58.88 58.89 59.23 59.86 59.38 59.30 58.70 55.90 61.26 62.97 73.93 74.14 70.90 68.31 70.66 69.94 67.70 66.77 64.75 59.13 56.00 56.56 58.75 60.42 65.36 64.03 67.60 69.01 66.38 66.79 68.11 67.68 68.95 71.90
56.73 56.85 56.82 56.97 57.17 57.34 57.46 57.76 58.00 58.13 58.26 58.34 58.52 58.70 59.59 59.66 57.00 56.17 64.58 67.96 70.90 74.40 68.39 64.50 63.48 64.66 62.25 59.65 64.19 63.04 59.46 57.70 60.57 62.40 62.39 64.78 65.40 66.34 65.47 64.90 65.01 66.59 69.49 71.20 71.86
56.51 56.33 56.28 56.50 56.94 57.03 57.29 57.46 57.51 57.42 57.57 57.72 58.08 58.56 59.27 60.16 55.30 54.51 70.14 69.54 72.16 71.48 63.99 60.90 59.12 57.66 55.29 59.04 62.00 62.25 59.07 61.19 61.58 62.58 65.22 64.81 65.20 67.31 64.96 62.81 65.31 65.79 68.10 70.09 70.44
55.92 55.93 55.94 56.23 56.41 56.58 56.77 56.95 56.97 56.89 57.01 57.48 57.90 58.41 59.20 58.13 49.07 55.34 72.72 70.73 71.86 68.30 60.14 58.80 56.60 54.81 53.86 54.13 59.09 59.23 61.44 62.05 62.40 63.74 64.74 64.10 66.62 64.58 65.14 63.67 67.81 68.97 69.85 70.03 69.62
55.48 55.47 55.48 55.56 55.95 56.21 56.34 56.50 56.29 56.28 56.63 57.20 57.86 58.27 56.95 52.67 53.69 58.28 71.34 73.20 69.62 63.18 57.62 57.02 54.64 54.74 53.11 55.25 56.41 56.46 57.15 61.01 63.26 63.74 65.10 65.98 64.55 64.38 64.75 66.67 69.21 69.80 69.80 69.30 69.70
55.05 55.37 55.48 55.46 55.63 55.94 56.41 56.40 56.15 55.82 56.46 57.44 58.34 58.29 54.87 48.90 57.39 61.67 67.88 67.38 66.06 61.15 57.31 57.25 56.07 57.25 55.63 56.84 56.18 56.63 58.45 60.55 63.06 62.67 64.40 63.68 63.71 64.93 65.31 68.45 68.18 68.61 68.87 69.51 69.93
54.88 55.04 55.33 55.46 55.38 55.50 56.01 55.67 55.27 55.51 56.38 58.67 58.68 57.58 53.55 52.55 57.85 58.81 61.65 62.96 64.16 60.06 56.35 57.50 57.68 57.78 57.85 55.51 56.73 62.40 59.87 61.87 61.87 62.57 62.27 64.75 61.20 62.15 66.56 68.16 66.98 67.65 68.32 69.12 70.04
54.66 54.90 54.83 54.85 55.06 55.05 55.36 54.87 54.59 56.17 58.43 59.35 59.34 58.09 52.69 58.29 59.92 60.21 61.13 57.99 61.82 59.15 59.19 58.90 57.78 55.61 55.69 58.44 61.31 59.50 60.33 56.84 60.92 62.21 62.89 62.79 57.13 63.39 67.25 67.15 65.99 66.62 67.62 68.35 69.62
54.42 54.37 54.86 55.02 54.98 54.61 53.89 53.98 55.63 58.77 59.27 59.86 57.67 55.23 54.20 63.40 59.19 61.49 61.55 56.45 58.66 58.62 58.10 57.42 57.65 54.40 54.76 57.12 57.41 57.98 54.67 56.24 58.24 62.46 62.07 61.54 58.27 63.58 66.99 66.84 65.98 66.50 67.23 68.04 69.11
54.49 54.30 54.30 54.43 54.14 53.36 52.91 53.75 55.02 58.05 59.52 59.77 59.60 54.52 58.10 56.37 58.18 60.07 60.79 56.84 55.40 55.39 54.98 53.82 53.46 51.60 53.05 55.57 49.93 54.26 55.02 56.78 57.36 60.15 61.58 60.22 59.86 63.39 65.68 66.16 66.02 66.81 67.41 68.17 68.99
54.24 53.87 53.97 53.75 52.95 52.31 52.03 51.45 52.32 51.94 54.53 54.59 54.92 55.73 55.77 57.84 58.93 59.04 59.18 55.38 54.81 54.27 50.49 52.11 49.03 47.06 51.41 56.25 57.35 57.53 57.04 56.81 59.09 61.15 60.24 59.61 59.98 62.21 64.86 65.26 65.16 66.70 67.28 67.86 68.75
53.87 53.60 53.40 52.78 52.11 52.03 49.73 47.29 47.94 47.87 44.06 48.64 49.19 51.49 54.68 57.15 53.03 57.48 59.52 55.55 52.30 48.98 49.35 49.00 46.79 50.89 53.32 53.85 56.03 57.53 56.52 56.94 58.91 61.06 60.66 59.42 59.23 62.21 64.27 64.51 65.35 65.77 66.81 67.80 68.76
53.52 53.11 52.82 51.72 51.47 49.83 46.02 48.22 50.11 50.06 44.10 47.80 49.60 50.26 52.16 53.39 51.50 52.82 57.66 55.69 53.31 49.93 47.88 47.36 48.57 51.19 51.53 52.06 52.00 55.89 56.44 56.60 56.79 59.02 60.39 59.72 57.47 59.73 63.34 65.05 65.61 66.29 67.06 67.69 67.93
53.28 52.74 52.14 50.37 47.72 46.70 47.99 50.62 50.23 49.26 45.10 48.20 49.92 53.09 54.67 54.24 51.01 56.13 57.57 56.65 52.51 51.30 48.54 48.13 50.56 49.62 50.30 51.29 53.10 51.55 56.80 58.40 57.40 56.51 52.66 59.46 51.06 58.01 61.39 62.38 64.00 65.19 65.80 66.51 67.39
52.84 52.06 51.26 50.26 47.43 46.08 48.47 49.96 50.37 49.42 37.74 49.34 51.36 56.75 55.48 53.20 51.95 53.33 58.43 56.03 52.52 51.34 50.51 48.75 47.78 48.79 49.12 50.94 53.93 53.19 55.50 56.64 57.82 56.84 55.16 55.59 52.95 56.42 60.40 59.72 62.26 64.49 65.68 66.66 67.65
52.18 51.43 50.95 48.61 47.39 48.78 50.06 49.30 50.21 44.61 37.08 46.71 53.15 51.39 50.87 52.37 52.22 54.18 54.47 56.56 55.97 52.41 50.21 51.51 51.38 50.89 51.22 53.58 54.86 54.43 53.57 53.33 55.48 55.27 49.04 54.03 53.62 53.16 57.44 60.08 62.20 64.38 65.77 66.59 67.31
50.84 49.91 49.64 49.56 45.83 48.98 49.69 47.96 42.88 38.63 47.31 45.99 48.04 49.53 49.31 49.33 50.31 51.55 51.10 50.79 49.99 47.50 47.59 50.19 49.64 51.36 51.71 50.58 54.58 53.48 51.90 46.62 45.73 46.38 45.91 53.07 53.29 55.02 59.33 62.21 63.32 64.02 64.97 66.44 67.60
49.46 49.13 49.06 49.84 50.65 50.73 47.12 43.32 36.57 42.28 44.79 48.12 48.31 48.37 46.47 48.76 49.47 49.68 49.84 48.43 52.10 52.22 49.05 46.04 44.04 49.30 51.71 50.81 50.60 51.31 51.51 47.64 42.47 43.85 46.54 50.70 49.03 54.02 60.99 62.33 63.70 65.63 66.15 66.87 67.11
49.10 47.79 46.00 48.28 50.22 49.22 43.29 36.28 39.34 42.77 47.32 46.32 47.91 45.71 46.32 47.61 48.25 48.92 49.29 49.04 51.02 52.90 47.91 46.14 45.88 49.40 50.61 52.24 53.38 50.92 48.49 53.71 48.74 46.38 47.08 50.31 53.53 56.32 59.40 59.99 61.35 62.78 64.93 65.79 66.95
46.30 43.75 43.28 50.39 50.67 45.80 39.89 37.50 40.34 46.15 48.49 48.16 44.46 46.70 44.28 45.74 46.05 46.89 47.91 50.58 50.49 52.08 54.92 49.33 44.85 49.28 49.98 52.11 52.02 51.47 53.08 47.04 48.08 44.53 42.11 46.32 48.24 50.13 56.74 59.08 61.53 61.43 63.19 65.24 67.18
44.56 39.73 46.85 50.86 47.06 42.78 36.37 37.47 40.39 44.68 47.58 45.63 45.64 45.49 46.40 45.31 46.02 45.34 46.36 49.71 50.56 50.53 53.10 51.37 48.93 46.98 48.87 48.28 47.87 48.81 48.19 48.98 50.58 48.98 45.88 44.17 47.36 56.59 58.25 60.59 60.97 62.34 63.07 64.78 66.55
42.69 35.14 47.54 49.31 41.87 40.74 38.75 40.13 42.44 43.62 45.04 45.89 45.55 46.70 46.30 46.36 45.56 45.14 45.63 48.96 51.91 51.37 48.21 50.89 49.46 46.23 47.31 50.19 51.08 50.99 49.93 50.92 47.38 46.63 47.50 48.12 48.62 56.30 58.16 60.07 60.94 62.20 63.34 64.44 66.45
38.64 39.63 47.70 46.87 38.29 40.21 43.14 43.28 45.44 45.06 44.34 44.26 43.46 46.00 46.86 44.38 42.28 44.77 46.63 50.72 51.84 51.59 51.99 49.66 47.25 44.09 45.45 48.53 49.92 47.98 49.65 50.76 50.81 50.72 49.49 45.48 47.91 58.13 57.65 57.95 59.73 60.37 63.39 64.36 65.66
40.46 35.38 43.93 44.07 42.38 39.79 39.36 41.09 42.23 47.99 47.20 48.44 46.65 47.31 46.77 45.91 47.71 46.13 47.09 50.88 52.56 51.84 58.56 54.90 50.18 48.18 44.67 47.53 49.84 47.26 47.86 49.29 49.03 47.04 47.50 48.06 50.54 54.51 56.97 58.54 60.81 61.78 63.05 64.24 64.43
41.75 39.47 41.57 38.87 40.66 41.07 39.80 39.92 40.14 41.23 47.15 47.80 47.73 47.98 47.11 44.60 45.96 46.20 48.38 49.21 50.78 55.38 55.72 54.23 48.63 48.87 50.03 51.19 50.05 48.94 47.52 48.04 48.04 50.00 48.12 49.78 50.68 55.38 58.23 59.75 61.84 64.26 64.62 63.49 63.68
39.46 39.43 40.01 38.99 40.65 39.75 39.35 39.52 40.47 42.45 43.43 44.72 44.98 47.65 48.40 46.10 47.41 46.17 48.55 49.32 50.22 53.90 53.78 51.48 48.62 48.30 47.06 49.37 49.65 47.75 49.35 49.01 48.93 49.07 49.84 50.61 52.39 58.02 60.24 60.69 60.63 62.42 63.13 63.41 63.83
43.49 43.95 39.84 37.24 37.95 37.92 39.11 39.70 40.74 41.81 44.95 46.16 45.20 44.02 44.01 46.51 49.41 50.58 51.73 52.09 53.18 53.13 53.91 53.51 49.42 47.39 45.78 49.25 47.91 45.11 48.79 49.37 50.21 51.36 51.19 49.41 54.11 59.58 57.24 58.42 60.71 63.65 63.41 64.10 65.32

GFSSW_sfc_wetblb_021.txt.gz
Wetbulb
57.28 57.40 57.38 57.50 57.80 57.96 58.25 58.38 58.49 58.88 59.07 59.23 59.42 59.62 59.87 60.01 59.79 63.39 62.25 68.34 69.16 76.47 76.71 71.41 70.65 69.35 70.39 69.25 70.15 69.49 60.22 58.41 57.58 58.41 59.42 63.49 62.82 65.78 68.36 66.38 67.26 68.52 69.82 71.63 73.46
56.87 56.96 57.03 57.09 57.40 57.61 57.74 58.08 58.13 58.24 58.30 58.84 59.15 59.04 59.76 59.90 61.57 60.22 70.86 73.91 75.32 75.73 70.90 66.82 64.90 67.20 66.22 66.84 68.21 65.65 58.04 59.60 61.79 62.79 62.00 62.86 62.86 65.02 64.96 65.21 66.01 67.06 70.86 72.37 72.96
56.45 56.50 56.54 56.79 56.94 57.33 57.43 57.65 57.94 57.67 57.79 58.10 58.29 58.90 59.70 60.32 60.18 58.87 71.25 72.89 75.34 75.29 66.89 66.79 66.21 66.57 63.56 64.95 64.73 64.64 61.55 62.45 62.32 63.80 64.87 63.35 63.17 65.37 64.61 63.05 65.96 66.11 69.11 70.69 71.45
55.98 55.99 55.92 56.13 56.54 56.79 56.98 57.21 57.49 57.15 57.34 57.54 58.02 58.67 59.83 62.10 52.53 63.83 72.40 72.13 75.42 70.38 66.72 64.54 63.83 62.42 62.15 59.96 62.38 61.48 64.09 63.40 63.77 63.43 64.28 62.96 65.35 62.75 63.64 64.74 67.42 69.03 70.61 70.64 70.67
55.54 55.43 55.38 55.42 55.83 56.04 56.44 56.73 57.01 56.59 56.67 57.18 57.83 58.59 61.05 58.04 57.14 67.35 72.40 72.17 69.11 67.32 63.00 61.96 60.76 60.41 59.91 59.38 61.28 61.22 62.82 62.41 62.43 63.60 63.87 64.93 63.99 63.16 62.66 66.14 68.21 69.92 70.46 70.28 70.69
55.09 55.24 55.68 55.70 55.57 55.82 56.26 56.39 56.12 55.50 56.32 57.35 57.99 58.48 59.54 53.34 61.47 64.77 63.49 66.98 65.07 63.94 62.29 60.68 60.33 61.17 59.39 59.55 59.91 61.88 62.20 61.08 61.30 62.49 63.67 63.11 63.92 64.23 64.33 67.42 67.92 69.42 69.60 70.20 70.33
54.90 55.08 55.38 55.24 55.10 55.31 55.67 55.59 54.76 55.26 56.49 58.36 58.74 60.25 58.29 57.38 61.25 62.03 64.75 63.85 63.78 63.85 60.16 60.95 60.58 58.88 59.45 58.17 61.54 61.53 58.58 61.53 61.68 62.37 62.59 64.19 61.72 62.20 65.97 68.10 67.41 68.47 69.36 69.60 70.12
54.55 54.81 55.38 55.19 54.96 54.83 54.67 54.21 54.32 55.98 59.13 60.16 60.06 61.70 56.80 62.77 63.96 61.36 62.05 61.35 63.26 63.67 63.01 62.27 60.98 59.32 58.89 60.95 60.21 58.81 60.02 57.04 60.95 62.00 63.09 63.07 58.31 63.52 67.23 66.84 67.23 67.64 68.75 69.18 70.03
54.86 54.96 54.86 54.83 54.55 53.91 53.45 53.78 54.80 58.63 60.30 60.56 62.71 62.10 57.34 64.16 60.52 61.63 61.66 59.63 61.45 62.12 63.68 62.05 60.44 57.23 58.05 56.01 56.02 57.91 55.00 56.48 58.38 62.50 63.43 62.61 58.37 64.15 67.36 66.25 65.63 67.70 67.99 68.93 69.70
54.47 54.44 54.30 53.97 53.74 52.89 52.47 53.73 58.05 59.72 61.80 64.31 64.30 59.90 60.43 59.03 61.90 62.99 64.38 62.71 59.72 60.16 58.74 58.36 56.92 54.38 55.17 55.03 51.72 55.05 55.47 57.18 58.84 60.62 62.91 61.09 61.04 64.73 66.96 66.13 64.88 66.69 67.52 68.21 68.85
54.11 53.92 53.72 53.45 52.72 52.00 53.61 59.55 58.32 59.40 61.61 59.17 59.53 58.20 59.18 61.65 63.48 60.94 63.18 60.92 59.82 58.14 53.49 55.72 52.22 50.50 53.87 56.46 57.66 58.42 57.88 56.78 59.19 61.14 61.12 61.04 61.50 63.68 66.60 66.66 65.44 65.35 66.78 67.36 68.23
54.01 53.72 53.35 52.83 51.87 51.49 54.57 54.36 53.63 52.87 49.05 54.66 55.72 56.90 59.73 61.54 57.35 59.53 63.09 56.25 56.68 53.47 54.65 53.28 50.37 54.02 56.01 56.76 56.56 57.31 57.21 57.33 59.32 60.98 60.86 60.71 60.63 64.05 66.12 66.48 67.07 66.41 66.36 67.23 68.19
53.74 53.37 52.93 52.06 51.35 55.59 53.58 55.37 56.26 55.42 49.75 52.44 55.50 55.02 56.05 57.24 55.60 56.83 60.76 57.29 54.63 53.58 52.67 51.16 52.43 54.74 54.74 55.21 55.32 56.14 56.35 57.36 57.11 60.90 62.32 60.85 59.31 61.38 64.44 67.08 67.56 67.72 67.82 68.07 67.93
53.61 53.37 52.45 50.90 51.55 53.93 54.02 57.08 56.34 55.40 47.54 51.32 53.26 55.06 56.32 56.60 53.36 58.80 60.58 58.56 54.98 53.10 53.73 52.53 54.89 53.06 53.04 53.35 55.65 53.75 58.27 58.14 57.78 57.24 55.80 60.70 54.05 60.15 62.33 63.17 65.93 67.38 67.98 67.79 68.40
53.57 53.06 51.73 50.15 51.56 52.53 53.66 55.85 55.46 54.80 42.15 54.36 54.72 60.02 58.39 55.07 57.39 56.17 59.80 59.00 54.36 53.77 54.32 52.29 52.38 52.40 51.51 52.96 56.04 54.93 58.94 58.42 58.24 57.20 57.59 57.01 54.95 57.46 61.73 60.75 62.96 66.20 67.84 68.44 68.54
53.24 52.39 51.25 52.61 54.80 55.90 56.37 55.55 54.29 46.78 42.41 51.54 55.39 54.50 54.78 55.82 56.72 57.49 56.32 59.34 58.78 55.47 55.07 53.99 56.34 54.65 53.54 54.93 55.77 57.12 57.51 57.99 57.81 56.73 51.72 57.15 54.88 56.63 57.80 61.43 62.93 64.98 67.30 69.09 68.93
51.86 50.68 50.57 52.83 51.03 56.31 55.45 51.83 44.67 42.36 52.24 50.72 52.13 54.32 54.08 53.76 54.63 55.25 53.70 52.94 52.05 50.19 51.20 53.28 53.33 54.66 55.07 52.44 55.30 55.17 54.60 50.76 50.02 50.39 49.86 58.10 55.50 57.82 61.37 62.93 63.74 63.83 65.25 68.30 70.16
50.36 48.91 52.70 54.75 56.96 56.51 53.03 46.17 40.25 47.76 48.84 53.14 53.10 53.96 51.74 53.59 53.82 53.95 53.14 51.33 53.77 53.92 52.05 49.95 48.20 53.31 54.37 52.76 52.06 53.14 53.65 50.89 46.78 48.22 50.86 56.58 53.85 57.48 63.43 63.49 64.67 64.98 64.67 66.75 69.56
49.49 53.39 53.04 54.95 56.85 55.16 49.43 40.61 43.41 47.57 51.65 50.88 52.25 50.44 51.66 52.73 52.74 53.54 53.14 52.10 53.45 54.48 50.92 50.86 50.69 55.36 54.74 54.72 53.75 52.77 52.01 56.33 52.98 54.29 51.59 53.79 56.97 59.79 62.37 62.63 63.14 63.37 63.36 63.87 68.27
49.99 51.37 52.15 55.78 56.86 52.88 45.61 41.34 46.44 49.50 51.50 51.13 48.48 51.50 49.69 51.34 51.14 51.84 52.60 54.43 53.28 54.94 56.57 54.19 50.49 54.58 54.38 55.23 54.20 52.93 56.02 52.04 53.94 49.18 48.32 51.74 53.55 54.56 59.58 60.26 61.61 62.14 62.44 63.95 65.92
50.15 46.75 54.50 57.33 56.31 49.79 42.05 43.93 46.62 49.12 49.66 48.83 48.63 49.57 50.98 51.10 52.24 51.37 51.68 54.24 54.98 54.52 55.73 54.47 53.33 52.72 54.80 52.64 51.28 50.97 51.82 54.04 54.53 53.65 49.47 48.66 52.59 59.40 60.44 61.64 61.33 62.12 63.10 63.69 64.96
49.34 43.88 54.71 56.34 46.05 47.22 44.16 46.95 47.35 48.64 50.65 48.58 48.92 49.95 50.72 51.18 50.82 51.41 51.27 53.42 56.11 55.85 52.63 55.00 53.37 50.80 52.30 55.41 55.46 53.56 51.94 53.28 53.18 51.89 53.13 52.36 52.47 60.47 60.82 61.52 61.82 62.50 63.19 64.18 64.97
46.08 47.63 53.67 51.69 40.42 42.41 46.07 46.58 48.44 47.54 48.27 48.14 46.90 48.70 50.56 50.16 49.75 51.62 52.50 55.30 55.35 55.17 54.33 55.07 52.04 49.15 50.55 53.14 54.67 52.31 52.66 53.14 53.76 54.93 54.54 50.78 52.45 61.13 61.26 61.42 62.12 61.75 62.87 64.03 64.76
45.89 42.09 46.78 49.11 48.94 44.49 43.28 44.16 44.37 49.51 48.11 48.79 47.81 48.68 47.69 47.40 50.90 50.22 51.25 53.94 55.11 54.90 61.20 59.72 53.29 51.12 48.99 51.26 53.14 50.73 51.12 52.20 52.05 51.27 52.15 52.64 54.84 58.48 59.81 60.61 61.58 62.18 63.27 63.95 64.60
44.85 43.35 46.11 41.35 44.07 43.61 43.04 45.48 42.27 42.33 47.65 49.12 47.69 47.31 46.58 44.93 46.91 47.76 50.50 53.00 54.06 57.37 55.83 55.84 52.07 53.70 53.44 54.31 54.19 52.40 50.51 50.74 50.34 52.21 50.70 53.10 54.44 57.71 59.85 60.70 62.22 62.61 63.21 63.38 64.10
41.75 42.36 45.08 43.30 45.11 42.27 41.74 41.82 40.21 41.46 43.89 42.71 44.18 46.49 47.44 45.49 46.60 45.84 49.29 51.83 51.55 53.18 53.11 56.17 52.09 54.14 52.06 53.46 53.02 51.75 52.97 52.16 51.73 51.20 51.88 52.79 53.39 59.17 60.84 61.99 62.26 62.47 62.41 62.64 63.32
48.21 47.96 44.41 40.96 41.75 40.75 39.61 40.09 41.04 44.03 44.36 46.77 43.82 44.62 47.32 48.36 50.61 51.76 53.19 52.87 52.81 53.63 53.36 53.63 52.75 51.80 48.89 53.07 52.89 49.69 52.48 53.37 53.98 54.32 53.18 50.41 54.22 57.53 58.43 60.48 62.15 65.10 63.54 63.27 63.82

GFSSW_sfc_wetblb_024.txt.gz
Wetbulb
57.08 57.26 57.41 57.36 57.73 57.92 58.33 58.58 58.74 58.76 58.80 59.35 59.34 59.65 59.83 59.96 59.52 61.97 60.79 65.79 68.37 75.79 75.58 70.44 70.65 70.47 69.51 66.81 68.56 67.16 58.36 58.73 58.02 57.68 58.35 63.05 61.49 65.92 67.56 65.76 67.79 68.86 68.24 70.68 71.87
56.97 56.90 56.88 56.67 56.97 57.29 57.48 58.05 58.13 58.13 58.24 58.53 59.01 59.33 59.66 59.94 59.27 57.91 65.31 73.98 75.23 75.24 64.68 64.75 65.36 67.01 63.41 64.14 66.27 60.35 56.50 59.16 61.49 62.07 59.97 62.62 62.30 63.44 63.36 63.83 64.92 67.99 70.25 71.21 71.56
56.47 56.60 56.43 56.27 56.21 56.38 56.72 57.09 57.40 57.49 57.62 57.83 58.20 58.91 59.36 59.84 57.62 58.51 73.74 75.56 75.75 73.56 62.07 63.48 64.74 64.16 61.53 64.17 64.84 61.61 56.50 62.40 63.56 63.26 62.97 61.91 62.25 63.69 63.25 61.76 64.69 66.60 68.47 69.87 70.38
56.08 56.21 55.99 55.91 55.80 55.78 56.15 56.56 56.74 56.66 56.97 57.17 57.86 58.44 59.61 59.80 50.68 60.37 72.32 74.94 75.47 67.78 62.73 61.57 62.23 61.04 60.93 61.00 63.99 59.92 63.58 63.03 63.74 63.91 63.87 61.87 63.28 61.96 64.18 63.59 67.17 69.49 70.42 70.26 69.60
55.48 55.56 56.04 55.84 55.62 55.99 56.12 56.44 56.59 55.99 56.27 56.96 57.76 58.57 59.89 56.62 57.16 63.59 73.82 72.95 68.06 64.72 61.57 61.32 60.51 60.97 59.00 61.76 62.24 60.32 63.03 63.71 63.05 62.85 63.49 63.96 62.60 61.44 62.72 66.03 67.74 69.49 69.77 69.66 69.68
54.78 55.27 55.76 55.80 55.97 56.12 56.20 55.86 55.70 55.76 55.83 56.99 58.21 58.46 58.06 50.68 61.10 64.00 64.00 66.56 62.67 63.62 61.56 61.28 61.06 62.01 60.37 61.30 59.74 60.86 61.38 62.05 61.55 61.43 62.29 62.63 62.90 62.45 62.98 66.12 66.93 68.06 68.29 69.01 69.37
55.19 55.31 55.37 55.35 55.56 55.30 55.74 55.30 55.28 55.13 55.94 57.78 60.15 58.91 56.07 54.24 63.01 65.26 62.92 61.57 63.10 62.66 59.94 61.20 61.87 60.06 60.60 58.56 61.36 60.40 58.38 59.95 60.47 60.90 61.12 63.68 60.78 60.78 63.77 65.66 66.02 66.79 67.99 68.58 69.33
55.42 55.40 55.14 55.28 55.28 55.08 54.62 54.22 54.64 55.35 57.07 60.25 60.38 59.91 54.16 60.02 62.78 61.48 61.62 61.78 63.70 63.37 62.65 62.02 61.92 58.74 58.13 60.05 58.75 57.09 58.18 55.27 59.63 60.71 61.66 61.54 57.57 61.85 64.84 63.91 64.62 66.54 67.30 68.20 68.92
55.07 54.96 55.00 54.80 54.53 54.12 53.47 53.52 54.79 56.80 59.54 60.76 60.50 60.98 56.10 65.61 60.98 62.24 61.66 59.02 60.71 60.86 61.86 62.61 60.32 56.76 56.59 54.34 53.61 55.67 52.75 55.01 57.35 61.11 61.06 59.89 58.58 63.03 65.76 64.07 64.21 65.74 66.69 67.30 68.75
54.63 54.47 54.38 54.22 53.81 53.08 52.56 53.49 57.93 58.55 61.19 63.29 63.12 59.44 61.70 58.69 61.53 61.58 61.58 60.06 57.72 58.92 57.84 58.36 57.08 53.97 53.47 52.84 48.52 51.75 53.34 55.50 56.40 59.61 60.45 59.25 59.38 61.70 64.18 63.84 64.07 65.04 66.43 67.33 67.55
54.53 54.22 53.95 53.84 53.21 52.25 51.81 56.28 57.73 57.05 59.89 59.26 59.19 56.65 58.36 62.47 63.07 61.19 61.74 59.30 59.37 57.57 53.23 56.50 52.35 49.97 52.40 54.03 55.42 55.15 55.55 55.17 58.02 60.67 59.37 60.35 59.48 59.34 63.78 64.30 62.80 64.48 65.27 65.98 67.33
54.26 54.07 53.92 53.43 52.52 51.69 53.31 54.85 54.87 53.55 48.45 53.41 54.96 58.33 61.94 62.45 58.12 59.79 62.04 57.61 56.22 52.66 54.92 52.86 49.87 53.14 54.70 54.97 54.71 54.97 54.60 55.98 58.58 61.37 61.13 59.30 61.11 61.98 64.87 64.77 64.19 63.85 64.95 65.77 67.05
53.74 53.64 53.27 52.93 51.64 54.45 54.92 53.33 58.24 56.04 48.36 50.69 53.55 52.95 56.65 60.85 57.23 57.81 59.84 58.22 54.72 52.75 53.18 50.41 52.04 54.10 53.19 53.28 53.55 54.25 54.14 55.74 56.70 59.50 60.22 58.91 57.44 59.45 63.82 65.43 65.90 66.03 65.91 66.18 66.75
53.45 53.51 52.94 51.70 52.33 52.87 53.09 57.65 56.17 55.62 45.18 49.58 53.11 53.90 54.96 55.99 53.29 58.73 60.31 58.64 54.54 52.37 53.64 52.55 54.34 52.87 51.64 51.68 54.22 51.79 56.65 56.63 56.18 56.72 53.16 59.57 51.81 59.52 61.58 63.55 64.30 64.88 65.57 65.81 66.81
53.35 53.14 52.21 50.91 49.29 51.35 55.59 56.70 55.90 53.88 39.32 54.44 54.49 59.74 56.84 53.34 55.09 54.72 58.69 57.93 54.47 52.62 53.44 51.79 51.87 51.61 50.63 51.57 54.85 54.02 57.42 56.43 56.10 55.26 57.12 57.32 53.65 57.80 61.38 60.88 63.19 64.47 65.35 66.07 67.39
53.06 52.54 51.82 51.69 53.19 54.88 57.18 56.28 54.05 44.56 39.98 51.64 55.04 53.56 52.89 53.54 53.56 57.35 54.87 57.62 58.33 54.59 54.04 53.51 56.36 53.89 53.28 53.88 54.57 56.75 55.57 55.70 55.75 55.37 50.81 55.92 54.20 55.88 58.88 59.44 61.86 64.91 65.82 67.52 67.63
52.16 51.02 50.55 52.15 49.29 55.38 55.77 52.40 42.94 40.75 52.70 51.04 52.61 54.41 53.43 52.00 51.80 55.16 52.90 51.51 51.10 49.93 49.91 52.67 52.57 55.09 54.93 52.21 53.89 53.35 52.16 49.01 48.58 49.87 48.97 56.67 55.79 57.49 61.68 62.95 63.03 62.80 64.36 67.76 68.96
50.63 49.44 51.94 53.96 56.05 56.19 53.89 45.85 38.76 47.24 47.56 54.33 53.85 53.95 51.67 53.74 52.59 52.73 53.20 49.88 52.72 53.03 50.78 48.92 47.43 52.28 55.00 52.62 51.12 51.25 51.49 49.55 45.21 47.31 49.48 55.40 51.91 57.53 63.18 63.86 63.59 63.58 64.59 67.15 68.29
49.90 53.40 53.26 54.63 56.47 55.69 48.74 40.01 42.53 46.92 51.40 51.18 52.34 50.78 51.52 52.94 53.57 52.87 52.99 51.91 52.43 53.40 50.67 49.77 49.61 55.33 54.69 54.77 53.43 51.21 49.31 53.27 50.21 52.65 50.59 53.05 55.83 59.27 63.10 61.96 63.83 63.36 64.56 64.59 68.03
48.86 49.74 52.69 56.95 56.65 53.60 45.04 40.08 46.10 49.25 50.49 50.67 47.55 51.06 49.14 51.61 51.42 51.81 52.08 54.22 53.14 54.33 55.57 53.25 49.61 54.27 54.97 55.52 54.15 52.15 54.33 48.48 49.99 45.93 46.67 51.20 53.45 54.97 60.15 59.88 63.00 63.15 63.40 64.26 66.96
49.04 47.87 53.51 56.58 55.43 49.35 41.40 43.11 46.24 49.66 49.93 47.24 46.00 46.16 48.29 50.39 51.94 51.48 51.38 54.29 55.26 54.35 55.15 53.17 52.79 51.92 54.91 52.72 51.48 50.70 49.49 50.68 51.42 51.06 48.46 48.09 52.07 60.61 61.54 63.25 63.12 63.56 64.13 64.70 64.16
48.17 42.26 54.43 56.25 45.63 46.34 42.99 45.85 46.91 48.26 50.60 49.04 49.44 48.34 47.04 48.03 49.24 51.26 51.56 53.34 56.51 56.14 52.64 54.12 52.00 50.22 51.28 55.39 55.55 53.42 51.11 50.85 47.89 49.77 51.68 52.02 52.96 60.45 61.61 63.10 64.60 63.91 64.61 64.90 65.71
44.04 45.35 52.66 51.78 40.72 41.94 45.44 45.06 46.14 46.35 47.80 48.12 47.69 49.17 49.60 47.43 46.68 49.35 51.62 55.84 56.22 55.41 54.15 55.64 51.10 48.39 49.15 52.50 54.83 52.57 52.66 51.86 51.04 51.16 51.63 49.56 51.64 60.75 63.26 61.05 62.29 63.80 64.28 65.54 66.38
43.92 39.72 46.20 48.62 47.74 44.05 42.91 43.75 44.09 48.52 47.45 48.18 47.95 49.54 48.22 47.02 49.36 48.50 49.73 53.19 55.56 55.63 61.08 58.60 52.38 50.92 47.60 50.90 53.30 52.29 52.07 52.48 50.84 48.36 49.94 52.33 54.77 57.80 60.77 61.65 63.17 63.94 64.72 66.27 70.08
44.25 41.15 44.52 38.94 42.44 43.28 43.34 42.14 40.55 41.58 47.27 48.22 46.39 46.86 45.72 43.67 46.20 46.03 48.86 50.39 53.19 58.72 56.66 54.90 52.15 53.34 52.09 52.40 53.71 52.92 52.10 51.71 50.90 52.06 50.01 52.16 54.82 57.95 59.75 62.00 63.27 64.98 66.81 66.78 68.81
40.54 39.96 44.21 41.98 43.11 41.91 40.64 40.23 39.56 41.10 42.45 41.46 42.21 44.61 46.18 43.98 45.67 41.81 45.04 49.35 50.95 54.59 53.80 56.00 51.63 53.21 51.20 52.32 52.41 51.84 52.67 52.39 52.17 51.88 52.14 52.67 53.01 59.12 61.85 62.79 63.57 61.48 62.83 65.18 66.63
47.12 48.56 42.26 40.14 40.30 39.44 39.70 40.11 39.76 41.53 42.31 45.93 44.23 42.42 41.56 43.49 47.05 47.62 48.51 50.27 51.33 51.66 54.14 53.87 52.32 52.31 48.51 51.90 51.76 48.90 52.79 53.45 52.53 53.19 52.33 50.47 54.82 59.43 59.07 59.86 62.55 66.67 65.97 65.49 65.74

GFSSW_sfc_wetblb_027.txt.gz
Wetbulb
57.29 57.35 57.16 56.91 56.84 57.06 57.29 57.52 57.94 57.98 58.43 58.51 58.71 59.37 59.53 59.74 59.16 58.39 57.03 61.32 64.60 74.46 74.62 70.15 69.90 68.52 68.91 67.71 68.18 66.36 56.89 54.39 56.55 55.75 56.00 60.80 61.96 66.31 68.94 66.45 67.54 68.32 68.12 69.18 71.29
56.72 56.87 56.90 56.84 56.58 56.72 56.92 56.88 57.07 57.26 57.58 57.88 58.30 58.50 59.34 59.59 56.29 53.39 62.32 70.30 71.54 74.82 66.16 64.42 63.59 65.70 62.33 63.20 63.26 61.57 55.57 56.69 61.48 60.64 56.87 61.47 63.31 63.85 64.53 64.83 65.31 66.76 69.35 70.75 70.96
55.93 55.74 55.59 55.78 55.99 55.99 56.24 56.72 56.60 56.56 56.74 57.11 57.55 58.14 59.19 58.83 53.55 53.73 74.27 70.61 72.39 73.76 63.35 60.37 60.02 61.39 60.10 60.42 60.97 61.64 57.74 60.69 61.39 62.59 62.21 59.35 60.49 63.14 61.64 61.94 65.10 64.94 66.92 69.45 70.07
55.57 55.14 55.45 55.44 55.63 55.86 56.04 56.29 56.82 56.28 56.37 56.71 57.34 58.11 59.07 56.30 45.40 57.31 74.42 75.49 75.22 69.28 62.28 58.04 55.77 54.56 55.26 55.72 62.68 58.51 61.80 61.85 61.33 63.14 61.07 59.98 60.98 61.35 62.41 62.88 68.09 68.00 67.76 68.02 69.03
55.35 55.81 55.77 55.59 55.57 55.76 56.09 56.45 56.43 56.28 55.90 56.45 57.40 58.24 56.53 52.92 53.30 60.41 73.39 74.25 70.45 64.63 59.79 57.31 54.28 54.90 54.23 57.17 61.10 60.21 61.33 62.32 62.98 62.87 61.90 61.64 60.11 61.60 62.31 67.63 68.98 68.80 68.17 67.42 67.09
55.65 55.96 55.81 55.87 56.02 56.12 56.20 56.00 55.81 55.82 55.58 56.48 57.68 58.54 54.52 46.41 55.77 58.29 65.74 65.68 64.18 60.75 58.40 57.61 56.51 58.38 57.03 57.31 56.84 61.87 62.58 62.02 60.93 60.96 62.14 60.73 60.29 61.60 63.71 68.13 68.02 68.08 67.15 67.40 66.85
55.80 55.72 55.66 55.60 55.87 55.85 55.82 55.33 55.48 55.15 55.34 56.57 58.24 58.50 53.97 50.34 57.64 59.72 61.67 61.35 62.59 59.64 57.60 59.16 59.27 56.82 56.86 55.39 58.63 58.17 56.14 61.34 60.84 57.54 60.57 62.33 58.66 59.58 63.81 66.76 66.45 66.87 67.33 67.80 67.79
55.60 55.60 55.31 55.25 55.46 55.31 54.77 54.48 54.72 55.21 56.21 57.47 59.95 57.19 50.11 57.96 57.97 56.88 56.41 59.41 62.17 59.63 59.36 58.90 59.15 55.98 54.18 55.38 55.09 53.64 52.09 48.81 55.57 57.33 58.89 59.60 53.78 60.04 62.96 64.54 64.59 66.04 66.74 67.36 67.40
55.08 55.06 55.06 54.75 54.71 54.34 53.74 53.93 55.22 57.27 57.84 60.17 57.02 54.95 52.82 63.99 57.42 57.96 57.74 56.53 57.62 58.63 58.42 61.72 57.47 53.55 53.74 49.56 46.78 48.17 45.99 48.58 52.58 58.06 58.62 57.84 54.54 60.87 61.72 63.54 63.12 64.53 65.48 66.12 66.47
54.69 54.53 54.36 54.20 53.87 53.26 52.85 53.43 55.55 57.92 59.01 61.01 60.61 53.96 58.77 56.00 58.25 59.49 59.67 58.85 56.18 56.74 55.29 54.22 52.63 49.98 49.23 46.59 41.81 44.46 46.19 48.95 50.94 56.55 58.00 56.17 55.59 60.42 61.18 61.66 62.83 63.78 64.74 65.27 65.59
54.42 54.03 53.80 53.51 53.03 52.35 50.35 48.48 50.69 50.23 56.10 55.76 54.86 55.23 54.80 59.12 60.60 59.49 59.80 56.55 54.47 51.40 48.08 51.62 47.28 46.36 47.91 49.12 49.75 50.45 49.75 49.65 53.09 58.52 57.35 56.90 56.45 58.48 60.12 60.18 60.78 62.99 63.72 64.44 65.32
54.24 53.86 53.57 53.28 52.83 51.85 50.20 49.04 51.00 50.84 45.36 51.06 51.90 54.32 58.61 60.10 57.05 58.67 59.01 52.63 50.68 47.37 50.44 48.70 46.13 50.78 52.47 51.89 50.42 50.06 49.18 49.54 53.68 58.17 57.17 58.21 56.66 58.74 59.15 59.23 61.09 62.20 63.40 64.02 65.09
54.15 53.68 53.01 52.62 51.72 52.04 48.21 49.18 53.64 51.89 43.61 46.88 49.73 49.79 50.44 53.02 53.59 56.02 56.62 54.20 51.18 49.68 50.41 47.22 49.10 53.84 51.87 50.09 49.75 49.39 48.26 49.73 51.69 57.18 58.48 58.05 55.95 55.80 59.16 61.24 62.28 63.03 64.06 64.90 64.80
54.04 53.43 52.74 51.67 49.93 47.89 48.60 55.21 55.33 52.57 38.78 44.86 47.93 50.15 51.08 51.49 51.09 59.09 59.17 55.46 53.03 49.87 50.74 49.15 52.74 51.69 50.00 48.69 49.79 46.29 52.49 52.84 52.43 53.74 49.84 58.23 49.13 54.77 57.82 59.61 61.31 61.51 62.53 63.35 64.77
53.94 53.18 51.98 51.27 46.71 46.58 52.19 54.24 54.20 50.06 32.43 51.53 50.95 55.22 51.50 48.50 52.63 55.44 60.09 55.81 51.67 51.38 49.47 48.09 50.50 49.70 48.42 48.93 50.41 48.74 53.50 52.71 52.41 50.56 52.48 52.94 49.93 52.21 58.65 57.88 59.98 61.07 62.05 63.01 64.13
53.49 52.54 51.61 49.08 48.43 50.14 52.67 52.92 50.84 38.18 34.05 47.86 52.72 49.15 47.99 48.59 50.12 53.24 55.38 55.36 55.46 52.70 50.99 49.84 53.72 52.31 50.50 51.88 51.25 52.08 50.90 51.24 51.30 49.64 44.56 51.32 50.59 50.79 53.17 58.19 59.69 61.21 62.70 63.19 63.76
52.36 50.90 49.73 50.25 44.70 51.85 51.31 49.21 36.65 34.37 49.37 49.06 49.23 50.67 48.61 46.52 47.85 48.97 49.40 48.13 46.50 45.34 46.13 49.83 49.66 51.98 53.37 48.16 50.09 49.27 45.33 42.65 41.58 42.87 41.91 52.38 51.03 51.78 57.40 59.88 62.02 62.58 62.99 63.65 64.49
51.01 49.47 50.30 52.19 52.71 51.07 49.26 41.69 33.07 44.20 43.98 50.01 50.13 51.25 48.44 49.77 48.12 48.58 47.26 46.22 48.83 48.27 45.75 44.75 43.28 49.41 52.20 49.38 45.64 46.73 45.52 42.73 36.28 39.79 42.89 48.43 47.32 52.73 60.13 61.55 63.83 63.33 63.38 62.89 65.03
50.13 48.60 48.31 51.12 53.71 51.96 44.97 35.49 37.69 42.98 47.40 45.72 46.09 45.76 47.71 51.07 50.58 48.17 46.93 47.36 48.60 48.99 44.74 45.05 45.31 52.72 52.47 52.64 50.35 45.89 43.99 46.77 40.91 43.99 41.93 46.42 49.53 54.23 59.73 60.23 61.01 61.50 62.24 62.79 63.30
46.51 45.82 47.20 53.50 55.25 49.99 41.84 36.80 41.41 46.56 46.14 44.66 39.73 44.60 42.00 43.46 44.19 48.70 47.44 49.89 50.27 50.97 50.93 47.66 43.33 51.03 52.59 52.93 51.58 48.61 47.62 42.80 44.08 37.47 38.41 44.19 46.10 48.21 54.12 57.94 59.39 60.16 60.83 61.90 63.63
46.01 42.71 49.62 52.85 52.40 46.61 37.24 39.09 42.93 47.12 47.52 44.43 43.11 42.48 43.12 43.03 44.35 43.71 45.56 51.38 52.75 51.77 51.62 49.28 47.03 47.69 51.14 49.02 47.05 45.49 45.73 43.74 43.65 44.11 39.74 39.53 44.53 51.64 56.80 59.22 59.05 60.47 62.10 62.92 63.42
44.41 36.98 49.72 51.33 41.20 43.41 39.62 42.70 44.39 44.69 47.30 45.82 46.24 44.67 43.43 44.46 42.85 43.23 43.83 46.61 53.72 54.27 49.39 50.69 47.12 43.93 46.62 51.75 52.69 50.61 46.72 43.82 41.58 37.84 42.07 42.27 44.35 54.80 55.36 60.60 61.18 61.45 61.66 62.20 63.31
40.01 40.66 48.70 48.13 34.98 37.80 42.60 43.12 44.51 43.37 44.04 44.04 43.34 45.07 45.98 43.67 41.06 44.39 45.95 50.16 50.85 49.61 51.14 51.33 47.20 41.69 43.56 47.30 50.56 48.68 49.46 47.21 46.15 42.78 41.87 40.12 44.24 53.62 54.53 59.79 60.51 59.26 61.31 62.88 62.06
41.31 34.96 41.84 44.54 44.31 40.29 38.60 38.71 38.97 44.62 43.48 44.50 43.52 44.23 42.54 42.82 45.30 43.14 44.65 49.53 50.92 49.74 59.22 57.17 48.81 45.57 42.16 44.63 47.03 47.34 49.13 49.09 46.53 42.29 41.65 43.59 44.18 50.48 53.91 57.03 58.65 60.78 61.92 61.16 62.32
42.73 37.66 40.69 34.39 37.79 38.27 39.56 39.15 37.23 37.13 42.70 43.09 40.94 41.09 40.21 36.92 40.07 41.46 44.81 44.69 47.43 50.72 50.17 46.79 45.51 48.28 48.16 49.31 50.14 49.58 49.93 49.37 46.78 46.29 42.38 44.40 45.42 49.06 52.37 57.04 57.91 59.60 59.87 60.79 62.57
39.02 38.26 40.26 37.62 38.82 37.74 38.03 37.27 37.26 38.02 39.41 38.29 37.52 40.38 39.98 38.73 40.22 38.45 41.12 40.84 40.57 45.06 42.90 45.10 43.67 48.75 46.88 49.34 49.17 47.75 50.02 50.87 49.42 49.20 48.39 47.94 47.30 50.88 53.43 59.32 60.16 59.65 60.47 60.00 60.52
45.61 46.59 41.52 37.17 35.83 34.66 35.42 37.27 37.50 39.58 40.80 41.66 40.80 39.26 37.85 40.07 44.27 44.38 44.45 43.84 43.45 41.96 41.94 42.11 41.25 44.25 43.04 48.04 47.90 44.15 47.75 49.18 50.67 51.16 49.86 46.43 49.12 51.95 52.17 55.33 58.39 60.48 59.10 59.54 59.52

GFSSW_sfc_wetblb_030.txt.gz
Wetbulb
56.53 56.51 56.26 56.40 56.57 56.91 57.04 57.19 57.42 57.53 57.57 57.63 57.94 58.33 59.14 59.37 58.93 57.51 52.94 57.48 60.88 73.07 75.39 72.73 70.62 69.19 70.59 68.77 66.41 66.02 57.20 53.60 55.81 56.57 57.80 64.65 63.40 66.91 67.97 65.54 66.12 67.74 66.26 67.47 69.63
56.52 56.31 56.20 56.01 56.25 56.36 56.55 56.91 56.91 56.98 57.19 57.22 57.45 57.90 58.72 59.36 55.63 52.90 60.40 68.76 70.33 73.56 66.07 67.36 65.52 66.22 60.82 62.71 64.33 59.19 56.16 57.01 59.99 59.31 56.86 63.57 64.28 64.67 64.31 64.42 64.98 65.94 68.03 69.23 69.60
56.16 55.99 55.90 55.94 56.13 56.24 56.31 56.46 56.57 56.54 56.65 56.81 57.10 57.74 58.57 58.54 51.33 50.60 71.02 70.40 70.94 73.92 64.13 63.13 62.88 63.84 59.39 59.92 61.85 60.87 57.31 59.83 61.31 61.94 60.85 63.73 64.12 65.81 63.66 61.87 64.42 64.17 66.39 68.47 68.58
55.66 55.63 55.58 55.58 55.86 56.02 56.19 56.34 56.31 56.18 56.23 56.41 56.85 57.83 58.89 55.38 41.98 54.14 72.97 75.58 70.89 68.24 62.85 59.51 55.24 51.12 51.80 53.04 61.28 57.38 60.79 61.24 60.57 62.05 60.03 63.36 65.11 64.04 64.53 64.26 67.25 67.68 68.62 68.33 67.74
55.49 55.35 55.63 55.51 55.31 55.40 55.84 56.01 56.00 55.67 55.76 56.18 56.84 57.87 54.62 50.28 50.78 55.30 72.06 73.52 69.38 64.97 60.28 57.51 53.36 50.76 50.36 52.89 60.28 58.32 60.03 62.20 62.88 60.94 60.46 61.09 61.08 63.77 63.51 66.63 68.44 68.91 68.76 67.89 67.81
56.02 55.97 55.91 55.93 56.04 56.18 56.16 55.95 55.88 55.61 55.41 56.15 56.62 57.57 51.82 41.83 52.45 56.05 60.21 64.79 63.08 59.92 58.28 56.89 54.41 53.79 52.35 53.55 56.75 61.21 61.44 61.56 61.81 60.57 61.59 58.46 60.22 61.52 64.88 67.47 67.06 67.63 67.34 67.77 68.39
55.66 55.70 55.62 55.56 55.73 55.81 55.64 55.35 55.47 55.57 55.47 56.35 56.73 56.75 52.70 46.86 54.68 54.82 59.53 59.67 61.00 58.98 55.83 57.78 57.23 53.87 53.75 52.67 56.02 56.62 56.79 60.85 61.38 60.33 59.64 60.35 58.35 61.39 65.78 66.72 65.27 65.35 66.62 68.04 68.44
55.25 55.50 55.29 55.23 55.08 54.94 54.71 54.35 54.81 55.55 56.71 57.19 57.81 56.29 47.90 57.26 56.30 54.53 54.13 54.48 59.94 59.09 58.46 58.13 57.79 55.03 51.97 53.29 52.79 48.84 48.62 45.52 53.67 59.93 60.95 57.84 53.31 62.98 65.78 65.14 63.92 64.90 65.78 66.07 67.23
55.04 55.00 54.89 54.67 54.42 54.01 53.57 54.00 55.12 56.61 58.11 58.62 55.38 51.93 48.16 62.14 56.24 56.14 54.37 53.83 56.33 58.03 56.11 60.70 55.60 52.07 51.90 47.99 44.29 44.75 42.36 45.10 48.82 54.86 59.54 56.99 52.58 62.59 65.67 64.79 63.77 64.37 65.09 65.85 65.71
54.97 54.76 54.56 54.25 53.69 53.07 52.70 53.49 54.08 56.02 58.50 60.09 59.45 50.42 52.75 53.29 58.69 56.88 54.94 55.43 53.69 53.59 54.52 53.29 51.00 47.91 44.71 43.49 39.63 41.54 42.31 44.83 46.89 52.15 58.76 54.66 53.66 60.59 64.58 64.33 63.92 64.52 64.92 65.39 65.67
54.84 54.53 54.29 53.85 53.03 52.30 50.34 46.03 45.91 45.44 52.77 51.19 52.04 52.84 53.67 55.85 59.15 57.54 56.73 54.79 52.78 50.80 47.82 48.95 44.59 44.23 46.09 46.38 47.17 46.25 45.44 45.30 49.16 52.89 56.52 55.08 55.64 57.50 62.38 63.21 63.14 63.56 64.25 64.87 65.44
54.63 54.41 54.02 53.15 52.43 51.74 48.62 45.97 47.72 47.72 41.18 48.55 51.76 52.57 56.15 56.04 54.40 57.29 57.18 51.91 49.41 45.63 46.52 44.97 43.84 47.36 50.05 49.25 47.94 46.78 45.71 45.83 48.78 52.30 55.41 55.04 55.94 57.44 60.52 61.55 62.86 63.03 63.39 64.32 65.05
54.29 54.00 53.56 52.80 51.68 48.04 44.06 45.18 51.09 49.61 39.82 44.36 48.02 48.26 48.91 53.25 51.10 53.40 54.37 51.08 48.73 44.97 46.05 43.62 46.06 50.72 49.92 48.80 47.41 46.73 45.29 45.93 46.64 50.96 56.68 55.75 53.53 55.03 58.21 60.53 62.38 63.55 64.26 64.72 64.56
54.12 53.91 53.22 51.64 45.14 45.84 46.00 50.04 50.64 50.04 35.39 41.27 43.53 46.95 48.36 49.34 46.40 54.50 56.43 52.78 48.67 46.37 46.03 45.20 49.94 49.43 48.40 48.03 48.60 42.48 49.62 49.25 48.77 47.17 47.09 55.01 45.18 53.11 56.13 55.79 57.98 61.56 62.68 63.69 64.65
54.06 53.44 52.44 51.28 44.01 44.00 48.10 49.28 50.08 43.80 31.98 49.30 47.33 51.26 47.95 46.46 48.67 50.35 55.23 52.35 48.58 48.60 47.28 45.99 48.56 48.31 47.42 48.56 50.38 46.32 50.04 48.93 48.84 45.95 45.88 50.25 46.27 49.02 55.27 54.64 55.59 59.14 62.13 63.50 64.72
53.71 53.06 52.09 46.59 44.09 46.63 48.68 47.99 44.35 36.12 31.37 44.21 49.61 45.64 44.84 45.14 47.43 52.94 53.35 54.40 53.35 50.66 49.17 49.01 51.70 50.44 49.65 51.21 51.11 51.16 47.10 46.43 45.70 44.68 41.59 47.22 49.86 46.45 52.91 55.61 58.00 59.98 61.15 63.53 64.23
52.70 51.53 50.21 49.37 41.77 46.53 47.59 44.24 33.31 30.26 44.87 46.06 43.22 45.34 43.70 42.54 45.35 47.28 51.26 49.70 47.30 42.88 44.60 47.67 48.59 49.13 51.57 46.98 48.57 47.58 40.84 36.84 37.33 38.12 38.68 45.98 46.04 50.27 55.31 59.05 60.16 60.39 60.97 62.68 64.25
50.91 50.07 48.67 48.37 47.04 47.45 44.54 37.13 28.30 39.50 40.61 45.54 43.78 46.16 44.09 43.76 43.43 44.74 44.49 48.11 50.25 43.81 42.69 42.57 41.30 47.97 49.66 48.47 46.07 43.06 43.65 38.59 32.72 34.02 37.66 43.80 43.58 50.24 56.97 59.96 62.42 63.05 63.17 62.75 63.06
50.09 44.34 44.62 44.11 48.34 46.40 38.39 30.24 31.67 38.08 42.09 41.49 42.22 41.06 40.85 45.48 44.10 43.69 43.32 44.30 49.96 46.94 41.32 40.41 42.77 50.20 51.53 50.67 49.45 43.97 40.69 44.35 37.68 38.08 37.57 41.28 46.21 51.37 56.57 57.34 61.51 62.32 62.92 62.39 62.93
45.94 40.90 42.18 48.17 48.35 43.63 34.70 33.03 36.09 42.96 43.91 43.32 37.01 41.39 36.66 39.95 40.71 40.69 40.70 45.84 45.81 48.30 47.45 44.02 39.30 47.79 51.05 51.04 50.26 47.59 44.93 40.11 35.24 35.25 34.95 38.33 42.07 45.59 49.65 55.34 57.55 61.06 61.97 62.83 62.97
43.54 36.83 43.93 46.38 44.74 38.77 32.46 33.28 39.80 44.45 45.02 40.72 38.73 37.62 38.95 39.11 40.57 39.66 40.83 45.40 47.71 47.89 48.91 47.22 42.22 43.64 47.03 47.09 46.03 45.41 42.67 40.97 40.77 39.29 37.52 34.20 41.06 47.48 49.38 53.09 56.41 60.64 62.16 62.59 62.93
38.39 32.11 43.69 47.18 32.69 33.76 35.17 37.51 42.13 42.43 44.95 42.58 42.75 41.41 39.70 39.66 38.76 39.33 40.50 43.83 49.07 48.20 43.47 46.23 43.81 41.17 44.01 48.13 50.51 49.51 45.99 41.94 40.78 35.59 37.77 41.58 42.30 50.00 50.77 54.36 58.37 59.79 61.75 62.88 63.63
36.49 35.35 43.42 40.87 28.47 31.41 36.90 39.38 41.77 41.48 40.82 41.23 40.20 42.17 41.61 38.24 35.41 40.55 42.68 48.67 47.55 46.56 43.70 46.04 41.36 38.60 39.40 44.21 47.35 44.99 46.67 46.72 38.69 38.41 40.52 37.91 40.14 49.27 48.73 54.68 58.11 58.48 59.78 61.60 61.24
36.11 31.05 34.05 36.88 40.73 34.63 34.70 36.37 36.62 42.57 41.61 42.16 40.35 41.38 39.61 37.17 38.85 37.79 40.50 45.39 46.37 46.40 51.50 45.33 41.49 40.53 40.53 41.72 44.26 42.42 46.60 45.89 44.49 41.73 40.28 41.94 40.85 44.93 47.49 53.59 57.23 59.19 60.48 60.73 61.08
36.48 32.31 34.38 30.65 33.90 35.62 35.80 35.89 34.67 34.65 40.04 39.99 37.62 38.37 37.40 33.89 36.68 37.24 40.45 41.13 44.20 47.66 44.01 39.98 34.12 39.11 42.89 46.45 47.33 46.66 46.88 47.23 43.98 45.31 42.37 43.76 42.70 44.45 46.05 51.96 55.98 58.96 60.31 60.68 60.84
37.96 34.99 38.04 35.78 35.10 33.18 35.18 33.18 33.72 36.21 37.27 36.88 36.28 38.07 37.24 34.26 36.57 34.38 36.50 36.95 37.32 41.67 39.44 39.34 34.86 38.05 40.31 46.92 47.24 45.76 47.52 48.24 47.66 46.92 45.50 42.91 42.69 47.00 49.26 50.88 54.03 57.25 58.72 58.82 57.64
44.55 44.88 40.44 35.00 31.28 30.39 29.99 33.71 34.34 37.23 38.86 40.40 38.44 37.26 36.12 37.50 40.48 40.76 40.34 41.16 39.93 38.41 37.89 36.67 35.23 35.20 34.09 43.66 45.69 42.90 46.95 47.53 47.69 49.21 47.52 43.39 45.71 48.56 49.30 52.91 54.27 56.40 57.37 58.94 58.23

GFSSW_sfc_wetblb_033.txt.gz
Wetbulb
56.68 56.61 56.48 56.43 56.60 56.80 56.99 57.05 57.23 57.25 57.25 57.40 57.50 57.55 58.15 58.88 58.16 56.94 48.36 55.55 57.84 76.86 76.90 73.90 71.72 71.47 70.60 67.82 67.87 66.63 54.92 52.32 55.41 57.51 58.61 64.66 63.19 66.49 67.39 64.27 65.05 66.21 64.85 66.71 69.00
56.32 56.23 56.06 56.08 56.23 56.46 56.56 56.75 56.86 57.01 56.95 56.96 56.98 57.38 57.88 58.57 54.89 51.98 59.47 67.77 71.50 76.44 72.56 70.09 66.25 69.53 65.57 65.93 64.07 58.38 52.67 55.16 59.04 59.73 61.10 64.01 63.94 64.25 63.58 62.77 64.13 64.43 66.65 68.21 69.24
56.10 55.95 55.80 55.74 56.02 56.16 56.33 56.37 56.47 56.66 56.62 56.60 56.79 57.11 57.86 57.96 48.69 48.14 71.20 68.61 71.42 75.27 69.77 68.07 67.34 65.94 58.44 61.26 63.07 59.97 56.17 59.31 60.31 60.59 64.28 63.58 63.47 65.10 62.75 60.18 63.40 62.62 64.44 66.84 67.78
55.41 55.40 55.41 55.41 55.63 55.67 55.88 56.00 55.89 55.97 56.11 56.42 56.52 57.09 58.13 54.17 40.81 51.04 74.35 74.63 71.68 66.86 62.35 62.47 60.33 58.63 55.77 55.80 62.58 57.10 60.76 61.23 60.60 63.02 63.33 62.75 64.66 63.01 63.54 62.88 66.13 66.07 66.39 66.76 66.64
55.14 55.21 55.22 55.18 55.19 55.24 55.22 55.25 55.38 55.40 55.63 56.21 56.27 56.84 53.58 48.25 47.61 52.07 71.83 72.25 68.55 63.34 58.90 56.18 52.81 51.32 48.32 50.36 57.45 58.40 59.65 60.31 62.20 61.12 63.90 65.06 63.12 63.08 63.57 66.16 67.15 67.33 66.77 66.16 66.57
55.72 55.93 55.82 55.84 55.99 55.74 55.83 55.56 55.53 54.82 55.28 56.13 56.42 56.55 49.70 39.35 50.64 54.71 56.56 64.74 63.85 60.53 57.14 56.17 53.96 52.75 50.01 50.80 54.29 58.80 59.63 58.83 60.27 60.18 64.53 62.90 63.03 63.41 64.33 66.67 66.58 66.40 66.05 66.52 66.74
56.06 55.78 55.75 55.65 55.90 55.86 55.51 55.12 55.23 55.10 55.45 56.59 56.74 55.03 51.63 44.55 52.33 52.95 55.34 57.69 62.26 58.44 55.78 57.02 56.04 52.95 51.21 49.44 54.33 55.30 54.54 56.87 59.45 59.00 59.99 62.34 58.89 60.86 64.71 65.80 65.38 65.75 66.12 66.77 67.12
55.67 55.51 55.46 55.60 55.54 55.28 54.60 54.07 54.50 55.33 56.79 57.89 57.63 54.27 44.99 55.40 55.24 53.27 52.51 50.47 57.98 57.22 54.89 56.58 56.56 52.61 50.34 52.01 51.30 47.71 47.30 44.03 50.76 56.91 59.49 58.81 52.75 61.14 64.89 64.66 64.14 65.49 65.92 66.37 66.88
55.50 55.21 55.21 55.03 54.84 54.16 53.60 53.73 54.76 56.52 58.20 58.45 53.97 50.55 44.88 59.17 56.23 56.56 52.66 51.60 54.51 55.06 55.27 60.31 54.58 50.48 49.81 47.16 43.12 42.96 41.26 44.13 47.31 54.73 56.95 56.05 51.71 61.93 64.80 64.22 63.82 64.80 65.44 65.99 66.45
55.10 54.82 54.65 54.55 54.14 53.29 52.69 53.79 53.95 55.82 58.70 58.51 58.06 47.85 51.19 49.89 57.40 56.19 52.98 53.84 52.45 53.63 53.74 53.00 50.29 45.42 43.19 42.87 38.80 40.80 40.98 43.00 45.12 50.09 55.04 53.32 53.21 61.62 63.50 63.40 62.91 64.10 65.28 65.75 66.15
54.92 54.44 54.28 54.14 53.44 52.18 50.59 46.52 44.70 43.35 47.61 49.11 50.06 50.45 51.63 54.57 57.79 56.55 53.82 51.69 50.94 49.03 45.30 47.64 44.22 42.11 45.58 45.01 46.37 45.16 43.55 43.72 46.79 52.74 53.89 52.41 53.60 60.38 62.54 62.50 61.90 62.36 63.54 64.58 65.67
54.65 54.38 54.10 53.46 52.41 52.20 46.56 43.25 45.24 44.15 38.86 47.24 47.15 48.27 52.27 52.95 50.22 52.54 53.93 49.16 47.74 44.72 46.21 43.91 43.25 46.83 48.54 47.98 46.67 44.95 43.93 44.22 46.44 50.08 49.49 51.28 53.37 60.44 61.83 62.01 62.56 62.51 62.94 63.71 64.34
54.24 53.85 53.50 52.83 51.96 46.49 43.98 43.97 47.90 44.05 36.73 42.97 46.36 46.31 47.17 50.52 48.39 49.78 51.90 49.88 47.03 44.29 44.36 44.18 44.82 48.77 47.86 46.49 45.60 43.54 43.01 44.80 44.53 48.40 51.72 52.52 50.29 55.70 61.39 62.71 63.41 64.05 64.42 64.64 64.42
54.18 53.71 52.95 51.71 44.30 44.62 43.95 47.07 47.36 46.51 33.89 40.67 42.31 45.31 47.04 50.11 46.35 53.63 55.80 51.29 46.89 45.76 44.51 43.31 47.77 47.46 45.58 45.42 46.49 40.67 47.21 47.55 46.44 44.20 40.45 52.55 43.38 50.03 57.18 59.20 61.11 62.33 63.37 64.16 64.66
53.75 53.17 52.02 51.21 43.22 42.30 45.44 47.32 48.50 40.99 31.05 48.08 44.39 49.14 45.92 46.01 46.25 49.16 55.20 50.37 46.13 46.07 45.01 42.92 44.74 45.50 44.85 46.37 47.79 45.47 48.92 46.87 46.45 42.99 40.40 45.03 44.44 47.56 54.42 55.03 57.45 60.27 62.40 63.76 64.89
52.95 52.06 51.51 46.40 43.10 45.17 46.84 46.56 41.45 35.10 30.22 43.65 46.77 43.42 42.73 43.50 45.30 49.18 49.99 51.42 50.95 46.64 46.02 46.98 49.27 47.66 46.70 49.07 49.12 49.58 46.48 43.83 42.87 40.56 36.74 43.74 44.73 45.52 51.39 54.30 56.51 58.58 61.80 63.24 64.20
51.79 50.45 49.45 48.89 40.94 44.55 45.99 41.87 32.33 29.00 42.93 42.66 40.80 43.49 42.17 40.45 43.41 47.07 46.44 45.94 44.93 40.76 41.45 44.20 45.74 47.48 49.54 45.47 46.91 45.55 39.95 34.93 33.21 34.04 36.14 41.80 41.89 46.04 51.63 57.56 58.44 58.21 59.26 62.77 64.17
50.18 49.40 47.93 47.42 45.01 45.65 41.48 34.97 26.18 37.96 37.58 43.22 42.68 43.35 41.69 43.10 41.47 43.23 46.45 44.99 48.15 43.70 42.67 40.08 38.76 46.24 48.08 46.44 44.20 42.30 42.57 33.44 29.53 31.03 35.89 40.46 39.22 45.29 54.40 56.55 60.04 61.27 61.13 61.63 63.45
49.50 44.35 41.86 43.26 46.63 44.05 36.34 28.07 30.00 34.84 41.23 40.43 41.02 39.38 37.72 41.64 41.94 41.75 39.21 46.12 48.58 45.87 41.48 40.67 41.15 48.42 50.15 48.68 48.42 42.03 40.67 43.97 34.91 34.90 34.16 38.34 43.13 49.05 53.09 54.37 56.14 58.87 60.31 60.91 62.16
44.57 40.98 39.59 46.05 45.80 40.72 33.39 30.64 33.49 41.25 42.26 41.13 35.35 38.69 34.02 37.48 38.45 38.47 38.93 42.87 43.25 49.20 44.47 42.34 38.11 45.27 48.60 49.25 47.70 46.10 43.43 37.83 32.21 32.59 32.22 34.99 39.37 42.53 48.79 52.20 54.17 57.28 59.00 60.99 62.20
39.34 34.96 41.64 43.98 41.61 36.62 29.52 30.59 37.25 42.52 42.91 39.29 36.87 35.68 35.76 36.52 37.63 36.74 38.40 43.78 46.30 45.58 45.48 39.73 39.08 41.18 46.01 43.75 45.41 41.90 40.99 38.31 39.08 35.48 34.26 31.19 38.34 45.62 49.05 52.57 53.80 57.06 60.11 61.60 62.33
35.93 29.93 41.87 43.07 31.19 30.63 31.51 35.65 41.13 40.77 43.00 40.14 40.55 38.82 37.23 38.52 36.15 36.74 37.67 41.89 47.13 46.23 40.94 42.90 35.44 39.39 42.98 46.08 49.58 47.23 43.54 38.95 36.05 35.15 35.61 39.99 39.21 46.88 50.87 51.09 53.32 55.88 59.46 62.19 63.45
34.04 32.92 41.95 40.70 30.75 30.49 35.29 38.00 40.44 38.84 38.95 39.07 38.34 40.06 39.96 36.45 33.50 38.35 40.47 46.44 45.21 43.30 42.05 43.16 35.65 32.36 36.00 39.76 42.22 43.53 44.87 45.05 43.71 36.48 39.55 36.46 37.52 46.58 48.69 49.40 52.64 54.61 57.06 60.16 62.45
35.65 30.88 33.52 35.93 36.88 34.02 31.46 33.86 35.06 40.56 39.52 39.75 38.81 40.57 37.95 36.01 36.76 35.81 38.00 43.86 44.33 44.37 49.63 42.33 34.28 34.48 34.47 36.57 41.19 40.17 43.99 45.43 43.17 39.06 41.30 41.34 39.62 42.85 45.67 47.90 51.39 55.15 57.22 58.37 60.46
39.26 32.16 33.18 28.71 30.86 32.98 33.74 33.59 32.85 35.46 38.89 38.93 35.20 37.07 36.30 30.62 34.69 34.73 37.98 38.42 42.05 45.73 41.74 38.18 31.83 35.01 38.36 41.27 42.67 43.37 44.11 45.41 42.18 44.09 41.31 43.50 41.83 44.37 45.50 48.07 50.93 54.11 57.12 57.83 58.66
37.64 36.42 38.52 34.73 36.15 30.44 32.34 32.55 33.09 34.32 35.48 35.47 35.22 35.95 35.29 32.68 34.34 31.93 35.11 34.17 35.09 39.61 36.63 36.61 33.44 35.29 36.56 42.63 43.52 42.66 44.75 45.93 46.08 46.15 43.72 43.24 41.23 45.67 48.52 46.97 48.05 50.78 54.28 56.63 57.89
42.95 43.87 39.75 36.38 34.13 31.61 29.08 31.29 32.66 35.17 37.69 39.03 37.07 34.89 33.60 36.05 38.48 38.57 38.11 37.76 37.82 36.28 34.28 34.03 34.03 32.77 30.51 38.95 39.66 38.99 43.86 45.45 46.27 47.46 46.76 43.02 43.59 46.36 45.91 46.71 47.65 49.27 52.59 56.08 57.53

GFSSW_sfc_wetblb_036.txt.gz
Wetbulb
56.39 56.43 56.35 56.30 56.53 56.74 57.10 57.20 57.25 57.46 57.44 57.46 57.43 57.40 57.69 58.39 57.78 55.71 47.47 53.42 56.29 74.17 75.76 72.59 71.01 68.92 70.00 67.19 67.78 66.09 54.53 51.74 55.48 56.31 58.53 63.59 61.98 65.06 66.15 63.54 64.73 65.34 64.49 66.07 69.24
56.18 56.01 55.88 55.75 55.94 56.20 56.34 56.52 56.82 56.86 56.92 56.85 57.00 57.21 57.53 58.18 53.94 50.39 58.53 66.47 71.22 76.73 72.02 68.28 67.28 67.80 65.04 65.50 63.93 58.15 52.09 54.42 57.84 59.91 59.34 63.12 63.11 63.07 62.58 61.85 63.01 63.58 66.55 68.02 69.00
55.97 55.86 55.64 55.62 55.67 55.90 55.98 56.07 55.92 56.07 56.22 56.41 56.76 56.91 57.19 57.37 46.62 46.25 68.04 67.36 74.98 76.00 72.11 70.82 69.72 66.55 62.05 63.28 62.68 58.77 55.70 58.26 59.42 60.29 63.34 63.09 63.00 64.55 62.43 59.29 62.28 61.79 64.52 66.71 67.47
55.89 55.72 55.50 55.72 55.79 55.81 55.83 55.83 55.79 55.74 55.80 55.98 56.53 56.92 57.15 53.34 40.67 52.03 73.24 69.30 76.08 73.17 70.76 66.93 67.86 62.23 57.68 55.67 63.41 57.14 60.00 61.63 60.53 60.80 62.22 62.49 64.15 62.60 62.54 61.66 65.18 65.20 66.08 66.83 66.52
55.94 55.67 55.51 55.37 55.49 55.62 55.69 55.58 55.65 55.31 55.51 55.90 56.15 56.65 52.26 46.48 45.73 64.06 74.18 69.76 73.54 66.51 65.60 62.43 63.77 59.80 52.00 54.10 58.58 58.99 60.57 60.25 61.85 60.47 63.31 64.27 62.67 62.61 62.58 65.34 65.98 65.84 66.18 66.35 66.74
56.18 56.10 56.12 55.88 55.97 55.96 56.24 55.93 55.73 54.86 55.35 55.96 56.25 56.17 47.75 37.05 48.31 52.64 65.22 64.85 66.37 62.57 61.75 56.98 61.24 57.00 50.90 48.93 53.44 56.15 60.10 60.24 58.07 58.79 62.21 62.07 62.37 62.84 63.72 65.52 64.64 64.86 64.92 66.02 66.69
56.12 56.00 55.81 55.85 55.78 55.87 55.84 55.39 54.75 54.78 55.49 56.54 56.65 54.04 50.36 42.14 50.14 51.04 62.62 61.36 63.55 59.30 54.78 55.47 55.39 55.72 50.62 47.70 51.95 52.51 50.30 53.26 57.12 57.91 60.22 63.38 59.08 60.19 64.22 65.32 63.64 63.90 64.79 65.67 66.42
55.49 55.47 55.74 55.68 55.54 55.20 54.79 54.23 54.54 55.60 57.06 57.74 57.53 52.53 42.05 52.66 54.05 52.90 50.89 53.64 60.82 57.83 53.79 56.17 55.17 51.80 48.93 49.98 50.07 45.87 45.61 43.18 48.76 57.14 59.76 61.19 55.07 61.59 64.22 63.93 63.09 63.72 64.26 64.97 65.83
55.35 55.39 55.21 55.13 54.66 54.20 53.26 54.08 55.41 58.75 59.01 58.56 52.06 49.07 43.00 57.47 54.45 53.91 50.84 49.54 54.75 54.70 54.05 58.88 54.14 48.89 48.26 45.08 42.16 42.17 40.30 42.71 46.93 55.05 55.72 58.43 51.95 58.98 63.82 63.22 63.34 63.78 64.14 64.98 65.32
54.76 54.76 54.59 54.31 53.79 52.89 52.70 53.86 54.39 57.83 57.10 56.85 56.36 46.94 50.09 49.19 54.80 55.75 51.38 52.46 50.83 51.65 52.38 51.42 48.57 44.91 42.34 41.70 38.01 39.69 39.45 41.75 45.21 48.36 53.22 52.72 52.19 56.95 62.63 62.54 63.04 63.61 64.06 64.71 65.14
54.59 54.32 54.12 53.53 52.82 52.03 50.20 44.40 42.59 42.21 42.94 48.82 48.26 48.74 51.09 52.52 54.58 53.73 52.31 50.72 50.50 48.51 44.46 47.57 43.56 41.86 43.26 43.47 44.95 44.57 42.60 43.43 45.97 50.20 51.73 50.49 51.80 58.12 61.50 62.23 62.23 62.97 63.55 64.20 64.88
54.12 53.79 53.30 52.76 51.93 51.76 44.83 42.68 42.28 41.87 36.89 45.21 44.96 46.34 51.52 49.84 48.31 50.63 52.00 47.16 46.29 43.43 45.58 41.85 42.82 46.43 47.99 46.43 45.88 44.05 42.84 43.03 45.24 48.55 46.79 46.64 51.46 58.87 60.94 61.60 62.70 63.24 63.49 64.24 65.05
53.81 53.44 52.80 51.98 51.48 45.41 42.36 42.55 45.44 42.33 35.02 41.52 44.66 45.42 46.22 48.45 46.29 47.71 50.26 47.44 45.03 43.29 44.84 44.31 43.26 48.65 47.36 44.93 44.44 41.72 42.81 42.71 43.51 46.50 47.55 50.35 48.14 54.95 60.24 61.59 62.69 63.20 64.61 65.15 65.20
53.40 53.26 52.29 51.11 43.44 43.29 41.22 44.05 45.07 44.31 31.91 39.12 40.85 44.47 47.05 47.11 43.87 51.74 52.26 49.45 45.67 45.14 43.09 42.37 47.47 47.54 44.34 44.64 45.26 38.15 45.51 46.44 45.28 42.49 39.30 49.08 40.13 49.06 57.40 58.87 60.59 61.48 62.03 63.45 64.69
53.34 52.86 51.40 50.65 41.96 40.55 43.04 45.75 45.97 38.34 29.57 46.24 41.56 47.50 46.12 44.60 44.86 47.15 53.36 48.91 44.63 44.68 44.12 42.83 44.17 44.81 44.40 45.93 46.48 43.72 47.58 45.52 44.92 41.58 38.55 42.47 42.18 45.78 54.86 55.90 58.35 60.88 62.24 63.32 64.32
53.07 52.21 51.14 45.65 41.99 43.56 45.08 44.24 39.20 34.06 28.59 42.44 44.84 41.70 41.73 42.53 43.52 48.58 48.91 50.18 49.31 45.48 44.23 44.68 46.87 47.81 46.09 47.16 47.57 47.99 44.66 41.83 39.98 38.78 34.95 40.67 41.87 39.91 48.15 55.92 58.91 61.18 62.66 63.93 64.51
51.92 50.61 49.12 47.92 39.78 44.23 44.23 39.15 31.02 27.84 41.24 40.22 39.31 41.93 41.34 39.84 41.51 44.87 44.75 45.33 43.56 38.22 39.40 42.61 44.63 45.29 46.75 43.70 44.78 44.93 39.72 32.74 31.77 32.53 36.26 39.70 40.11 44.57 50.31 55.99 59.23 60.61 61.97 63.55 64.96
50.26 49.02 45.85 46.58 45.43 43.73 39.67 33.89 24.30 36.13 35.28 41.96 41.27 41.80 39.27 40.37 39.75 41.74 42.37 43.70 44.93 42.55 40.19 38.51 36.44 44.42 46.23 44.00 41.98 41.84 39.18 32.61 28.28 29.45 35.15 38.42 37.29 42.33 50.46 56.84 58.67 60.83 62.26 62.78 63.70
49.69 42.33 41.09 42.93 45.71 42.06 35.09 25.55 27.59 32.69 39.52 38.77 39.15 37.10 36.16 39.91 40.10 39.96 38.29 42.86 45.57 42.26 39.61 37.94 38.89 46.56 46.90 47.16 46.84 39.82 39.61 41.68 33.98 32.69 32.21 36.02 40.82 47.45 50.56 51.54 56.87 58.08 59.34 59.93 61.67
43.09 41.44 38.59 44.78 42.70 39.44 33.04 28.54 31.55 39.19 40.39 39.11 33.05 37.04 32.68 35.68 36.87 36.49 37.43 42.01 42.39 45.61 42.64 40.22 36.90 44.28 46.72 47.61 46.70 43.07 43.49 37.42 31.98 30.02 28.35 33.22 36.32 40.68 46.81 49.60 52.31 54.14 57.57 59.68 60.71
37.64 33.69 39.63 43.72 41.05 35.40 26.39 29.40 35.31 40.86 41.52 36.68 35.05 34.42 34.13 35.08 35.79 35.30 36.59 41.44 44.13 43.89 44.31 38.69 38.12 39.24 44.39 43.36 43.97 40.04 38.94 36.16 39.04 33.93 31.94 29.49 35.56 43.75 47.65 50.00 51.36 53.50 56.73 59.20 60.50
33.86 29.09 39.95 41.07 31.22 30.53 31.26 33.85 40.19 39.05 40.29 38.68 38.57 36.78 35.39 37.12 35.39 35.58 37.01 40.00 45.07 43.58 40.22 41.10 33.39 36.29 39.30 44.13 47.80 47.87 42.10 37.43 35.11 32.92 34.59 33.17 37.14 46.01 47.88 50.93 52.21 53.03 55.49 58.43 60.66
34.19 35.24 40.21 39.55 26.22 27.56 31.84 35.01 38.20 37.80 37.46 36.71 36.10 39.01 38.61 35.11 31.95 37.15 39.28 43.37 43.37 42.22 41.31 41.10 33.59 30.69 35.00 41.12 42.21 41.63 43.40 42.87 41.03 35.25 36.46 34.59 37.43 46.80 46.89 48.66 50.04 52.36 54.69 57.81 60.06
33.41 30.09 32.77 37.42 32.71 30.27 29.44 30.49 32.92 39.64 38.65 38.61 37.74 39.01 36.20 34.24 36.37 34.61 36.97 41.87 43.02 43.74 48.24 42.03 33.14 32.03 31.69 34.47 38.62 37.22 42.05 42.68 42.62 39.85 39.76 39.98 40.07 43.39 45.59 46.98 49.03 50.59 53.22 54.98 57.18
35.39 32.15 36.33 27.35 30.12 33.98 30.69 31.63 31.90 31.99 37.26 39.16 36.68 35.47 33.29 29.10 32.39 32.92 36.27 37.03 40.70 44.22 40.16 36.92 31.99 33.56 36.21 39.23 40.78 40.77 41.17 42.31 40.86 42.65 40.05 42.54 42.30 43.52 45.57 46.93 49.17 49.82 53.23 55.98 57.70
36.60 36.36 37.98 33.36 36.63 34.00 32.52 28.71 31.54 32.43 33.51 33.18 35.41 35.51 33.54 29.98 32.37 30.44 33.00 32.37 33.46 37.97 35.47 34.85 31.53 33.66 34.29 40.32 40.62 38.63 41.50 42.91 43.09 42.88 42.72 43.99 41.88 46.25 48.48 48.00 48.86 50.59 52.35 54.75 56.59
43.15 43.78 39.04 35.91 32.19 31.81 31.35 32.23 32.43 33.71 35.79 38.15 36.48 34.09 32.34 35.78 37.25 37.39 37.15 36.41 36.13 33.49 32.90 32.45 31.44 31.44 29.15 37.06 37.47 35.72 40.83 42.73 43.19 44.32 43.84 41.34 44.90 47.22 46.31 46.61 48.47 49.95 50.17 51.66 54.80

GFSSW_sfc_wetblb_042.txt.gz
Wetbulb
57.17 56.98 56.87 56.87 57.04 57.19 57.44 57.48 57.74 57.72 57.91 57.80 57.56 57.56 57.65 58.42 58.21 59.46 54.67 60.04 61.45 70.79 74.16 70.81 72.24 72.34 72.62 70.96 71.22 69.07 62.82 60.30 60.03 60.63 63.44 68.08 66.35 68.40 69.12 67.45 67.81 68.89 68.78 70.92 72.39
56.77 56.70 56.69 56.59 56.82 56.82 56.93 56.99 57.29 57.27 57.37 57.43 57.36 57.38 57.55 57.89 57.68 55.16 63.62 68.23 67.48 73.55 67.53 67.83 67.03 69.65 68.17 68.30 69.51 65.80 62.74 60.77 63.61 64.06 64.50 67.41 67.23 67.31 66.08 66.23 66.47 67.66 70.25 71.66 71.84
56.34 56.41 56.37 56.35 56.42 56.50 56.52 56.63 56.63 56.61 56.87 57.17 57.19 57.22 57.29 58.43 54.67 54.00 66.89 68.21 69.18 74.68 65.42 68.19 67.47 67.76 64.78 67.25 67.21 65.24 61.61 63.88 63.80 64.86 66.28 67.27 67.36 68.50 65.92 64.21 66.85 66.84 68.44 70.27 70.80
55.95 55.88 55.77 55.88 55.97 55.85 55.98 56.18 56.36 56.19 56.48 56.74 56.94 56.88 57.31 58.29 47.76 59.37 71.54 68.53 70.08 68.14 65.11 66.45 66.31 64.61 62.83 63.00 66.51 62.40 64.27 65.64 64.80 64.60 64.86 66.17 68.57 67.19 66.86 65.91 68.83 70.04 70.27 70.20 70.04
55.42 55.34 55.76 55.66 55.30 55.74 56.26 56.35 56.13 55.82 55.77 56.31 56.65 56.53 57.45 53.59 51.38 63.46 68.45 68.71 67.49 66.20 64.48 64.85 64.33 63.54 60.60 62.75 63.75 63.63 63.00 64.56 65.67 65.00 64.08 66.45 66.57 66.54 67.18 68.26 69.55 70.67 70.16 69.95 70.22
55.11 55.53 55.77 55.59 55.57 55.75 55.73 55.48 55.42 55.14 55.87 56.51 56.43 56.27 54.99 48.32 55.66 56.28 63.37 67.01 67.18 65.94 64.01 65.31 64.32 64.57 61.70 61.89 61.87 63.20 63.40 63.13 63.72 64.02 63.25 63.91 65.47 67.24 68.17 69.82 68.94 69.48 69.37 69.95 70.27
55.18 55.52 55.35 55.33 55.57 55.51 55.18 54.76 54.50 55.45 57.94 57.96 56.83 56.86 53.80 53.24 55.15 56.68 63.03 66.40 68.50 66.84 62.84 65.01 66.04 64.13 62.41 60.65 60.52 62.41 58.39 58.76 59.34 61.73 60.76 65.05 63.02 64.76 68.91 69.75 68.74 68.68 69.25 69.79 70.41
55.23 55.35 55.28 55.31 55.21 54.80 54.12 53.98 54.55 58.41 58.69 57.18 57.91 56.85 53.20 57.96 59.11 59.86 61.79 63.61 68.42 67.86 65.24 65.82 65.39 64.94 61.17 59.44 56.57 56.17 56.74 53.81 59.42 60.65 61.35 62.95 58.93 65.79 69.33 69.10 68.23 68.46 68.67 68.96 69.97
55.06 55.06 55.05 54.91 54.42 53.88 52.97 53.93 57.11 59.47 58.45 58.36 57.09 56.06 53.21 57.88 52.86 56.07 63.72 61.89 66.12 66.58 65.93 65.61 64.31 61.45 61.70 55.66 53.07 54.37 52.23 54.00 57.41 60.09 60.68 61.90 59.60 64.38 69.19 68.81 68.30 68.70 68.40 68.60 69.14
54.46 54.30 54.40 54.17 53.55 52.73 52.54 54.27 58.57 59.28 59.53 59.93 58.29 52.25 55.01 53.18 55.98 54.33 62.26 62.10 63.50 63.54 60.19 60.99 58.83 55.80 56.95 55.31 48.60 51.24 51.85 54.63 55.70 58.43 60.25 60.80 60.42 62.60 67.09 67.59 68.09 68.60 68.68 68.73 68.67
54.30 53.96 53.80 53.51 52.97 52.03 52.70 54.97 54.03 54.21 52.04 54.86 57.06 54.72 55.38 57.22 58.81 53.38 58.49 61.96 63.76 59.53 52.38 55.40 51.40 49.73 51.23 54.28 54.65 54.13 53.53 53.40 57.01 58.94 58.31 58.97 59.97 61.96 64.18 66.56 66.65 68.26 68.55 68.92 69.16
53.90 53.51 53.37 52.97 52.25 51.97 54.61 49.89 46.95 47.04 43.29 50.64 50.75 52.70 58.57 57.91 55.21 54.69 58.41 55.10 56.37 52.51 53.26 51.46 49.18 52.93 54.07 53.02 52.76 52.63 51.77 52.96 56.66 57.26 56.80 57.52 57.64 60.63 62.13 64.67 66.51 67.74 68.36 69.02 69.63
53.61 53.20 52.66 52.19 51.66 53.04 50.97 49.02 52.81 51.94 44.63 49.18 51.86 51.24 52.24 55.11 53.59 54.32 54.30 54.64 53.71 52.07 51.12 50.08 51.32 53.50 52.41 52.15 51.02 51.43 51.48 52.52 53.40 56.14 56.49 56.09 55.41 57.58 60.17 62.89 65.39 67.35 69.24 69.70 69.74
53.39 52.91 52.15 50.94 51.65 51.74 49.52 52.78 53.89 52.41 42.80 46.79 47.85 50.91 52.68 54.94 51.66 57.97 53.96 54.12 52.36 51.18 51.77 51.61 53.49 51.72 51.14 50.43 51.71 49.15 52.63 52.44 52.49 52.50 50.85 56.35 50.48 57.39 59.58 61.09 64.01 65.71 68.03 69.10 69.96
53.10 52.45 51.41 50.34 51.05 49.25 50.69 53.54 53.44 50.94 36.30 49.06 48.47 54.36 53.12 52.61 54.84 53.57 57.05 52.58 50.52 50.24 52.30 50.01 50.80 50.31 49.78 50.43 52.13 49.90 52.99 51.89 51.53 51.18 51.79 52.83 51.28 55.04 59.53 58.53 62.29 65.15 66.83 69.14 70.15
52.50 51.68 50.83 51.80 52.75 51.90 53.29 53.34 51.49 40.95 35.69 46.86 47.74 47.46 48.10 50.76 52.20 54.10 54.33 54.28 53.72 51.25 51.84 51.38 53.86 52.77 52.11 52.91 52.68 53.05 51.56 51.63 51.59 50.56 46.40 51.61 51.73 52.68 55.76 58.97 61.02 64.74 66.59 68.59 69.82
51.26 50.15 51.22 52.03 48.57 53.29 52.94 50.10 39.18 36.46 46.15 44.69 45.95 47.94 48.20 48.09 49.83 50.59 50.57 50.23 49.83 46.66 46.78 49.74 50.74 52.85 53.49 51.27 53.21 51.74 49.69 44.86 43.85 44.34 44.52 52.36 50.81 53.41 57.18 59.37 61.43 62.96 65.79 68.22 70.15
49.76 48.85 51.35 52.16 53.42 52.94 50.51 43.20 33.40 40.80 41.95 46.04 45.41 46.44 45.67 48.67 48.19 49.11 49.44 48.63 51.67 51.65 49.26 46.33 44.70 50.60 53.26 51.99 50.58 50.21 49.94 45.76 41.55 42.85 45.34 51.33 47.98 52.09 58.21 59.95 60.98 63.02 64.40 68.09 69.35
49.38 52.05 51.81 52.04 53.27 52.67 45.90 36.40 36.68 40.29 42.34 41.70 44.34 43.78 46.25 46.52 46.85 47.86 48.22 49.28 51.31 53.07 49.29 48.33 48.22 52.65 53.09 53.42 53.32 50.53 48.60 51.62 47.38 48.56 46.07 48.71 51.27 54.92 57.17 58.42 59.58 60.34 62.47 64.22 68.13
49.93 49.25 49.39 52.77 53.30 50.72 42.31 35.37 39.39 42.56 43.17 43.30 39.41 42.65 41.48 43.90 44.73 46.46 47.58 48.75 50.58 53.17 54.49 52.73 48.63 52.18 52.05 53.69 53.69 52.79 53.25 46.97 48.08 42.96 42.23 46.22 48.42 49.83 54.30 55.92 58.63 59.40 61.40 63.64 66.70
49.62 45.28 49.71 52.64 51.91 45.57 37.41 37.15 39.41 43.20 43.67 40.89 40.11 40.42 42.51 42.35 44.32 45.26 46.33 46.82 49.33 51.19 52.18 52.47 51.29 50.93 51.92 50.08 49.68 50.26 49.79 50.56 50.08 48.35 44.92 44.03 47.51 55.23 55.46 57.78 57.83 59.52 62.05 64.25 66.32
47.65 40.15 50.12 51.73 42.61 42.99 38.09 38.98 39.53 41.28 43.34 42.91 43.12 40.66 41.62 43.32 43.34 44.26 44.49 46.24 48.41 50.24 48.77 52.64 51.39 48.97 49.39 52.81 53.86 52.82 51.01 51.06 46.65 46.79 48.12 48.01 48.98 54.54 56.00 57.19 59.44 60.27 62.06 64.22 65.75
43.89 44.07 50.67 49.20 36.51 37.18 39.87 39.28 40.41 39.49 38.71 39.39 39.98 42.61 42.83 41.88 40.38 43.59 44.84 47.20 47.66 49.47 49.23 51.90 48.91 46.47 48.47 50.90 52.38 50.58 51.55 51.79 51.38 51.09 48.91 45.74 48.26 56.44 56.90 56.87 59.12 60.19 61.65 63.56 65.04
44.46 38.92 45.04 46.11 44.85 38.43 36.41 37.24 36.83 41.24 39.21 40.04 38.02 42.01 41.14 40.30 43.91 41.91 43.14 45.32 47.01 47.54 48.43 49.24 50.24 49.16 47.04 49.19 51.42 49.24 50.48 51.37 50.58 48.27 48.70 49.52 50.86 53.61 54.80 55.91 58.32 59.07 60.12 61.34 63.69
45.47 39.66 41.34 36.41 38.26 38.49 37.01 37.42 34.89 33.52 39.74 40.94 37.46 36.74 36.36 37.05 40.36 40.20 42.68 44.55 45.79 47.27 48.02 48.44 47.00 48.00 50.66 47.82 47.93 50.78 50.14 50.64 50.23 50.95 48.73 51.12 51.69 54.52 55.91 56.77 57.61 59.48 59.82 60.73 62.17
41.68 39.42 42.74 39.91 39.51 36.63 36.89 35.10 35.42 35.86 35.91 36.15 35.31 35.88 36.44 35.49 37.22 36.12 39.90 42.50 42.36 45.85 45.47 47.52 44.94 46.14 45.68 47.56 46.75 46.10 48.95 50.11 51.10 51.88 51.87 52.31 52.40 57.19 58.05 58.70 58.87 59.09 59.55 59.80 60.53
48.17 46.98 42.86 38.14 37.54 34.99 36.14 35.25 35.97 37.11 39.10 39.35 39.01 37.52 36.50 37.07 40.21 42.21 44.22 44.65 44.54 42.86 43.23 43.36 43.93 43.17 42.95 47.37 46.59 43.70 47.86 49.38 50.60 52.39 52.08 49.75 54.06 56.95 56.85 57.02 58.14 59.52 60.25 60.42 61.43

GFSSW_sfc_wetblb_045.txt.gz
Wetbulb
57.13 57.02 57.00 56.89 56.98 57.28 57.30 57.40 57.68 57.87 57.91 58.08 58.14 58.16 58.13 58.58 58.28 60.03 56.25 61.90 64.33 70.98 72.50 68.03 69.89 72.38 72.68 70.31 71.57 70.69 62.68 58.04 59.46 59.87 62.50 65.98 63.89 67.37 69.74 68.41 69.12 69.61 70.71 71.95 72.75
56.47 56.56 56.18 56.22 56.33 56.52 56.54 56.60 56.87 56.96 57.21 57.37 57.71 57.96 58.03 58.31 58.50 56.46 64.31 70.66 71.21 72.18 68.63 65.36 67.05 69.96 68.27 67.91 68.69 66.54 61.07 58.44 64.67 65.08 63.24 66.15 65.51 64.96 66.23 66.93 67.23 69.03 72.14 72.45 72.64
56.05 55.78 55.65 55.71 55.88 55.93 56.01 56.14 56.28 56.34 56.54 56.85 57.40 57.71 57.92 58.83 57.35 56.33 72.12 69.87 70.79 71.31 63.76 66.38 66.79 67.83 65.35 66.90 66.57 66.07 61.67 61.50 63.87 65.46 66.11 65.87 66.76 67.25 64.37 64.85 67.06 67.78 70.06 71.10 71.92
55.70 55.66 55.48 55.57 55.77 55.73 55.96 56.02 55.82 56.00 56.17 56.43 56.81 57.52 57.74 59.22 50.10 65.09 71.95 71.21 70.42 62.84 62.16 63.12 64.58 63.70 63.13 62.81 65.80 63.02 64.74 64.76 64.20 65.34 65.15 64.41 67.48 66.45 65.94 65.21 69.26 70.27 71.58 71.23 71.08
55.42 55.63 55.88 55.97 55.57 55.87 56.28 56.47 55.81 55.37 55.63 56.08 56.81 57.17 57.35 55.96 54.63 65.52 69.67 70.25 64.13 59.77 60.37 60.51 61.85 62.60 61.14 62.65 64.55 63.34 63.46 64.84 66.87 65.78 64.99 66.30 65.53 66.36 66.32 67.39 69.55 70.83 71.12 70.85 71.25
55.32 55.94 56.08 56.08 56.15 56.25 56.34 55.75 55.53 55.09 55.83 57.19 57.92 57.11 56.73 52.73 61.29 60.46 61.99 64.22 61.06 62.05 60.61 61.92 61.73 64.04 62.96 62.73 62.52 64.00 64.24 64.20 65.77 65.11 64.69 64.22 65.57 66.53 67.89 69.07 68.84 69.73 70.21 70.86 71.13
55.49 55.71 55.69 55.63 55.69 55.74 55.47 55.16 54.73 56.24 58.55 59.56 59.24 57.54 56.76 56.98 60.35 58.10 62.23 63.01 63.71 64.00 60.74 63.39 63.89 63.36 64.17 61.54 64.14 63.80 61.08 62.88 64.28 64.61 63.43 64.40 62.32 64.03 68.58 69.76 68.76 69.21 69.66 70.38 71.19
55.15 55.35 55.39 55.35 55.28 55.05 54.57 54.46 55.03 58.87 58.72 58.62 58.62 57.97 55.85 62.91 64.28 59.18 60.26 63.59 66.55 66.95 64.59 64.40 64.96 63.52 63.00 64.10 61.75 60.67 61.26 57.91 61.95 62.14 63.34 63.20 58.42 64.54 69.12 69.21 68.45 69.07 69.12 69.44 70.70
54.86 54.96 54.94 54.84 54.49 54.05 53.39 53.84 55.92 59.20 57.79 58.19 58.80 58.26 56.82 61.03 57.55 61.20 59.88 59.76 65.56 65.99 66.10 64.38 63.61 61.88 61.92 58.96 56.99 57.15 54.10 56.72 58.65 62.16 62.10 61.24 59.37 59.71 68.86 68.95 68.34 69.16 69.39 68.89 69.84
54.59 54.49 54.28 54.01 53.62 53.01 53.02 54.08 58.24 58.36 60.40 61.74 61.61 55.49 58.09 56.73 59.34 58.44 60.72 60.81 61.76 64.13 62.61 62.08 60.71 58.20 58.70 57.57 50.79 52.90 53.24 55.84 56.34 60.38 61.09 59.95 60.26 63.80 67.73 67.79 68.12 69.15 69.57 69.26 68.88
54.53 54.17 53.87 53.57 53.01 52.33 53.73 56.11 54.27 56.65 58.27 56.35 57.51 56.36 58.41 60.53 59.45 56.31 60.95 60.88 61.87 62.21 57.42 59.77 56.06 53.93 54.69 58.41 58.15 56.29 55.01 54.65 57.75 61.02 59.65 60.02 59.75 62.23 65.67 66.82 66.23 68.34 69.27 69.37 69.15
54.38 53.80 53.37 53.10 52.48 52.31 55.53 51.44 50.32 50.70 45.52 51.28 51.61 52.02 57.49 60.39 56.57 55.54 59.93 57.46 59.02 56.73 58.46 55.80 53.78 56.23 57.06 56.32 56.79 56.15 54.65 54.73 57.05 60.02 59.90 59.47 60.10 62.74 63.76 65.67 66.83 67.31 68.84 69.33 69.94
54.09 53.66 52.89 52.25 52.15 55.03 53.08 51.60 54.99 54.38 45.99 48.05 51.59 51.45 52.71 57.88 56.45 56.44 56.43 57.77 57.30 56.87 55.18 52.35 54.72 56.65 53.72 53.39 53.61 55.22 54.21 54.53 54.56 57.70 60.30 58.65 58.07 59.35 62.68 64.17 66.71 66.94 69.73 69.91 70.24
53.78 53.39 52.48 51.18 51.61 53.84 51.70 53.93 55.31 54.83 42.83 46.57 50.25 52.02 53.76 54.73 53.94 60.00 56.40 57.78 57.44 56.42 55.32 53.17 55.18 53.39 52.32 51.81 52.83 50.11 54.94 55.22 54.68 54.89 53.15 58.06 51.80 57.99 60.33 61.37 63.25 65.08 67.66 69.30 70.18
53.57 52.72 51.55 49.83 53.69 52.11 52.26 54.22 54.91 52.80 36.11 50.31 50.53 56.29 54.74 51.81 54.97 55.95 58.12 56.70 53.25 53.92 56.06 51.98 52.41 52.19 51.53 52.08 53.99 51.97 54.74 54.30 54.81 53.93 54.66 55.17 53.54 56.67 60.02 59.04 61.03 63.70 65.32 68.46 70.11
52.83 52.06 51.27 53.42 54.35 53.33 54.34 53.95 53.00 41.71 36.08 47.96 50.38 49.90 50.43 51.66 53.12 56.82 56.00 55.78 57.07 53.92 55.17 54.30 56.50 55.04 53.84 54.56 54.48 55.12 53.27 53.32 53.42 52.71 48.49 53.31 54.10 54.77 56.99 59.77 61.35 64.07 65.35 66.81 69.57
51.49 50.29 51.14 53.64 50.11 54.06 54.16 50.64 39.94 35.18 47.18 46.70 47.09 50.49 50.32 50.37 50.75 54.02 53.23 49.90 49.00 47.45 48.89 52.10 53.34 54.92 55.63 52.65 54.34 53.13 50.73 45.88 45.21 46.01 46.06 53.15 52.36 55.09 58.95 60.54 62.18 62.81 65.13 66.74 69.34
50.19 49.15 54.01 54.03 54.50 54.11 52.04 44.49 33.97 40.09 43.21 47.68 46.78 47.13 45.80 50.05 51.18 52.03 51.84 50.85 51.07 51.29 50.07 48.05 46.42 52.95 54.46 53.20 51.76 51.66 50.67 46.46 42.62 43.88 46.52 52.61 49.81 53.81 59.69 61.17 62.46 64.10 65.08 66.78 68.31
49.48 55.09 54.05 53.01 54.00 53.59 47.52 37.87 37.73 41.45 43.17 42.30 44.21 45.37 46.54 49.70 49.95 51.16 50.46 50.86 52.20 51.82 48.60 49.43 49.20 54.38 54.65 54.61 54.50 52.07 49.47 52.69 49.28 50.42 47.90 49.60 52.92 56.31 59.14 59.56 60.90 61.72 63.58 65.58 67.28
51.78 52.55 53.61 53.22 53.95 51.82 44.62 38.10 39.82 43.03 42.99 42.87 38.19 43.96 42.69 46.61 47.62 48.93 49.97 52.41 52.42 53.79 55.22 53.60 49.83 54.02 53.84 55.31 54.71 54.08 54.50 47.99 49.43 45.58 45.04 48.65 50.63 51.19 55.53 57.20 59.35 60.45 62.31 64.07 67.10
52.11 47.41 51.88 53.45 53.49 47.37 38.62 39.17 41.03 43.62 43.91 41.01 39.65 39.91 41.23 40.69 44.19 47.56 49.37 50.89 52.52 53.84 55.42 54.39 53.45 53.45 54.85 51.92 50.98 51.38 51.54 51.64 51.22 49.92 46.68 46.33 49.34 56.47 57.30 58.34 58.25 60.33 61.86 63.10 65.06
50.73 44.12 52.60 53.29 44.04 45.95 39.50 40.84 41.18 42.14 44.00 42.39 43.22 42.44 40.72 42.86 42.34 44.26 46.26 49.23 50.34 52.11 51.52 54.65 53.15 50.44 51.87 54.48 55.41 54.16 52.56 52.79 49.34 49.14 49.88 50.37 50.99 57.36 58.10 58.19 59.74 60.03 62.28 63.24 65.38
47.02 47.53 53.42 50.90 39.35 40.15 42.09 40.93 41.89 40.45 40.71 40.52 39.67 41.48 44.12 41.33 38.95 42.82 46.32 50.08 49.97 51.32 51.30 54.67 51.27 48.31 50.84 52.83 54.10 52.35 53.15 53.74 53.28 52.43 50.80 47.49 50.44 58.30 57.82 58.23 60.13 60.43 61.84 64.22 65.77
47.34 42.03 47.27 47.68 46.25 41.18 39.69 39.05 37.80 42.62 40.61 41.90 40.93 42.92 41.10 40.92 43.03 41.78 43.14 47.77 49.12 49.80 50.31 51.81 51.61 50.53 49.22 51.79 52.80 50.56 52.15 53.01 52.75 50.32 50.58 51.22 52.77 55.21 56.44 57.30 60.12 61.15 62.55 63.90 66.08
45.88 42.65 44.73 39.98 42.21 41.59 40.93 39.87 36.70 35.99 41.16 42.90 39.86 39.58 37.59 36.65 40.00 37.35 42.09 46.12 49.24 49.30 51.63 51.45 48.61 51.73 52.91 54.22 53.28 52.35 51.59 52.34 51.57 52.92 50.42 52.90 53.38 56.12 57.34 58.31 59.82 61.34 62.44 62.31 63.32
42.13 40.57 43.44 41.01 42.31 39.97 39.01 38.37 37.45 37.77 38.90 38.33 37.29 39.00 39.36 36.97 38.23 33.86 39.70 42.87 43.25 48.20 48.80 51.28 46.94 51.18 50.83 53.17 51.79 50.39 52.87 52.40 52.78 52.78 53.15 53.52 54.22 58.78 59.40 59.78 59.65 60.36 60.71 60.16 61.34
47.91 46.81 43.27 39.64 39.74 37.93 38.56 39.23 38.39 40.60 41.13 41.57 40.87 39.70 37.86 39.68 43.30 44.93 45.34 45.82 45.69 44.44 44.11 46.40 47.79 48.75 46.39 51.64 50.47 47.38 51.46 52.88 53.70 54.40 53.92 51.71 55.73 58.87 58.63 58.85 59.08 60.29 60.90 60.77 62.02

GFSSW_sfc_wetblb_048.txt.gz
Wetbulb
56.71 56.57 56.44 56.40 56.68 56.76 56.74 57.10 57.14 57.33 57.35 57.62 57.79 58.27 58.65 59.10 58.63 58.53 54.19 58.89 62.73 70.59 70.82 66.27 62.97 67.32 71.66 70.50 70.37 69.45 61.16 56.61 58.14 58.77 60.56 64.99 64.24 67.55 69.34 68.46 69.74 70.48 68.86 70.08 71.54
56.46 56.37 56.23 56.25 56.32 56.42 56.46 56.76 56.88 57.05 57.05 57.25 57.44 57.88 58.27 58.66 56.68 55.70 62.73 69.38 71.62 70.88 58.36 61.71 60.07 64.45 66.85 67.43 67.19 65.39 59.08 58.08 61.99 62.22 62.08 63.89 63.48 65.40 65.61 65.97 67.64 68.85 70.51 70.73 71.07
56.06 55.85 55.76 55.91 56.10 56.25 56.41 56.67 56.52 56.55 56.72 56.68 57.04 57.50 57.86 58.25 55.79 56.21 73.40 68.37 70.42 70.52 59.08 62.94 63.00 64.24 64.62 66.19 65.39 64.48 60.33 60.78 63.11 63.63 65.37 63.11 62.33 66.57 64.74 63.28 68.19 67.21 68.43 69.73 69.85
55.49 55.42 55.66 55.71 55.86 55.86 56.07 56.42 56.29 56.05 56.14 56.29 56.69 57.21 57.46 57.49 50.33 60.70 73.17 73.34 70.75 62.31 58.44 59.81 61.66 61.92 62.83 61.90 65.14 61.42 64.58 64.17 62.94 65.53 64.65 63.73 64.80 63.54 65.10 64.95 69.78 70.39 70.45 70.04 69.52
55.22 55.51 55.87 55.79 55.46 55.79 56.33 56.57 56.24 55.85 56.00 56.57 56.78 57.40 56.65 54.20 54.81 62.62 72.78 71.93 64.63 58.48 56.99 58.23 59.15 60.48 60.10 62.41 63.28 61.98 63.80 64.95 65.19 65.38 65.65 64.65 61.49 63.72 64.00 67.60 70.28 70.94 70.59 69.77 69.88
55.67 55.93 55.95 55.95 56.07 56.33 56.35 56.07 55.91 55.65 56.92 58.81 58.23 57.45 54.63 51.83 63.19 63.58 62.79 65.59 60.45 57.47 56.33 58.66 58.11 62.02 61.48 61.79 61.35 63.54 63.87 64.17 65.40 64.74 65.18 64.63 64.48 64.46 64.46 67.54 68.72 69.56 69.34 70.22 70.01
55.77 55.75 55.69 55.69 55.78 55.87 55.87 55.59 55.04 55.56 58.25 60.30 59.81 57.80 54.49 55.22 63.65 60.97 61.71 63.07 63.25 60.06 55.68 59.32 59.23 60.63 61.61 60.43 63.55 62.61 60.07 62.54 63.51 63.88 63.66 63.75 61.94 63.35 65.70 67.42 66.83 68.28 69.08 69.49 70.92
55.54 55.59 55.32 55.36 55.45 55.18 54.87 54.64 54.75 55.93 60.28 59.46 60.32 57.64 52.86 63.78 63.25 62.66 58.38 59.41 62.12 61.68 59.27 61.07 60.77 60.50 60.08 62.68 62.13 60.04 60.12 56.91 62.18 63.36 64.02 63.03 57.46 64.18 65.65 64.57 66.32 67.30 68.36 69.09 69.62
55.33 55.21 55.11 54.82 54.56 54.18 53.83 54.16 55.36 57.06 59.65 58.41 57.99 56.27 55.05 64.97 60.78 62.65 60.91 58.06 61.20 62.17 62.38 62.31 61.47 58.71 59.66 57.44 56.85 58.19 54.12 56.32 58.48 63.25 62.15 61.60 58.19 63.28 65.93 63.70 66.81 67.08 67.30 68.53 69.52
55.08 54.69 54.51 54.28 54.02 53.23 52.85 54.21 58.33 58.22 59.12 60.67 60.84 55.79 57.97 57.43 60.92 61.78 62.73 58.32 60.02 61.73 61.22 60.57 58.62 55.61 56.61 55.47 50.94 53.29 54.22 55.98 56.35 60.70 60.64 59.23 58.70 63.03 63.94 63.76 66.32 67.48 67.61 68.05 68.39
54.98 54.57 54.18 53.79 53.15 52.42 53.35 55.33 50.52 55.58 52.53 52.11 56.42 55.10 56.94 61.70 61.58 58.87 61.08 57.55 58.48 61.02 56.00 58.79 54.22 51.99 54.41 56.38 56.71 56.99 55.99 54.09 56.85 60.53 58.95 58.23 59.80 61.39 62.40 62.70 63.32 66.66 68.10 67.30 68.29
54.65 54.22 53.56 53.29 52.56 52.50 53.33 50.86 49.52 50.74 45.21 50.35 50.82 51.22 55.04 58.60 54.94 57.34 59.65 54.63 54.30 54.05 58.15 56.08 53.03 55.92 56.63 57.07 56.14 56.17 54.56 53.87 55.92 58.90 59.08 58.75 58.77 62.68 61.73 60.91 63.50 66.29 64.72 68.51 68.27
54.30 53.64 52.98 52.31 52.15 55.17 53.61 51.27 53.72 53.45 45.08 46.22 49.57 49.50 50.46 53.39 52.68 57.04 56.39 55.75 53.41 52.95 55.83 53.86 55.78 57.80 56.11 55.36 53.38 55.15 54.44 54.16 53.92 56.51 59.76 58.43 56.33 60.09 63.86 65.27 61.92 62.36 68.92 69.24 69.17
53.79 53.39 52.40 51.34 52.41 54.28 51.56 53.29 53.70 53.61 40.56 44.40 48.31 50.62 50.96 51.62 50.56 59.28 57.49 57.32 55.65 52.97 55.04 55.73 57.80 55.77 55.21 53.62 54.38 51.01 57.06 56.41 55.12 54.00 50.84 58.80 50.98 58.66 60.61 62.05 63.17 65.97 67.78 68.10 69.42
53.42 52.94 51.84 50.68 51.79 52.11 51.60 53.50 53.43 51.97 32.57 50.03 50.58 56.61 53.73 49.22 52.08 53.09 60.50 55.59 53.69 54.37 55.82 54.69 55.29 54.05 53.36 53.76 54.70 52.18 55.59 55.24 55.30 53.56 53.07 53.24 53.29 56.05 60.90 59.49 60.81 64.60 65.66 68.35 69.13
52.83 52.13 51.43 53.85 54.33 54.57 53.50 53.16 51.54 40.11 32.73 46.74 51.75 50.51 50.73 50.21 49.91 53.91 55.19 56.89 57.14 55.49 56.55 55.88 58.75 55.20 54.02 55.51 54.19 54.63 52.91 53.19 53.88 52.89 48.68 52.13 53.46 53.86 57.01 59.98 60.69 63.26 64.30 68.33 69.06
51.82 50.57 50.46 54.17 50.68 53.96 53.25 50.12 39.15 34.37 44.49 42.73 43.82 47.05 47.05 48.52 49.63 49.90 52.21 51.68 49.64 48.52 50.64 54.41 55.67 55.48 55.20 52.29 53.83 52.93 50.30 45.52 44.57 45.77 45.98 52.72 51.75 55.38 59.61 61.48 61.79 62.73 63.75 65.96 69.61
50.33 49.17 54.45 55.51 54.86 53.29 51.16 43.97 33.86 39.41 40.20 44.84 43.78 44.02 43.49 48.06 49.29 50.14 48.89 50.48 51.33 51.75 50.22 48.06 47.98 54.22 54.63 53.07 51.46 51.12 50.36 46.43 41.60 43.19 45.32 51.92 49.25 53.57 60.20 61.90 63.50 64.02 64.62 65.88 67.38
49.47 54.75 55.18 54.95 53.88 52.63 47.04 38.11 37.75 39.58 41.98 40.76 41.52 40.48 42.43 45.48 46.09 48.52 49.45 49.99 52.12 51.78 49.34 49.54 48.85 55.47 55.53 54.98 54.42 51.03 48.47 52.26 48.09 49.06 46.30 48.76 52.07 55.62 59.08 59.59 61.30 61.38 64.17 65.41 66.35
50.27 52.13 53.10 55.36 54.17 51.16 44.38 38.49 40.64 43.61 42.81 41.43 36.45 39.85 36.15 39.61 40.06 42.40 46.30 51.72 52.24 52.59 53.77 52.07 48.45 53.12 54.40 55.51 54.58 52.97 53.92 47.44 48.64 43.58 43.91 47.28 50.69 51.01 55.77 58.25 60.03 60.24 61.59 64.36 67.06
51.79 49.18 52.85 55.04 53.27 47.45 40.00 40.15 41.65 43.77 43.68 40.17 38.59 37.49 37.98 37.59 39.01 40.12 44.67 48.76 51.87 53.52 54.36 51.74 50.97 51.12 54.04 52.11 50.71 51.21 50.89 50.53 50.09 48.76 45.24 45.13 48.57 57.10 57.88 58.66 59.88 60.87 62.35 63.04 66.09
49.55 44.77 54.57 53.17 43.84 44.78 40.97 41.95 42.11 41.96 44.48 42.58 42.89 39.93 38.40 39.24 38.16 39.10 41.16 45.66 51.52 50.93 49.92 53.89 50.10 47.87 50.87 54.96 55.16 53.22 51.54 52.38 48.51 47.92 49.52 49.67 49.64 57.98 58.73 60.09 60.06 60.75 62.48 63.48 65.77
45.02 47.89 53.76 52.50 39.69 40.50 43.12 42.24 42.62 40.97 41.30 39.87 39.57 40.71 41.23 38.16 36.03 39.82 41.02 47.46 48.87 49.03 48.38 50.55 49.94 46.46 48.57 53.22 54.20 52.01 52.42 52.16 52.89 51.04 50.24 46.87 49.31 59.00 58.44 59.66 60.91 60.69 62.19 64.52 67.17
46.62 41.26 47.11 47.58 46.80 42.34 40.59 40.06 38.93 43.30 40.59 40.42 40.93 42.41 39.60 37.57 39.99 37.15 38.72 44.40 47.53 49.27 54.57 52.08 49.46 49.28 47.34 50.79 54.04 51.31 51.53 52.42 51.40 49.61 49.55 50.79 52.41 55.20 56.53 57.04 60.03 62.36 62.83 64.68 66.47
46.01 42.23 43.66 38.19 41.06 41.13 41.76 40.55 38.26 37.39 42.75 41.78 39.79 39.88 38.17 34.45 36.44 36.81 39.07 41.29 44.01 49.87 50.58 51.66 47.71 50.82 52.00 53.55 54.13 51.84 51.12 51.91 51.11 52.93 49.97 52.39 53.55 55.84 57.60 58.54 61.31 63.28 64.44 64.45 66.17
42.19 40.61 42.44 40.87 41.75 39.95 40.28 38.19 38.18 39.54 39.61 38.05 38.20 39.31 40.60 35.93 37.83 35.41 38.94 38.79 39.06 44.62 45.57 49.51 47.07 50.29 49.56 52.37 53.11 52.23 52.22 52.18 52.36 52.13 52.89 53.39 53.94 59.25 60.10 61.56 62.47 63.15 63.00 64.30 65.56
48.49 46.57 41.08 38.93 39.59 37.55 38.59 39.27 39.38 41.39 41.80 41.95 40.87 39.24 38.73 39.71 42.60 43.44 43.47 43.17 43.06 42.01 43.04 45.43 46.33 46.67 44.79 51.14 51.67 49.44 52.44 52.41 52.98 54.01 53.67 52.14 56.91 59.98 59.32 60.20 61.72 63.50 62.81 63.39 63.14

GFSSW_sfc_wetblb_051.txt.gz
Wetbulb
56.42 56.33 56.23 56.20 56.58 56.80 56.88 57.13 57.32 57.32 57.64 57.68 57.78 57.75 58.35 58.93 58.51 55.99 51.65 55.96 58.37 67.45 72.49 66.27 62.92 62.86 68.97 68.23 69.81 70.00 58.57 55.44 57.04 57.96 59.66 64.25 64.30 68.27 69.71 66.93 68.03 67.92 66.98 66.20 67.44
55.95 56.02 55.97 56.03 56.31 56.41 56.65 56.75 56.83 56.94 57.27 57.42 57.27 57.35 57.72 58.64 54.29 52.08 60.05 66.53 67.35 69.19 59.81 54.75 59.24 58.63 58.86 65.61 66.52 64.40 57.64 58.75 62.20 61.86 60.97 63.44 63.40 64.19 66.46 66.14 65.15 66.12 68.22 67.75 67.51
55.62 55.69 56.20 55.87 55.99 56.16 56.41 56.55 56.49 56.48 56.75 56.81 56.87 57.09 57.38 57.24 51.91 54.02 69.38 66.75 68.76 71.29 60.62 56.83 56.23 57.53 55.64 62.36 63.67 63.00 58.32 63.00 62.29 63.81 64.28 62.36 61.83 65.64 65.12 63.09 65.36 64.24 66.16 67.70 67.57
55.76 55.88 56.09 55.79 55.94 55.89 56.10 56.35 56.32 56.27 56.46 56.59 57.14 57.15 57.22 54.52 47.20 57.50 71.94 71.61 68.46 65.41 59.29 55.91 53.72 55.05 54.12 56.74 63.30 59.47 62.77 63.10 63.24 63.77 61.41 60.11 63.74 63.08 64.18 66.32 68.32 67.91 68.08 68.16 68.36
56.05 56.41 56.51 56.35 56.22 56.37 56.65 56.77 56.53 55.97 56.28 57.27 58.47 57.18 54.90 49.82 50.89 62.08 72.88 73.18 65.17 62.28 56.93 53.00 52.26 55.00 53.35 58.50 61.88 60.16 61.67 64.32 64.13 64.05 61.67 63.09 62.31 63.35 66.20 68.82 69.19 68.77 68.55 68.10 68.33
56.18 56.28 56.20 56.00 56.09 56.20 56.43 56.05 56.06 55.55 56.26 57.76 59.82 57.17 51.50 45.88 59.97 61.07 65.30 65.43 63.02 59.39 55.30 54.04 53.94 56.25 56.23 58.59 59.55 61.75 61.62 62.92 63.28 64.01 63.89 61.35 62.05 62.76 67.07 69.23 67.85 67.74 67.16 67.88 68.29
56.09 56.05 55.85 55.74 55.82 55.88 55.81 55.62 55.65 55.50 55.88 57.52 59.71 57.03 51.61 48.34 59.96 60.82 62.37 60.34 59.60 57.62 53.23 54.64 56.57 54.48 57.24 55.69 60.29 61.00 57.95 60.24 62.86 63.48 62.10 63.52 59.75 61.36 64.89 68.47 66.95 67.09 67.50 67.79 68.35
55.94 55.76 55.61 55.55 55.34 55.32 54.96 54.68 55.11 56.29 56.48 58.80 59.86 56.43 48.58 58.84 58.84 57.86 59.12 61.24 59.14 57.38 55.32 54.83 56.17 54.65 53.00 57.83 58.25 56.28 56.68 53.52 58.63 61.77 63.73 62.16 55.58 61.17 65.29 66.63 65.81 67.11 67.49 68.05 67.85
55.55 55.39 55.23 54.95 54.62 54.15 53.72 54.12 56.74 59.49 57.39 58.60 55.81 53.69 49.00 62.61 57.04 59.22 60.03 56.83 59.45 58.37 56.82 58.20 54.70 52.36 52.68 51.66 50.56 52.38 50.02 52.13 55.53 60.98 60.89 60.07 57.45 61.72 64.95 64.88 64.16 65.54 67.14 67.54 67.80
55.10 54.82 54.43 54.25 53.77 53.17 53.14 54.50 57.03 57.07 58.73 59.19 58.35 50.53 54.59 53.07 58.42 60.32 61.01 59.71 55.16 56.26 55.64 53.65 52.02 49.60 49.81 49.11 43.91 47.61 49.49 51.97 52.70 58.14 60.06 57.68 58.79 61.43 63.18 63.52 63.69 64.77 65.72 66.20 67.17
54.61 54.39 54.04 53.61 53.16 52.41 50.88 48.13 45.72 46.95 47.56 43.18 45.02 50.24 47.71 56.43 56.16 59.62 60.48 58.30 54.24 54.31 50.26 53.20 49.02 46.76 48.99 50.82 52.11 53.21 52.83 52.08 55.11 57.93 57.80 56.94 58.23 59.88 61.61 60.79 61.36 63.36 62.65 65.47 66.32
54.20 54.07 53.66 53.18 52.44 52.11 50.89 47.02 46.04 46.92 41.03 47.14 47.74 47.86 49.99 51.09 48.34 53.65 59.74 54.46 50.19 49.26 53.53 51.77 48.51 52.78 53.79 53.18 52.33 52.54 51.67 51.90 54.96 57.29 56.42 56.82 57.29 60.12 61.39 61.49 62.41 63.30 62.42 62.70 66.39
54.01 53.70 53.10 52.37 52.00 52.56 50.16 47.64 50.62 49.24 40.38 43.50 45.92 46.20 47.26 48.20 46.39 48.76 53.84 54.88 49.57 48.23 52.43 49.88 52.01 55.93 53.67 51.60 51.02 51.27 50.25 51.09 51.65 54.50 54.75 54.48 55.70 56.94 59.97 61.65 61.28 63.21 62.63 62.75 64.98
53.64 53.37 52.37 51.09 49.94 49.71 50.07 51.87 50.72 49.89 35.25 41.81 43.44 48.31 49.56 48.13 45.11 52.31 54.41 53.93 52.03 47.20 50.63 52.54 55.57 54.30 52.89 51.10 51.51 47.82 53.99 54.15 53.70 51.65 46.52 54.35 45.85 54.67 57.36 58.89 59.58 61.24 62.16 63.98 64.35
53.23 52.81 51.58 51.00 47.37 47.97 51.58 52.86 50.62 47.53 27.31 45.83 45.93 53.18 49.41 44.89 46.54 47.91 53.98 52.66 49.36 49.26 49.46 48.94 53.37 52.76 51.55 52.41 53.79 50.81 54.31 53.16 53.37 51.15 47.90 50.26 48.86 52.87 58.81 56.74 57.85 59.82 62.01 63.10 65.41
52.56 51.98 51.25 50.42 50.52 52.00 52.70 51.15 48.22 34.17 30.37 40.83 44.96 43.54 43.03 44.77 47.31 51.36 49.99 52.97 53.46 50.50 51.29 50.60 56.28 55.44 54.26 55.59 55.40 55.36 52.25 50.56 51.16 49.82 43.64 47.84 47.20 49.37 54.52 57.84 58.65 60.29 61.44 63.21 65.35
51.46 50.30 49.75 51.58 47.45 53.10 52.80 47.00 34.09 29.82 42.10 39.49 39.31 41.51 40.74 40.65 43.86 45.20 44.63 46.10 46.48 43.05 44.98 50.28 51.14 55.27 56.65 52.42 54.15 52.27 47.68 40.87 39.99 41.48 41.14 45.90 44.68 46.70 55.37 59.26 60.41 60.99 62.32 64.86 67.11
50.11 49.64 51.85 54.08 53.93 53.72 47.88 39.94 29.87 38.23 37.91 42.09 40.75 40.17 37.67 41.14 41.21 41.61 40.18 41.80 49.28 47.73 44.46 43.79 43.93 51.58 55.87 52.03 49.24 49.95 47.22 39.02 33.09 36.63 39.88 45.13 42.84 47.56 55.32 58.14 61.73 63.48 65.62 66.96 67.36
49.91 51.45 52.21 54.34 55.38 51.99 43.17 33.64 34.14 37.35 40.03 38.36 38.45 35.46 35.69 38.95 39.69 39.20 38.75 39.89 46.55 50.31 43.30 44.04 44.82 54.73 55.04 54.99 51.58 47.23 44.73 47.01 39.51 42.86 38.35 41.60 46.01 50.65 53.57 54.65 57.97 60.05 61.75 65.93 66.73
47.84 49.33 50.82 55.28 52.67 47.67 39.76 36.01 38.98 41.69 40.93 39.78 33.18 36.76 33.24 36.33 36.16 36.04 37.02 42.67 43.13 46.45 46.97 46.48 41.40 51.37 54.25 56.20 53.06 48.70 48.93 42.28 43.05 35.43 35.41 41.31 43.33 45.19 48.97 51.65 53.88 55.54 59.94 62.82 66.85
47.82 45.38 51.59 55.22 51.06 44.43 36.35 38.39 40.14 42.95 42.17 38.77 36.16 34.60 35.25 35.46 36.97 35.88 36.61 40.94 44.82 43.28 45.05 44.13 44.48 45.00 50.55 50.95 49.80 46.74 45.75 45.64 42.28 40.79 36.45 36.46 42.53 51.10 51.06 52.95 53.66 55.54 58.50 61.75 66.18
45.69 40.07 52.62 54.11 42.35 42.88 38.25 40.62 41.82 41.53 42.59 40.69 39.92 37.99 36.26 36.29 35.45 35.32 35.32 39.21 45.04 43.32 38.46 43.32 42.03 41.78 44.29 50.42 54.15 50.52 47.44 46.64 42.52 38.68 40.52 39.63 43.12 54.45 53.32 55.06 55.74 56.42 57.39 60.84 64.95
42.10 44.15 52.44 50.40 36.82 37.47 40.62 40.68 42.28 40.20 39.74 39.04 36.96 39.18 38.68 36.29 33.34 36.16 37.91 43.51 44.34 41.52 39.69 42.96 39.77 38.64 41.88 45.76 49.22 49.28 49.20 48.28 45.44 43.83 41.28 39.97 41.38 53.80 54.15 55.51 56.21 56.33 57.18 58.80 62.20
43.97 37.92 43.99 45.49 43.98 39.03 36.77 37.76 37.91 42.95 40.97 40.55 38.40 39.70 37.43 35.63 37.99 35.11 35.92 41.12 43.51 41.98 47.94 46.16 40.31 39.01 39.51 42.84 46.38 47.10 49.02 48.83 46.12 43.44 42.51 44.08 44.29 50.68 52.42 54.11 55.54 56.14 57.34 58.88 61.69
44.27 40.06 41.90 35.15 37.59 37.59 38.94 38.38 36.57 36.19 41.08 41.16 37.34 38.12 36.00 33.05 33.15 34.99 37.33 38.67 41.29 43.62 42.08 40.37 35.70 42.85 46.35 48.75 49.59 49.56 49.11 49.13 46.57 46.19 44.68 44.99 47.90 50.47 50.61 54.75 57.29 57.49 58.54 60.71 61.04
40.67 40.10 40.68 37.92 38.94 37.93 38.26 36.13 36.54 37.97 38.12 36.54 36.66 37.09 37.18 33.87 34.40 33.01 36.83 36.63 36.64 39.60 37.77 39.47 36.19 41.42 44.09 49.54 49.70 49.34 50.59 50.20 49.30 48.78 47.95 48.63 47.04 53.92 56.19 57.54 57.60 57.76 59.49 61.06 61.73
48.23 46.61 40.66 37.97 36.60 35.36 36.21 37.35 38.21 39.23 40.15 41.18 39.88 37.06 35.24 37.82 40.93 40.62 41.00 40.56 40.23 38.67 36.49 35.61 37.61 36.97 38.25 46.81 47.53 44.31 49.60 49.72 49.93 50.90 49.72 46.39 48.97 54.71 54.68 57.53 56.98 57.57 58.11 58.00 61.01

GFSSW_sfc_wetblb_054.txt.gz
Wetbulb
56.19 56.07 55.92 56.27 56.36 56.65 56.65 56.95 57.12 57.37 57.54 57.55 57.64 57.67 57.73 58.05 58.31 55.29 50.83 54.39 56.01 64.28 73.95 70.75 67.47 64.70 68.77 66.63 68.96 69.55 59.81 56.11 57.45 57.72 58.95 63.94 63.20 67.59 68.68 65.80 67.01 67.68 65.50 65.93 67.44
56.08 56.10 55.98 55.99 56.12 56.32 56.53 56.71 56.84 57.09 57.16 57.27 57.31 57.41 57.62 57.67 53.79 51.08 57.14 63.55 66.03 66.99 64.46 63.50 61.17 60.43 61.86 64.52 65.90 64.46 57.66 58.71 61.74 61.04 60.36 62.89 64.56 65.67 65.05 65.01 64.32 64.17 66.81 66.86 66.88
56.01 55.84 56.00 55.85 56.16 56.10 56.31 56.39 56.51 56.72 56.67 56.87 57.13 57.45 57.24 56.61 50.55 53.15 64.56 65.59 67.75 68.88 60.41 56.81 59.50 56.75 53.08 57.13 63.33 62.81 59.20 62.17 63.00 63.01 62.52 62.02 61.69 66.49 64.54 62.06 63.54 61.59 63.33 64.97 65.61
55.77 55.90 56.15 55.97 56.03 56.01 56.26 56.34 56.37 56.39 56.49 56.72 57.39 58.30 56.82 53.67 45.93 55.61 71.13 69.09 68.15 63.51 58.38 55.25 51.95 50.21 49.94 51.89 58.14 57.96 62.45 63.45 63.67 64.04 62.27 60.75 62.55 64.60 65.70 64.97 66.83 64.99 64.97 65.29 66.84
55.82 56.28 56.60 56.49 56.36 56.71 56.69 56.58 56.34 55.97 56.15 56.59 57.53 57.76 54.45 48.82 48.29 58.74 71.27 72.95 64.88 62.24 56.80 53.71 50.07 48.32 49.17 52.10 54.70 56.92 60.54 63.30 64.39 64.29 62.24 62.69 62.31 63.12 64.33 67.28 67.36 65.38 65.24 65.24 66.66
56.13 56.31 56.19 56.07 56.36 56.42 56.43 56.06 56.01 55.88 56.25 56.28 57.53 57.95 50.50 44.53 56.11 58.28 61.02 64.87 61.25 58.86 56.71 54.03 50.58 51.30 51.19 52.88 53.69 59.54 59.71 61.44 63.29 63.22 63.52 61.42 61.89 65.03 65.85 67.19 66.28 65.23 64.18 65.53 67.13
56.04 55.90 55.74 55.73 55.93 56.03 55.94 55.40 55.57 56.60 57.73 56.48 57.99 56.51 51.13 47.06 55.52 56.25 55.93 61.61 60.95 57.71 54.34 56.06 53.47 52.46 52.05 51.58 56.58 56.23 56.24 59.28 60.62 62.83 62.10 63.21 59.72 63.23 66.87 67.18 65.39 65.14 65.50 66.86 67.72
55.67 55.65 55.47 55.41 55.45 55.35 54.86 54.55 55.30 57.42 57.96 56.36 59.63 55.78 47.01 57.26 57.25 56.19 55.84 56.21 60.70 59.06 53.74 56.01 54.85 50.50 49.27 51.83 51.70 53.02 52.63 49.87 56.13 61.90 62.97 61.84 55.65 63.39 66.36 65.93 64.67 65.34 66.10 66.51 67.20
55.26 55.14 55.04 54.85 54.73 54.32 53.64 54.24 56.37 58.80 58.01 59.31 54.24 52.07 47.10 60.04 55.99 57.29 57.26 57.74 56.92 54.50 53.59 56.44 51.65 47.52 48.19 45.87 43.11 46.46 45.45 47.92 52.40 61.80 61.05 59.80 57.01 63.64 66.60 65.25 64.28 64.81 65.56 66.02 66.61
54.71 54.60 54.44 54.18 53.85 53.14 53.09 54.31 56.14 57.14 58.48 58.67 57.91 49.36 50.33 50.29 51.23 53.58 57.36 58.65 55.43 53.35 51.78 50.54 47.20 43.05 44.28 41.83 38.69 41.83 44.92 47.59 50.34 58.26 59.57 58.80 57.75 62.50 64.21 65.09 64.59 64.68 65.49 65.46 65.91
54.54 54.17 54.11 53.63 53.08 52.33 50.61 45.69 43.36 40.44 43.82 39.97 42.13 49.64 48.51 50.12 51.08 52.67 54.29 56.69 54.04 51.10 45.83 48.67 44.20 41.40 44.29 46.01 46.39 48.41 47.88 48.39 52.90 56.64 58.86 58.45 57.77 60.27 63.73 64.03 64.28 64.71 65.44 65.56 65.85
54.15 53.86 53.55 53.14 52.30 52.28 48.18 42.19 41.43 43.80 37.63 44.99 45.32 45.06 46.86 46.57 44.25 47.59 52.18 52.54 50.28 46.82 48.69 45.57 43.71 47.15 49.32 48.77 47.62 47.86 47.45 48.58 53.05 56.02 55.04 57.75 57.10 60.34 61.87 62.39 63.97 63.50 63.38 65.23 66.22
53.91 53.63 52.93 52.33 51.84 48.04 45.42 45.87 48.47 42.14 34.52 41.32 44.29 43.93 44.61 45.15 43.45 44.80 48.11 49.67 49.09 45.45 47.56 45.79 48.66 51.49 50.41 48.85 47.66 47.54 46.21 48.40 49.47 53.31 53.54 57.67 55.33 57.16 60.24 60.58 62.34 64.31 65.01 65.38 64.79
53.37 53.12 52.39 51.68 45.81 45.58 45.86 48.55 50.66 44.02 30.44 38.60 42.68 46.08 46.47 45.93 42.67 50.73 48.93 48.89 49.30 46.42 46.34 47.90 52.11 51.32 50.22 49.39 49.86 44.64 50.89 51.12 51.24 48.77 44.67 53.35 47.64 54.23 57.42 57.85 60.58 62.07 63.94 64.48 65.13
53.23 52.38 51.24 51.07 43.88 44.44 48.26 48.33 49.93 41.70 24.92 43.82 42.62 48.49 45.27 41.75 44.32 46.90 51.15 47.96 45.71 46.52 45.29 45.10 50.18 50.11 49.53 50.57 52.21 48.20 51.78 50.85 51.09 47.17 43.59 48.66 47.17 52.02 57.02 55.48 57.69 60.92 63.44 64.07 64.76
52.68 51.57 51.26 47.53 44.75 47.46 49.07 49.70 42.03 31.70 26.68 39.09 42.63 40.48 40.12 41.36 42.33 46.32 45.42 47.94 48.81 47.19 47.00 47.02 51.19 53.35 52.42 54.07 53.91 53.16 50.20 49.43 49.29 44.31 40.16 47.03 44.67 47.36 53.20 55.97 57.70 60.55 62.55 63.78 61.93
51.43 50.47 49.94 50.05 43.16 47.03 48.00 40.65 30.09 26.07 39.63 36.67 35.70 38.88 37.36 37.47 39.30 41.72 40.09 39.14 36.79 36.07 40.92 46.78 47.41 49.94 55.11 51.18 52.88 51.87 44.53 39.96 36.13 37.96 37.98 46.04 42.97 45.69 56.44 58.99 59.79 59.98 62.03 63.69 63.20
50.27 49.72 49.46 50.92 47.98 48.42 42.69 34.95 25.07 35.74 33.65 38.27 37.71 37.88 35.50 38.57 37.54 39.18 37.70 35.39 42.08 40.30 37.24 39.84 38.94 47.34 50.49 51.32 49.44 48.31 47.35 37.54 32.73 33.63 39.71 42.23 39.56 45.04 57.68 60.71 61.95 62.22 62.83 63.93 63.36
49.98 45.96 45.89 48.98 50.96 47.03 37.36 27.67 28.55 34.31 37.21 36.38 36.13 33.31 32.87 37.25 37.79 37.47 35.70 36.15 40.27 41.74 33.75 32.83 40.67 50.10 51.77 52.12 52.84 48.39 45.12 45.91 37.06 36.09 35.62 39.19 42.84 48.02 51.36 57.81 61.34 61.76 62.42 62.58 63.02
45.65 42.18 43.78 51.20 51.00 41.75 33.78 31.46 34.07 39.94 39.07 37.68 31.10 34.24 29.26 32.50 34.26 34.54 35.05 40.48 39.49 43.04 43.12 37.82 33.28 46.51 50.09 52.72 52.75 50.66 48.19 40.51 36.33 34.31 30.83 37.11 39.05 43.17 46.57 48.29 56.19 59.85 61.42 62.56 63.54
40.58 38.40 46.03 52.11 46.34 38.40 29.30 30.75 37.44 41.84 41.41 36.53 33.30 31.35 30.61 31.40 31.72 32.76 35.59 39.53 41.84 41.11 42.04 38.67 35.18 40.92 45.09 46.90 47.90 44.77 46.35 43.84 42.57 37.27 36.41 33.07 39.24 46.23 46.87 48.53 49.35 55.73 62.04 63.17 64.46
39.12 34.08 46.03 50.23 36.78 34.59 32.34 37.08 41.05 39.55 40.63 38.26 37.67 34.72 32.46 33.94 32.36 33.17 34.62 38.21 43.27 42.22 36.36 40.40 38.07 33.75 40.85 47.84 49.10 51.97 43.47 44.37 41.17 35.50 36.05 37.18 42.03 50.74 50.50 50.87 51.93 52.37 61.26 63.83 66.05
38.60 36.43 45.69 43.66 30.54 31.59 35.69 37.82 40.96 39.38 38.72 37.69 35.96 35.92 35.66 32.64 29.80 35.21 37.48 42.34 42.80 41.26 38.05 39.97 37.66 30.40 37.06 39.81 44.89 43.29 49.17 43.06 40.59 39.03 37.06 38.99 41.60 49.26 49.58 51.20 52.94 53.41 56.57 64.79 66.37
37.84 32.92 38.05 39.20 38.52 33.34 33.17 34.93 35.74 42.22 40.37 39.40 37.27 36.17 33.68 30.60 34.32 32.98 35.80 40.39 42.02 41.16 43.39 41.75 35.81 33.51 29.71 35.82 41.20 41.07 45.37 45.60 45.05 40.57 40.01 41.20 42.77 46.84 49.51 50.90 52.03 52.94 56.15 62.63 65.91
37.64 33.32 36.60 31.86 34.34 35.46 35.64 35.80 35.19 35.10 40.28 40.50 36.88 35.96 32.68 28.88 29.52 32.00 36.65 37.92 40.03 41.75 40.55 37.82 31.85 32.94 35.17 38.61 41.23 42.78 46.62 46.62 43.03 43.58 42.20 43.43 44.14 46.49 48.19 52.04 52.06 53.68 55.78 60.84 65.01
36.52 35.60 39.65 37.40 38.65 35.83 35.64 34.61 35.57 37.55 37.55 35.86 35.61 37.20 37.32 29.08 31.99 30.78 34.91 35.03 34.94 38.84 36.58 37.82 31.16 32.89 32.17 42.84 44.83 44.83 48.56 48.13 46.96 45.73 44.65 43.89 44.82 48.86 50.89 54.54 54.63 55.57 56.94 61.20 64.54
42.22 42.64 40.54 38.65 37.05 35.30 35.17 36.89 36.69 37.60 39.22 40.44 38.48 36.66 34.73 36.06 38.28 39.19 39.88 39.04 38.54 37.40 36.14 34.47 30.85 29.26 29.21 41.79 45.43 41.57 46.13 47.90 47.24 47.44 47.04 43.09 45.94 50.72 52.89 53.76 53.46 55.11 57.54 57.47 61.20

GFSSW_sfc_wetblb_057.txt.gz
Wetbulb
56.42 56.19 56.31 56.28 56.48 56.68 56.61 56.82 57.03 57.22 57.36 57.51 57.52 57.54 57.72 57.27 57.46 54.69 48.89 53.48 55.81 64.21 70.24 62.64 68.41 65.56 68.09 66.24 68.20 68.91 57.88 54.57 56.79 57.12 58.50 63.49 62.85 66.37 67.86 64.63 66.43 66.15 63.49 65.56 67.16
56.15 56.06 56.13 56.18 56.35 56.49 56.55 56.54 56.71 57.03 57.04 57.29 57.09 57.50 57.37 57.05 52.93 50.46 56.09 62.76 63.68 68.54 67.97 65.30 62.96 62.93 62.65 63.97 64.99 62.58 57.33 58.46 62.27 60.88 59.47 63.16 64.08 65.12 64.09 64.03 63.21 62.89 65.17 66.92 66.64
55.96 56.05 56.07 56.07 56.22 56.31 56.41 56.52 56.58 56.79 56.89 56.90 57.03 57.53 57.72 56.01 49.01 50.62 64.36 63.13 66.70 67.45 67.91 65.32 61.73 58.39 55.73 59.67 62.90 62.76 58.55 61.81 62.78 61.97 63.31 62.82 63.07 66.30 63.90 61.34 62.65 60.79 63.28 65.41 65.13
55.59 55.74 55.67 55.81 56.20 56.26 56.20 56.40 56.42 56.35 56.37 56.67 56.65 57.65 56.70 52.43 42.01 55.79 71.87 65.43 67.91 62.51 59.21 57.10 55.81 51.49 50.04 52.35 57.78 58.03 62.32 63.98 63.71 63.83 62.92 61.73 63.00 64.51 65.04 64.62 66.01 64.34 65.30 65.06 64.42
55.59 55.71 56.10 56.11 55.94 56.31 56.60 56.41 56.45 56.10 56.20 56.32 56.40 57.44 53.34 46.23 46.54 55.42 70.94 66.17 64.31 56.88 55.17 52.23 49.54 48.94 48.40 50.38 54.79 56.32 59.40 61.46 63.31 62.90 62.95 63.40 63.00 64.20 65.08 66.36 66.16 65.08 65.48 64.68 65.46
56.03 56.21 56.13 56.13 56.22 56.37 56.34 56.07 56.13 56.07 56.84 57.28 56.35 57.98 50.02 40.34 52.64 56.58 63.27 62.24 60.75 56.34 53.42 52.00 49.40 49.73 48.08 49.16 53.14 55.78 56.67 57.92 59.92 60.16 62.14 61.75 62.92 64.39 65.34 65.34 64.54 63.93 63.88 64.88 66.27
55.76 55.94 55.90 55.97 56.10 56.19 55.94 55.44 55.80 56.60 58.63 58.28 57.19 55.68 49.96 46.79 55.87 55.83 55.46 58.69 60.16 56.20 51.84 53.50 51.99 50.36 49.05 48.77 53.70 53.74 51.84 54.24 56.95 59.21 61.36 62.61 60.00 62.11 65.14 63.99 62.56 62.89 63.11 65.02 66.49
55.73 55.72 55.58 55.46 55.60 55.43 55.07 54.53 55.60 57.47 57.02 57.26 58.74 55.28 47.28 56.44 56.28 56.97 54.42 53.56 60.18 58.08 52.19 54.84 52.76 48.87 47.50 49.75 49.63 49.31 49.15 45.24 52.93 58.01 61.93 60.87 53.68 63.20 64.84 62.63 61.22 62.27 63.12 64.43 65.90
55.16 55.09 55.01 54.93 54.79 54.28 53.66 54.60 56.57 58.11 59.31 59.40 53.64 50.11 46.39 59.01 54.38 53.64 55.16 54.67 57.70 55.68 53.66 57.13 51.04 45.66 46.60 44.30 41.31 41.86 41.01 46.35 50.37 58.13 60.33 58.76 56.76 63.41 64.91 63.42 61.26 61.53 62.47 64.25 65.54
54.77 54.43 54.37 54.12 53.75 53.30 53.12 54.84 56.08 58.53 58.19 58.08 56.94 46.14 47.48 45.58 48.13 50.06 51.99 56.65 54.13 53.18 51.72 48.50 45.81 41.47 39.76 39.75 38.89 38.65 41.41 44.55 47.55 56.04 58.85 56.94 56.75 62.94 64.03 63.77 62.65 62.37 62.89 64.17 65.47
54.49 54.06 53.67 53.26 52.81 52.46 50.41 43.03 41.37 39.46 41.21 37.94 40.65 45.46 45.26 47.23 48.94 48.89 49.74 53.24 52.56 48.17 42.77 45.47 39.93 39.58 42.51 44.34 44.36 44.83 45.45 46.71 50.24 56.64 57.09 56.42 57.06 61.48 63.20 63.34 62.82 63.05 63.59 63.73 65.08
54.00 53.61 53.26 52.61 52.21 52.26 46.88 42.37 43.40 44.23 35.90 43.48 43.89 43.49 45.34 43.66 42.88 47.34 48.51 49.84 49.37 44.31 46.00 42.35 40.11 44.56 45.28 45.32 44.36 44.03 42.32 43.85 49.23 54.24 56.77 56.21 55.90 61.21 63.04 62.86 63.50 63.26 63.73 64.46 64.84
53.71 53.26 52.56 52.04 51.75 47.48 43.64 43.26 46.68 41.39 33.76 39.37 42.49 42.94 43.65 42.75 42.12 45.53 47.19 46.47 46.75 45.26 45.77 42.85 44.97 47.92 46.24 44.10 43.80 43.26 42.62 43.52 46.11 51.40 55.37 54.16 53.89 57.63 61.76 63.91 64.37 64.82 65.25 65.58 65.02
53.52 53.01 52.04 51.23 45.55 44.17 44.23 45.29 46.22 43.59 29.85 37.33 40.20 43.41 43.80 44.03 40.97 48.80 48.51 45.07 45.15 45.33 46.64 45.10 49.81 48.05 45.65 44.41 45.50 39.90 47.48 47.63 47.60 46.34 43.63 55.16 45.30 53.80 57.88 59.98 60.59 63.46 64.58 65.37 65.71
53.27 52.58 51.37 50.94 42.42 42.40 46.29 46.36 45.12 40.66 23.51 41.79 40.05 45.77 42.73 39.72 41.79 44.02 48.69 45.91 41.37 42.40 42.39 44.14 46.51 46.35 45.03 45.91 48.25 45.03 49.20 47.87 47.64 44.00 43.39 48.93 47.96 50.31 56.65 56.17 58.55 60.34 63.63 64.81 66.22
52.68 51.96 51.34 46.73 43.64 45.35 46.84 44.38 40.73 31.04 25.11 37.28 40.05 38.70 38.93 39.78 40.89 44.09 43.50 46.69 47.15 43.96 44.43 43.67 48.82 48.98 48.64 50.53 50.71 51.33 47.54 45.85 44.38 42.04 38.17 44.60 46.00 42.49 52.51 55.53 58.04 60.81 61.98 63.76 65.24
51.61 50.55 49.54 49.59 41.60 46.73 45.27 39.55 29.94 24.95 37.60 34.66 33.85 36.93 36.21 35.26 38.16 40.26 39.48 39.19 36.96 34.90 35.17 41.51 44.78 48.02 50.42 47.49 50.45 49.75 42.30 34.89 33.96 34.62 37.69 43.41 43.11 46.87 55.36 58.65 59.34 60.06 61.54 62.76 64.97
50.54 49.53 47.64 49.98 48.59 46.98 40.69 34.93 24.19 34.70 32.09 36.39 35.88 35.97 34.04 36.31 34.81 37.40 35.65 34.48 40.04 38.04 34.69 32.01 36.08 45.01 48.39 47.60 46.20 46.35 42.85 35.30 29.93 31.60 36.26 43.16 38.44 44.10 54.59 60.41 61.46 62.18 63.00 63.47 64.31
49.99 43.55 43.86 46.72 49.26 44.04 36.98 26.35 26.96 32.46 36.03 35.00 33.69 31.67 30.42 35.37 35.70 34.79 34.05 35.54 39.34 39.00 32.89 32.90 34.19 43.21 45.77 49.46 50.33 46.65 43.68 46.24 37.04 32.79 35.76 41.45 41.17 47.23 51.88 56.55 59.49 60.58 61.70 62.12 63.49
44.83 39.41 41.20 48.73 46.12 40.04 33.33 30.09 31.59 38.21 37.95 35.87 29.22 32.63 27.46 30.52 31.51 30.17 32.43 38.15 38.83 40.78 40.03 36.75 31.18 39.51 43.57 48.01 49.04 49.43 47.98 40.40 37.29 31.73 29.94 34.78 37.58 42.83 46.70 51.42 56.05 58.45 60.34 61.65 63.19
39.09 36.80 44.49 48.60 42.84 36.02 28.83 29.12 36.13 40.44 40.35 34.69 31.97 29.77 29.24 29.76 29.83 29.69 32.47 38.06 40.59 39.64 40.33 37.41 35.75 36.00 41.36 41.86 43.65 44.44 45.01 42.55 43.23 38.01 37.44 30.73 37.59 44.14 47.09 50.50 54.41 57.87 60.43 61.80 62.63
36.87 31.72 44.01 44.61 35.30 32.30 30.85 34.78 39.88 38.77 40.27 37.05 35.65 32.86 30.65 31.88 29.48 30.73 32.18 36.44 42.14 40.54 35.12 39.85 36.99 33.71 35.77 44.57 45.25 43.05 44.81 41.60 42.65 36.39 34.19 36.03 41.69 47.70 47.92 49.17 51.57 57.58 60.39 62.35 63.34
38.08 34.82 43.47 41.76 29.48 29.76 33.91 36.32 38.70 38.24 38.79 36.71 35.38 35.27 33.38 30.17 27.58 32.53 35.94 41.73 41.91 40.19 37.00 39.18 36.21 28.87 34.18 37.40 41.77 40.21 46.54 47.67 43.90 38.08 36.13 39.76 41.25 47.28 46.80 48.48 48.79 49.92 53.86 61.12 63.08
39.81 32.01 36.04 36.82 35.11 34.12 32.79 33.93 35.44 41.39 39.85 39.25 37.27 37.56 32.78 28.96 31.42 31.18 34.56 39.88 41.29 39.92 43.25 41.63 35.84 31.10 28.57 32.27 35.91 34.33 37.53 40.95 43.26 41.95 37.91 41.22 40.97 45.66 47.46 47.66 48.51 50.16 51.88 56.21 62.65
35.79 31.69 34.51 30.98 31.75 34.90 36.69 34.40 33.63 34.39 40.28 40.12 36.58 35.90 33.15 28.37 28.78 29.54 33.31 34.94 39.40 41.51 40.63 38.02 32.13 32.94 33.17 34.91 35.77 35.56 36.41 38.46 38.15 42.06 41.89 43.54 40.70 44.88 46.27 47.55 49.10 53.07 52.87 53.65 60.67
35.21 34.84 35.99 37.11 38.55 36.68 35.95 34.18 34.43 37.41 36.59 35.61 35.22 37.03 36.66 30.48 30.16 27.97 30.73 31.22 33.45 36.27 36.80 37.90 31.92 33.97 30.34 34.90 35.60 34.48 39.00 41.17 42.45 44.30 42.33 41.70 42.80 46.14 46.64 51.32 53.93 52.79 52.45 55.38 61.30
42.37 44.62 40.95 38.94 37.50 35.62 35.71 36.33 36.24 37.47 37.80 39.80 39.03 36.48 35.06 36.33 38.05 37.24 36.02 35.51 36.22 34.74 34.62 34.77 34.07 29.68 25.23 36.68 40.02 38.14 41.29 42.60 45.46 44.80 44.49 40.90 44.24 48.23 53.41 56.33 56.61 56.64 54.67 57.12 62.48

GFSSW_sfc_wetblb_063.txt.gz
Wetbulb
56.90 56.94 56.85 56.91 57.25 57.32 57.60 57.71 57.64 57.62 57.94 58.15 58.06 57.80 57.19 57.17 56.47 54.94 49.64 55.03 56.97 64.24 68.81 71.73 70.11 69.17 68.92 67.74 68.42 67.29 61.05 58.14 58.84 58.79 60.75 65.17 63.71 67.72 67.35 63.92 65.41 65.58 65.38 67.49 69.92
56.83 56.75 56.54 56.72 56.75 57.09 57.20 57.33 57.36 57.51 57.53 57.71 57.65 57.50 57.33 57.30 53.30 50.91 57.49 60.49 62.69 67.03 68.92 67.02 64.50 66.83 64.95 66.04 67.08 64.97 60.09 59.04 63.04 63.24 61.97 64.20 65.22 66.39 64.31 63.41 63.50 64.39 66.87 68.62 69.70
56.27 56.41 56.24 56.32 56.47 56.69 56.80 57.05 57.18 57.38 57.40 57.46 57.46 56.74 56.96 56.32 49.09 50.45 62.77 68.53 64.01 67.74 67.54 67.91 66.03 64.56 61.71 65.19 65.15 64.01 59.78 62.95 63.63 63.74 65.23 65.20 64.94 67.31 64.70 62.78 64.53 63.73 65.42 67.40 68.57
55.93 55.69 55.97 55.98 56.09 56.27 56.54 56.68 56.77 56.78 57.09 57.32 57.21 56.80 56.69 54.35 43.72 54.28 68.01 68.04 65.62 65.71 66.25 62.86 63.25 59.29 58.36 59.17 64.49 60.24 63.47 64.86 65.02 65.84 64.61 63.55 67.20 65.52 66.04 66.19 68.20 67.15 67.17 67.61 67.27
55.61 55.89 56.04 56.06 55.72 55.94 56.15 56.13 56.25 56.29 56.80 57.32 57.39 56.29 54.77 48.46 48.16 57.62 65.71 64.64 63.91 65.18 62.20 59.24 58.86 57.68 53.93 57.71 59.73 60.90 61.72 63.57 65.14 65.29 64.40 64.69 64.98 65.77 65.95 67.74 68.18 67.60 67.07 67.06 66.66
55.79 55.99 55.83 55.85 56.05 56.20 56.06 55.51 55.57 56.04 57.15 58.14 57.59 56.99 52.26 43.96 53.95 58.48 62.61 61.92 62.83 65.05 60.65 60.89 58.56 58.68 55.74 56.94 56.20 58.79 59.49 62.03 62.19 62.66 63.65 61.73 62.92 66.05 66.50 67.30 66.43 66.17 66.28 67.26 66.99
55.59 55.59 55.41 55.47 55.75 55.65 55.23 55.11 55.28 56.43 58.02 59.35 57.90 55.68 50.48 48.45 57.24 58.85 59.23 61.16 63.37 61.80 59.35 59.58 61.27 57.29 55.97 52.40 57.56 57.27 54.44 55.71 56.20 58.15 60.85 63.08 61.03 62.90 66.53 66.73 65.33 65.38 65.99 67.20 67.50
55.28 55.37 55.25 55.37 55.53 55.17 54.75 54.40 55.56 57.47 58.69 58.33 59.25 55.86 49.79 57.31 59.30 58.46 57.50 60.36 61.78 62.06 58.63 57.63 58.04 56.56 53.14 54.04 51.75 50.31 50.75 47.51 54.31 57.06 60.87 62.42 57.07 64.11 66.35 65.58 64.58 65.05 65.30 66.32 67.47
54.99 54.95 54.89 54.81 54.63 54.48 54.01 55.00 58.21 58.84 58.88 59.17 56.50 53.57 45.73 58.47 50.26 51.56 55.64 53.10 59.75 59.78 57.87 57.84 56.00 52.67 51.68 49.52 48.23 48.89 44.39 46.15 49.44 58.01 60.84 61.03 57.78 64.27 66.08 65.54 64.50 64.74 65.08 65.50 66.98
54.51 54.43 54.47 54.30 53.95 53.45 53.58 55.80 60.44 59.42 58.76 58.66 56.40 49.18 49.16 45.99 49.10 50.43 52.32 59.23 56.56 55.09 53.02 52.16 52.66 48.48 48.37 47.57 41.28 44.80 44.95 48.23 47.56 55.67 59.40 59.46 59.11 63.36 64.79 64.67 64.21 64.73 65.01 65.21 65.87
54.55 54.38 54.13 53.87 53.27 52.70 51.97 49.94 47.72 46.98 47.72 43.81 44.15 43.93 46.37 48.85 49.80 48.86 51.40 56.55 55.56 51.78 46.29 49.91 45.19 43.49 45.80 47.91 48.06 48.04 48.04 46.95 52.05 55.10 57.52 58.09 59.05 62.37 63.85 64.37 63.77 64.26 64.69 65.04 65.76
54.38 54.15 53.91 53.19 52.93 52.55 50.36 48.13 47.49 47.72 42.81 45.25 44.53 44.77 46.85 47.29 45.47 47.29 52.59 52.61 51.97 47.84 48.47 45.42 43.01 47.14 48.06 46.93 46.49 46.67 46.79 47.76 51.43 55.06 57.26 57.87 57.79 61.14 63.58 63.66 64.59 64.16 64.39 64.31 65.86
54.21 53.74 53.07 52.50 52.32 50.53 48.71 48.35 50.78 47.57 41.74 43.23 45.17 45.17 45.54 46.74 44.04 44.68 48.65 47.56 49.97 47.92 47.76 45.59 46.72 48.68 46.20 45.30 44.62 45.45 44.83 46.32 48.27 51.05 55.52 56.61 55.09 58.80 63.40 64.65 64.72 65.42 65.63 64.13 65.78
53.97 53.52 52.53 51.47 49.57 47.83 47.29 49.33 50.27 48.26 39.48 39.93 42.51 44.77 46.52 45.43 42.56 47.81 51.44 47.27 46.37 47.46 48.30 48.08 51.22 46.98 46.05 44.61 45.69 42.66 47.52 47.12 47.18 47.49 45.93 55.80 48.74 56.53 61.08 62.21 63.80 64.46 64.51 64.93 65.63
53.84 53.02 51.92 50.85 48.79 47.95 49.59 50.74 47.47 44.82 31.26 41.02 41.84 47.97 46.11 43.32 43.78 44.34 52.04 48.71 44.16 44.63 46.22 47.06 47.87 47.24 45.22 45.38 46.98 44.59 47.44 46.22 46.74 46.33 47.15 49.02 49.96 54.14 59.60 59.97 62.48 64.77 65.64 65.73 66.50
53.21 52.19 51.60 49.90 48.44 50.62 50.80 48.95 46.49 37.86 29.89 37.72 41.61 40.64 40.93 41.99 42.60 44.86 47.11 49.96 49.09 45.70 46.55 46.44 49.00 50.37 49.96 49.52 47.98 48.59 47.54 46.74 46.33 44.71 39.36 46.69 48.21 51.07 55.79 59.44 62.49 65.20 66.44 67.09 67.20
51.84 50.90 50.08 50.74 47.46 51.85 49.78 46.69 37.51 32.30 39.63 35.82 37.15 39.77 38.62 38.23 39.58 41.20 42.42 41.95 41.34 39.49 40.08 43.49 45.62 48.66 50.13 48.16 49.25 47.28 44.45 39.55 38.22 38.18 37.27 46.10 45.72 49.06 56.20 60.94 62.56 64.31 66.16 67.50 68.33
50.60 48.28 48.47 51.07 51.72 49.63 47.79 42.98 31.64 35.82 35.37 39.13 38.60 38.48 36.21 38.08 38.09 38.60 39.66 38.71 41.99 41.30 40.82 39.01 38.16 45.07 46.28 47.51 46.38 46.60 46.15 40.75 35.32 37.18 39.75 45.69 43.25 48.60 55.57 57.36 63.20 65.29 66.78 68.04 68.40
49.37 46.86 48.97 50.23 50.13 48.45 46.51 35.89 35.06 36.14 38.20 36.88 37.70 34.67 34.97 36.90 37.68 36.90 38.21 38.59 40.56 40.63 37.40 38.40 38.39 44.09 45.88 46.75 47.92 46.79 43.79 48.49 43.30 44.00 41.98 43.88 46.96 52.05 55.46 56.69 58.06 60.31 64.49 66.51 67.91
46.03 43.86 47.52 50.24 47.52 47.23 42.93 35.39 36.66 40.41 40.95 38.80 33.80 36.58 33.06 34.66 35.03 35.55 35.31 40.95 39.77 41.43 43.10 38.46 32.62 39.98 43.84 46.47 48.35 47.38 50.70 43.20 44.17 36.97 36.77 42.68 44.39 45.13 51.19 54.16 57.29 58.40 61.04 64.52 67.28
44.80 44.57 48.70 49.20 48.91 44.86 37.55 35.63 38.03 42.18 42.42 37.96 36.02 34.95 35.37 34.36 35.35 34.76 35.10 40.01 42.15 40.76 42.41 40.02 36.46 36.05 40.18 42.13 44.61 44.86 44.53 47.02 47.52 44.95 39.91 38.89 43.59 52.75 52.72 55.94 56.60 58.35 60.37 63.38 65.20
43.27 39.73 49.07 48.16 41.79 38.88 36.76 36.65 38.92 40.02 42.84 40.76 39.27 38.22 35.96 36.11 34.54 34.71 34.93 38.22 43.40 42.84 37.44 40.66 37.77 32.66 35.19 41.04 45.25 43.96 43.19 46.09 42.72 42.60 45.80 44.28 45.01 53.72 55.90 56.46 58.09 58.96 60.84 62.99 65.62
40.00 40.60 48.37 48.46 36.05 35.69 36.83 36.73 38.32 38.55 39.23 39.12 37.85 38.49 38.39 35.58 32.28 35.74 36.98 42.40 43.33 41.90 39.33 41.33 35.39 30.43 34.06 40.06 43.04 40.56 43.38 43.80 43.89 45.77 43.91 42.28 44.20 55.49 56.42 55.82 57.08 57.74 59.58 62.46 65.37
42.06 38.79 42.85 42.83 40.80 37.86 34.95 34.95 35.48 40.52 39.53 40.81 39.34 40.47 37.55 35.61 37.49 33.96 36.02 40.92 43.18 42.48 44.80 43.59 36.52 33.48 30.03 33.74 36.36 35.43 38.23 41.02 39.97 40.90 43.37 45.36 48.53 52.91 54.44 55.65 57.48 58.07 57.79 58.25 63.90
41.31 38.34 39.67 36.48 38.44 37.67 37.57 36.06 33.84 34.37 39.76 40.00 38.26 37.78 36.07 33.42 34.15 33.09 36.07 38.45 40.49 42.82 43.08 40.52 32.87 35.00 35.71 36.09 35.98 35.42 35.65 37.98 38.06 40.53 40.49 46.44 47.92 52.33 55.48 56.51 59.07 60.02 58.15 59.33 59.49
41.67 40.93 41.72 38.64 39.44 37.63 36.74 36.03 34.44 36.31 36.25 35.21 34.75 37.07 37.19 32.94 34.85 32.56 35.09 36.11 36.69 40.83 40.27 39.81 33.23 35.10 32.73 36.23 36.70 34.13 37.08 38.53 39.77 40.92 41.63 43.82 45.88 53.01 55.50 60.23 57.85 59.72 60.93 61.78 63.16
44.83 45.64 41.87 38.88 38.50 36.87 36.12 36.45 36.66 39.20 38.52 39.28 38.15 36.56 35.17 37.05 39.98 40.50 40.78 40.80 40.12 37.94 38.04 36.22 33.99 32.41 28.78 35.41 35.75 32.89 37.70 39.83 41.72 44.70 44.29 43.07 49.48 54.06 54.82 57.75 56.26 56.67 57.88 59.10 61.84

GFSSW_sfc_wetblb_069.txt.gz
Wetbulb
57.54 57.58 57.71 57.60 57.66 57.79 58.00 58.17 58.32 58.55 58.79 58.96 58.96 58.74 58.41 57.84 57.51 59.05 56.04 60.14 61.98 65.57 67.35 67.76 68.52 69.17 70.33 69.13 70.12 68.86 63.52 60.99 59.02 61.53 62.45 69.07 67.69 70.48 71.36 68.45 68.98 69.34 70.66 71.62 72.89
57.10 57.16 57.28 57.23 57.34 57.64 57.68 57.97 58.08 58.25 58.44 58.59 58.61 58.55 58.30 57.80 58.75 58.08 62.09 62.78 62.98 64.14 66.98 66.40 65.88 67.45 66.54 67.04 67.93 65.56 63.93 60.04 64.64 65.73 65.26 68.23 67.70 69.77 68.49 68.20 66.99 68.81 71.75 72.09 72.33
56.72 56.50 57.02 56.95 57.12 57.44 57.54 57.82 58.03 58.11 58.00 58.17 58.45 58.55 58.20 58.19 58.63 58.54 65.64 63.39 66.33 65.03 68.39 68.15 67.50 67.09 64.26 65.67 66.35 64.80 61.17 65.65 65.82 67.55 68.05 67.93 67.84 69.76 67.49 65.96 68.23 68.34 69.83 70.41 70.04
56.33 56.49 56.51 56.73 56.94 57.17 57.42 57.44 57.50 57.63 57.52 57.89 58.39 58.60 57.80 59.82 51.69 60.36 65.84 67.18 69.61 66.17 67.91 66.86 65.62 63.34 61.80 61.68 65.94 62.30 64.89 65.87 65.68 67.90 67.12 66.50 68.59 68.06 68.20 65.19 70.94 71.26 71.27 70.13 69.95
56.40 56.77 57.08 56.52 56.57 56.93 57.13 57.00 56.84 57.02 57.30 57.79 58.63 58.58 58.30 57.03 54.03 60.48 68.71 68.37 67.69 63.06 65.95 64.97 63.18 62.77 59.35 60.79 62.74 62.36 64.13 64.01 66.64 68.11 67.86 68.21 67.26 65.97 67.08 70.67 71.91 71.65 71.14 69.98 70.58
56.52 56.63 56.78 56.90 56.75 56.73 56.66 56.63 56.54 57.08 57.48 58.77 59.30 58.50 59.00 52.88 57.60 60.53 64.14 66.01 64.61 60.78 63.43 64.95 62.76 63.84 60.38 59.08 59.05 61.11 63.12 63.48 65.14 67.85 66.44 65.79 66.77 68.18 68.67 71.46 71.05 70.63 70.39 70.80 70.78
56.34 56.60 56.57 56.67 56.49 56.27 55.93 55.84 57.54 58.04 59.32 59.72 59.93 59.63 58.67 54.43 59.38 59.70 63.09 63.42 63.59 61.90 62.24 64.98 63.99 62.00 59.67 56.72 59.59 59.49 57.00 59.78 62.01 66.63 65.83 67.27 63.45 65.18 69.67 70.98 70.18 70.12 70.44 70.93 70.94
56.15 56.37 56.47 56.38 55.93 55.54 55.18 55.28 58.32 59.03 59.06 59.55 59.61 62.39 54.89 57.44 59.50 57.34 61.19 62.72 64.93 65.60 64.93 65.66 63.96 60.47 59.82 58.68 55.41 54.91 56.52 54.46 59.21 63.52 65.25 65.51 59.94 65.57 70.94 69.85 69.22 69.87 69.78 70.20 70.72
55.89 56.01 56.01 55.89 55.50 55.21 54.78 55.09 59.79 59.74 59.41 60.06 61.94 61.43 52.15 57.90 54.62 56.22 59.15 60.99 63.35 65.37 64.37 63.61 61.95 58.48 58.73 53.71 51.97 52.36 50.10 52.73 55.79 62.15 62.30 62.44 60.58 60.70 70.35 69.67 69.00 69.58 69.54 69.88 70.34
55.51 55.32 55.30 55.17 54.70 54.21 54.17 54.56 59.63 59.72 60.79 62.47 60.95 55.58 53.03 51.40 53.60 55.66 57.78 61.26 61.68 62.47 59.41 59.48 57.86 54.57 55.27 52.85 47.11 48.76 48.75 51.68 53.23 57.87 59.20 59.92 61.19 60.41 68.52 68.89 68.88 69.54 69.60 69.42 69.74
55.26 54.97 54.87 54.62 54.01 53.37 54.63 58.26 57.85 55.93 55.77 50.45 51.24 50.40 50.90 54.25 55.55 55.03 58.68 60.49 60.61 60.12 53.22 56.16 53.02 49.99 53.15 54.54 53.06 52.26 51.33 50.05 54.04 57.65 58.13 57.97 61.90 63.06 67.84 68.26 68.49 69.15 69.41 68.93 70.14
54.95 54.66 54.38 53.94 53.42 53.01 55.44 54.05 53.00 54.01 50.02 51.60 50.90 51.33 52.24 53.65 50.55 54.19 60.29 56.53 55.24 54.15 56.30 53.26 49.46 53.67 54.14 53.97 52.51 51.70 50.72 50.88 52.84 56.21 56.64 58.71 59.05 63.60 67.05 67.43 68.55 68.98 69.46 69.68 70.21
54.85 54.48 53.92 53.27 52.89 54.80 56.03 54.20 57.63 56.39 50.11 50.32 50.97 50.19 50.73 52.47 49.84 49.55 54.79 57.06 54.20 52.09 53.48 51.79 52.46 54.28 53.05 51.96 50.76 51.04 50.43 50.67 50.96 53.79 56.32 55.87 58.22 61.97 64.70 67.84 68.64 69.85 70.65 70.80 69.80
54.62 54.13 53.27 52.08 51.85 57.61 55.83 57.63 57.88 56.29 46.95 47.11 47.99 49.74 50.97 51.07 48.23 51.62 53.62 53.58 52.46 51.56 51.49 51.86 54.28 52.46 51.92 50.47 51.89 49.11 52.36 51.95 50.88 50.62 49.33 55.89 49.90 59.85 61.04 65.15 66.49 68.07 69.49 70.25 70.62
54.29 53.53 52.29 50.69 57.64 56.03 56.13 58.66 56.75 54.83 38.32 47.02 47.58 52.59 50.62 48.92 49.50 49.51 53.39 52.34 48.93 50.37 51.67 50.79 51.09 50.89 50.59 51.17 52.17 50.20 53.23 51.64 50.92 49.88 50.60 52.57 50.92 56.48 62.66 60.98 65.04 67.07 68.62 70.03 71.16
53.53 52.65 52.06 56.62 58.53 57.34 58.49 58.21 54.58 44.26 38.16 43.77 47.05 46.47 46.86 47.68 48.02 49.28 49.78 52.35 52.38 49.47 51.33 50.93 55.35 53.79 52.11 53.65 53.55 53.65 51.50 51.59 51.46 49.32 44.58 48.84 50.42 52.56 57.34 61.99 63.60 66.81 68.17 69.78 70.88
52.07 51.08 52.38 57.71 55.52 58.42 58.36 55.17 44.99 41.06 47.11 43.65 44.23 46.05 45.65 45.85 46.05 46.41 46.99 47.63 45.82 43.91 44.15 47.44 48.79 52.90 54.88 51.32 53.67 52.30 50.27 44.67 43.58 43.69 42.98 49.85 47.60 52.51 58.22 61.73 64.16 65.97 67.77 69.40 70.69
50.68 49.58 54.77 57.26 58.60 57.91 56.42 50.13 40.95 45.34 44.68 46.23 44.81 45.03 43.65 46.08 46.44 45.56 45.80 45.11 48.39 47.16 45.34 43.37 43.08 48.33 52.42 51.65 50.69 50.91 50.23 45.93 41.15 42.84 44.75 49.82 46.22 49.20 57.18 61.18 63.50 66.34 68.16 69.43 69.97
50.06 57.95 58.74 58.37 58.45 57.19 52.04 45.10 45.84 45.69 46.16 44.66 45.73 43.27 44.43 45.37 44.12 44.65 45.65 45.48 47.09 47.63 43.52 43.49 43.37 50.67 51.05 52.46 52.62 50.97 48.37 52.20 48.13 50.42 47.16 48.56 50.36 53.58 55.17 56.61 60.47 63.52 66.71 67.44 69.48
55.22 56.04 55.62 58.93 59.00 55.38 49.66 44.91 46.39 47.88 47.17 47.05 42.49 45.08 42.71 44.61 42.92 44.45 44.92 46.71 45.64 47.10 48.09 46.13 42.34 49.10 49.98 52.25 53.10 51.50 54.03 47.56 48.03 42.65 42.92 47.97 49.45 48.91 52.77 54.00 57.95 61.82 64.56 66.31 69.41
54.86 53.03 56.58 59.06 57.79 52.92 47.05 47.51 46.84 48.71 47.81 45.38 44.55 44.09 44.48 43.73 44.84 43.70 44.17 46.03 46.68 46.55 47.40 45.98 44.11 44.61 47.96 47.69 47.25 48.82 48.83 50.20 50.51 48.25 44.27 44.39 48.44 55.98 55.27 55.38 56.16 59.52 63.82 65.66 68.07
55.31 50.93 57.11 58.34 51.43 52.52 47.99 46.22 42.58 46.79 48.39 46.58 46.53 45.20 44.04 44.07 42.42 42.76 43.06 45.63 47.64 47.51 44.32 46.76 43.91 40.99 43.49 47.36 49.34 48.82 48.98 49.77 46.74 46.32 48.07 48.20 49.26 57.75 57.52 57.36 57.64 58.60 60.61 63.14 65.88
53.36 53.59 57.19 56.84 47.96 46.95 46.94 45.73 45.91 45.10 45.27 45.26 44.34 45.55 46.58 43.51 39.87 43.14 44.06 47.87 47.02 45.82 44.72 47.24 42.57 38.12 40.59 44.40 46.96 46.49 48.55 49.41 49.77 50.61 48.45 45.56 48.08 58.49 58.48 58.24 59.36 58.68 60.28 62.85 64.29
53.17 50.33 52.68 52.30 51.58 47.16 45.29 43.82 42.88 46.06 45.50 45.28 44.27 45.42 43.75 42.56 44.50 40.83 41.67 44.84 46.62 46.50 46.26 45.97 43.77 41.55 38.46 41.40 44.31 43.27 45.08 48.40 48.64 46.08 46.91 47.98 50.94 54.96 57.00 57.59 58.79 60.31 61.53 61.24 63.89
53.65 48.57 49.27 45.41 46.17 46.61 46.87 44.51 41.87 40.94 45.57 45.71 42.66 41.17 40.40 38.23 40.69 41.09 43.31 44.23 46.05 46.52 46.17 45.72 39.52 42.09 43.04 43.91 43.53 42.72 43.62 45.55 46.09 48.87 46.27 49.61 50.80 55.17 57.01 58.42 59.57 61.18 62.66 62.45 62.96
50.74 50.42 50.47 47.33 45.19 44.25 41.61 38.44 38.40 41.00 41.83 40.46 40.09 41.81 41.42 38.51 40.05 39.22 42.01 41.40 41.71 44.76 44.57 45.88 39.16 41.43 39.83 43.56 42.93 40.74 42.30 42.80 43.61 45.71 46.52 47.83 48.91 55.98 56.97 58.61 60.20 60.76 62.90 63.09 64.66
53.94 53.20 51.14 44.60 43.74 43.36 41.21 39.73 39.32 42.13 43.85 43.80 42.16 41.71 40.45 41.17 44.18 44.93 46.87 46.43 45.89 43.29 41.92 40.67 40.59 38.10 35.52 40.68 41.40 37.89 41.56 42.40 43.54 45.27 45.65 43.46 49.50 54.65 55.15 56.10 58.39 60.88 63.49 64.16 64.78

GFSSW_sfc_wetblb_072.txt.gz
Wetbulb
58.10 58.20 57.84 57.71 57.97 58.06 58.40 58.52 58.80 58.95 59.06 59.15 59.36 59.40 59.23 59.12 58.25 58.03 54.52 60.59 63.46 66.96 65.13 62.83 64.81 66.48 68.88 68.58 69.06 69.09 60.63 59.98 59.82 59.86 61.44 64.51 65.97 70.20 71.33 68.69 69.32 70.53 69.06 70.40 71.67
57.66 57.95 57.60 57.53 57.84 57.92 58.15 58.43 58.64 58.91 58.86 58.88 58.90 59.05 59.12 58.73 57.33 56.15 65.30 67.04 65.36 63.29 57.26 62.03 61.76 65.03 64.30 65.53 66.80 64.70 60.50 61.04 64.28 64.81 60.57 62.77 64.01 67.68 67.72 67.43 66.99 69.00 70.66 71.56 71.47
56.94 57.20 57.42 57.42 57.68 57.80 57.97 58.27 58.38 58.27 58.45 58.62 58.60 58.93 59.00 58.50 56.88 59.00 65.78 64.68 65.94 64.59 60.42 65.99 65.20 64.44 62.20 64.60 64.63 64.73 60.25 63.69 64.48 66.80 64.80 65.65 64.62 68.30 66.80 64.85 66.90 67.51 68.87 70.29 70.24
56.77 56.84 57.00 57.14 57.41 57.49 57.59 57.85 57.65 57.52 57.77 58.08 58.56 59.10 58.90 58.22 53.06 61.05 68.30 68.73 68.69 64.64 59.23 64.64 63.98 61.88 60.91 60.60 64.29 61.85 64.51 63.80 65.57 66.95 67.48 65.47 68.81 65.82 66.58 65.04 67.99 70.46 70.74 70.26 69.24
56.68 56.81 56.79 56.97 56.91 57.13 57.41 57.36 57.05 57.55 58.33 58.04 58.61 59.24 57.27 57.14 56.47 63.60 70.02 68.03 65.61 62.02 59.58 64.51 62.43 62.29 59.78 61.27 62.51 61.61 63.53 64.84 65.84 65.30 67.96 68.26 64.83 64.48 64.48 65.15 66.81 71.03 70.56 69.73 69.69
56.88 57.17 57.14 56.99 57.12 57.01 57.11 57.03 56.70 58.56 58.97 58.71 59.53 59.48 55.85 54.14 58.61 60.48 62.38 66.28 63.09 59.28 61.07 65.70 63.46 64.13 61.38 60.46 59.34 62.12 62.59 63.12 64.58 63.87 67.60 65.39 66.32 66.45 66.68 67.82 69.75 69.85 69.10 69.86 69.74
56.57 56.88 56.84 56.92 56.45 56.50 56.35 56.07 56.40 59.30 60.14 60.59 60.51 59.22 59.68 56.99 59.40 59.82 60.86 63.65 63.42 61.04 58.94 65.84 65.76 62.83 62.18 58.71 60.38 58.99 57.51 59.03 61.47 62.94 66.27 66.71 63.67 64.51 68.14 69.92 68.58 69.09 68.63 69.18 69.89
56.33 56.51 56.47 56.47 56.43 55.89 55.55 55.28 56.04 59.96 60.45 59.96 60.80 60.40 59.06 58.01 59.51 57.53 60.87 62.53 64.45 64.59 60.60 64.49 65.52 61.90 60.89 60.97 56.92 54.84 55.62 53.29 58.12 61.28 64.36 65.99 59.55 65.28 68.23 66.98 67.90 68.80 68.93 69.61 69.76
55.88 56.00 56.16 56.02 55.83 55.34 54.91 55.04 56.57 60.85 61.24 60.54 60.49 60.20 57.22 59.23 55.46 56.73 59.74 60.18 62.71 62.17 63.27 65.07 64.05 60.02 58.11 55.70 52.33 53.12 48.35 51.14 54.60 60.02 61.11 64.05 60.79 65.96 65.96 65.13 67.57 68.25 68.76 69.16 69.29
55.61 55.45 55.44 55.34 55.16 54.44 54.04 54.68 59.37 59.50 61.77 62.22 61.33 55.92 56.48 52.16 54.30 55.99 57.73 59.56 60.20 61.41 61.29 60.14 58.46 54.86 55.03 53.03 46.98 48.88 48.83 50.06 52.30 56.99 59.34 60.36 60.82 62.46 61.60 62.22 62.74 68.08 68.31 69.21 69.01
55.57 55.16 55.02 54.81 54.26 53.60 54.32 58.40 57.12 57.39 57.69 53.90 53.31 53.53 52.07 54.79 55.91 55.40 57.42 58.18 60.19 60.11 54.34 57.67 53.56 50.75 53.01 53.47 54.16 52.11 50.90 49.77 51.61 55.89 56.44 58.29 60.23 60.66 61.19 61.37 62.69 67.36 67.52 68.38 69.20
55.34 54.83 54.59 54.26 53.56 53.09 54.49 54.88 53.81 54.66 49.45 54.20 52.30 51.99 52.91 54.52 51.19 54.65 59.77 56.38 56.40 53.55 55.79 53.14 50.69 55.08 54.81 54.49 53.44 52.90 50.90 50.12 52.86 53.90 55.08 56.27 58.00 60.25 61.22 61.32 62.38 63.14 67.82 68.08 69.24
54.97 54.65 53.91 53.48 53.01 55.14 56.60 55.43 58.77 57.34 49.84 51.93 51.95 51.42 51.51 52.82 50.92 51.27 55.98 56.55 54.34 51.73 53.45 51.09 52.17 54.63 53.66 52.51 51.48 51.81 50.50 50.32 50.53 53.22 53.95 54.76 55.21 58.76 60.72 62.92 64.72 64.06 69.50 68.41 69.60
54.71 54.20 53.48 52.40 52.70 57.29 55.99 58.16 58.96 56.47 46.18 48.37 48.57 50.34 51.07 51.48 48.65 53.16 53.72 53.41 53.61 51.28 52.20 53.07 55.32 53.66 51.92 50.89 52.17 48.74 52.79 51.82 51.06 50.20 47.02 53.68 46.95 59.20 62.20 63.50 62.86 65.82 68.17 68.28 69.22
54.10 53.67 52.53 51.66 54.00 56.32 57.06 59.06 57.65 55.05 37.78 48.57 48.62 53.44 51.72 49.10 50.25 50.06 53.83 52.12 48.51 50.25 51.79 50.24 50.52 51.37 50.89 51.65 53.10 50.39 53.53 52.14 51.29 49.88 49.34 49.68 48.25 51.69 60.95 60.58 59.71 61.39 66.97 68.71 68.80
53.64 53.03 52.03 56.50 55.85 58.75 58.67 58.84 56.08 44.20 37.72 45.05 48.56 47.21 47.27 48.59 48.81 50.38 50.15 52.58 52.82 49.31 50.45 50.19 53.65 53.18 51.94 53.28 53.60 54.10 51.66 51.39 51.39 49.46 44.52 48.05 48.05 50.41 55.61 61.66 60.08 60.39 63.83 68.52 69.06
52.33 51.42 51.24 56.98 55.68 58.92 58.49 55.86 44.93 40.29 49.14 44.38 45.45 47.04 46.77 46.73 47.10 47.03 47.21 47.02 45.25 43.20 43.64 46.50 47.93 51.62 54.30 51.39 52.75 52.43 49.26 43.07 42.52 43.16 42.50 48.84 47.13 50.91 55.92 63.46 63.49 61.48 64.09 68.40 70.41
51.03 50.01 55.29 57.85 59.13 58.46 56.61 50.31 41.24 47.20 46.19 47.90 46.31 46.25 44.41 47.49 46.92 47.18 45.77 44.78 48.18 47.27 44.48 42.73 42.52 47.22 50.60 51.21 50.30 49.77 49.38 44.45 39.06 40.89 43.56 49.46 46.15 49.46 55.25 57.41 66.27 64.04 65.70 66.23 68.43
50.28 58.11 57.06 59.32 59.62 57.90 52.49 44.84 45.57 46.39 47.98 46.60 47.09 44.52 45.24 47.07 45.55 46.32 45.66 45.36 47.64 49.04 43.91 42.94 42.66 49.63 51.20 50.92 52.07 49.73 47.63 51.32 46.60 48.20 45.17 47.78 50.47 53.43 55.68 55.52 57.64 64.50 63.59 64.09 66.64
53.28 57.27 56.71 59.41 59.96 56.09 49.95 44.73 47.42 49.24 48.59 48.17 43.43 46.39 43.61 45.92 44.86 44.83 45.05 47.95 46.56 49.09 49.59 45.80 40.71 47.78 49.40 51.60 51.32 49.78 51.51 46.33 47.74 41.06 40.97 45.88 48.95 49.41 53.61 55.12 56.15 58.43 63.92 64.98 65.47
54.88 54.18 57.69 59.58 58.53 53.28 46.84 47.22 48.83 50.36 49.11 46.27 45.29 44.81 45.49 44.86 45.74 45.00 45.21 47.79 48.20 47.81 48.55 46.45 43.72 43.28 47.17 47.04 46.67 47.87 47.52 48.80 48.97 47.98 42.92 42.32 46.83 56.19 56.78 56.56 56.40 56.84 60.52 65.36 65.48
56.89 50.55 57.82 58.91 51.10 52.65 47.91 47.86 45.18 48.35 49.82 47.67 47.26 45.93 44.58 45.07 43.78 44.12 43.94 46.62 49.46 48.80 44.44 47.59 44.63 40.20 42.92 48.15 50.50 49.78 48.41 48.34 45.86 45.09 47.57 47.53 47.74 57.56 58.90 57.57 57.09 57.59 59.40 64.06 64.83
54.10 54.28 58.25 57.46 46.84 47.85 48.49 47.49 47.70 46.52 47.00 46.58 45.38 47.05 46.85 44.02 40.95 43.68 44.85 48.64 48.55 47.14 44.91 46.98 42.94 38.12 39.96 44.09 47.43 45.02 46.40 48.02 48.26 48.45 47.09 44.82 47.05 57.18 58.64 58.46 58.23 57.93 59.42 62.69 67.59
54.12 49.44 53.80 53.46 52.16 48.60 46.66 45.38 44.47 47.24 46.65 46.47 45.12 46.65 44.71 43.34 45.48 42.19 42.96 45.94 47.52 46.91 49.12 47.61 42.77 40.31 37.38 41.75 44.68 43.54 44.50 46.74 46.20 44.41 45.39 47.86 49.73 53.88 56.54 57.64 59.86 60.44 61.24 61.81 65.91
54.45 49.24 50.50 45.60 46.97 47.46 47.71 46.41 44.06 42.76 46.62 46.56 44.49 43.01 41.71 39.60 41.00 41.12 43.43 44.74 46.57 48.21 46.68 45.23 39.05 41.21 42.46 43.93 44.27 43.90 43.76 44.26 44.38 46.75 44.96 47.33 49.61 53.90 53.97 55.56 59.69 61.36 62.18 63.88 65.05
50.45 50.56 51.26 48.37 48.16 46.27 44.11 42.91 41.44 42.60 43.70 43.16 41.54 43.17 43.31 39.46 40.79 39.31 42.12 42.47 42.22 45.39 44.67 46.36 38.03 41.36 39.28 42.73 42.86 41.76 44.08 43.93 44.42 45.68 47.51 48.68 48.33 54.95 55.33 57.60 58.61 60.42 61.08 64.58 65.80
55.50 55.78 52.60 46.72 46.88 45.72 42.99 42.99 41.87 43.22 45.44 45.02 43.73 42.60 41.40 42.70 45.29 46.31 46.32 45.69 45.50 43.06 42.59 42.35 40.69 38.39 34.57 40.63 41.01 37.59 42.60 43.56 44.32 46.06 46.41 44.17 49.04 53.14 52.40 55.46 56.99 58.98 57.13 60.89 64.90

GFSSW_sfc_wetblb_075.txt.gz
Wetbulb
57.55 57.93 57.94 57.91 58.21 58.34 58.53 58.83 58.98 59.11 59.26 59.37 59.28 59.57 59.57 59.76 59.15 56.25 52.24 58.15 58.44 67.56 65.50 59.86 59.84 62.60 64.08 66.90 68.92 68.78 59.04 55.99 58.80 60.02 58.94 61.94 62.13 66.87 70.26 65.96 67.57 68.30 67.53 68.64 70.18
57.42 57.77 57.72 57.86 57.99 58.08 58.29 58.48 58.74 58.89 58.83 58.96 59.02 59.02 59.34 59.53 55.03 52.93 61.63 67.96 67.88 67.03 56.98 53.88 56.26 60.61 59.21 62.17 63.96 62.00 57.92 59.36 63.58 63.42 61.92 62.85 62.89 63.82 66.21 66.32 65.30 66.44 69.28 70.02 70.34
57.20 57.42 57.36 57.36 57.75 57.82 58.01 58.17 58.30 58.21 58.12 58.30 58.61 58.81 59.39 58.42 52.94 56.65 68.08 69.07 68.89 65.57 56.48 55.18 59.59 59.58 57.72 60.55 60.67 60.68 57.63 63.10 63.92 65.14 65.49 64.72 60.29 63.30 64.36 63.36 65.81 64.70 66.71 68.29 68.83
56.99 56.95 57.06 57.14 57.48 57.55 57.57 57.88 57.85 57.70 58.33 58.68 58.31 58.75 59.23 55.83 49.71 58.87 69.46 69.11 69.53 62.36 56.14 55.13 57.53 56.84 56.13 56.20 60.44 57.58 62.04 63.13 64.10 66.96 65.01 63.03 66.62 65.47 64.55 65.11 68.72 68.36 68.52 68.30 67.62
56.46 56.68 56.87 56.83 56.96 57.12 57.25 57.33 57.19 57.14 59.09 59.29 58.26 59.17 55.64 52.45 53.48 63.31 71.09 70.16 66.01 60.80 55.45 53.20 58.37 58.82 55.59 57.57 59.10 58.41 60.38 62.81 64.24 65.82 65.18 67.63 65.60 62.54 64.41 67.43 68.91 69.34 68.53 67.83 67.55
56.59 56.80 56.95 57.01 56.86 57.12 57.27 56.91 56.61 56.81 59.51 60.14 59.02 59.43 51.93 47.56 57.55 64.71 65.89 64.95 61.42 58.43 55.44 55.71 61.01 62.39 58.51 58.46 57.31 59.75 60.22 60.57 62.05 62.39 65.22 65.30 64.83 62.96 64.75 68.06 68.09 68.38 67.55 68.04 67.87
56.59 56.81 56.75 56.84 56.38 56.46 56.37 56.13 56.04 56.60 59.52 60.94 60.36 58.51 54.66 53.41 59.22 57.42 57.02 62.20 61.95 57.87 53.92 59.25 62.78 61.33 59.66 56.54 59.64 58.59 53.40 55.15 57.33 57.48 61.40 66.53 61.96 63.35 66.85 68.24 67.34 67.17 67.75 67.67 67.83
56.28 56.28 56.38 56.20 56.08 56.09 55.74 55.45 55.55 56.87 59.85 59.84 60.69 57.27 53.39 62.91 56.73 56.28 55.52 56.96 62.89 59.86 56.32 57.96 62.34 61.30 58.35 58.94 57.80 51.42 49.83 46.81 53.42 56.15 59.36 63.87 57.58 64.39 65.60 66.90 65.90 66.37 67.38 67.66 67.48
56.13 56.23 56.07 55.97 55.76 55.37 54.70 54.90 56.27 57.55 60.70 60.58 56.61 54.43 53.86 59.20 52.94 54.77 55.45 57.50 60.84 59.31 58.14 59.74 58.42 56.89 56.70 51.17 48.45 49.47 42.13 45.26 49.75 55.02 56.62 59.74 59.19 63.28 62.64 64.43 64.64 65.71 65.85 66.84 67.47
55.70 55.54 55.37 55.27 54.86 54.25 53.93 55.05 57.62 56.60 59.38 60.69 59.21 51.96 56.19 52.42 51.31 54.22 54.36 56.18 58.13 57.34 56.48 55.09 55.18 51.89 50.68 45.86 41.05 44.89 43.49 45.13 45.75 51.43 53.88 55.04 60.90 63.09 63.66 63.96 61.41 64.86 64.00 66.11 66.84
55.64 55.27 55.01 54.62 54.29 53.55 51.72 51.25 51.97 50.51 53.40 53.45 51.74 54.64 52.08 52.09 53.31 53.54 55.35 53.45 56.25 55.26 50.75 54.55 48.24 45.91 48.21 50.00 50.20 50.12 48.94 46.61 48.52 50.97 50.31 54.17 59.57 62.54 64.07 63.28 63.81 63.07 62.54 65.94 66.75
55.31 55.03 54.56 54.17 53.70 53.06 51.18 48.60 50.44 50.39 45.34 52.24 53.66 52.80 51.73 49.41 48.78 52.74 55.49 50.89 52.93 49.78 53.46 49.77 47.08 52.16 53.81 52.99 51.16 49.39 47.74 47.62 50.18 52.04 47.60 50.25 57.42 60.84 59.78 60.19 61.30 62.22 63.70 65.49 66.91
55.07 54.48 54.02 53.47 52.80 52.68 51.23 52.74 55.37 53.20 44.50 49.40 50.80 48.94 48.65 48.32 47.95 50.66 53.76 53.60 51.90 50.18 51.18 47.30 49.91 54.71 53.15 51.50 49.37 48.17 46.18 47.37 47.41 50.77 50.17 47.42 54.17 56.21 59.39 61.34 62.51 65.15 66.13 64.87 66.78
54.64 54.25 53.55 52.49 50.38 53.06 53.10 54.96 55.17 53.21 38.55 46.07 45.94 48.09 48.84 48.26 45.61 52.41 50.82 48.24 49.94 48.61 49.63 48.68 53.64 52.59 50.32 49.40 49.95 42.87 50.32 50.78 49.44 46.27 40.23 47.19 38.34 53.50 56.89 58.12 61.54 63.53 63.60 64.12 62.35
54.29 53.94 52.79 51.51 47.89 49.82 53.81 54.90 54.04 50.21 31.74 47.26 46.25 50.89 48.71 45.20 46.72 47.22 52.23 48.30 44.92 46.41 46.39 46.21 49.00 49.96 49.38 50.03 50.53 46.87 51.20 49.06 48.43 44.89 41.01 45.30 39.79 44.66 57.74 55.94 58.08 62.06 61.47 62.85 62.73
53.84 53.25 52.13 53.27 50.55 52.64 56.59 54.97 52.65 38.01 34.46 44.11 47.11 45.29 44.42 45.41 46.70 49.41 48.45 48.35 49.52 46.69 46.54 46.12 50.36 48.61 48.23 51.21 51.54 52.30 48.80 47.50 45.31 41.81 36.35 42.36 40.18 43.36 54.99 57.43 58.76 61.54 60.21 63.64 63.19
52.59 51.42 50.36 53.33 51.81 56.40 55.15 51.75 39.00 35.13 46.47 42.79 43.07 45.14 44.19 42.96 45.09 46.11 44.49 42.56 39.99 35.15 36.54 43.22 45.03 48.09 49.73 46.05 49.50 47.83 41.99 34.97 34.40 35.18 36.65 42.27 41.06 43.87 49.61 61.69 61.57 60.92 59.12 60.94 63.62
50.92 50.07 52.48 54.69 56.41 56.74 52.82 44.74 36.44 45.26 43.64 46.50 45.76 45.25 42.95 45.06 43.39 44.98 43.11 40.77 44.50 42.24 38.54 36.12 36.82 43.36 46.93 44.79 44.43 45.27 41.68 36.53 31.17 32.52 37.69 43.30 38.78 44.37 51.06 60.25 62.88 62.58 61.26 62.68 65.50
50.16 54.46 53.53 56.62 57.42 55.72 47.66 39.18 39.98 43.55 46.17 45.41 46.23 43.27 42.23 45.56 44.32 44.03 41.69 41.50 43.85 44.17 36.52 37.35 38.39 46.80 48.12 48.10 47.00 43.88 41.67 44.45 38.92 40.54 38.30 41.18 44.45 49.76 51.37 51.05 61.49 60.96 61.53 62.32 65.63
49.23 52.66 54.98 57.17 57.42 52.97 45.23 42.49 44.34 47.25 47.39 46.67 41.57 44.68 40.77 43.64 43.11 40.81 41.32 45.08 45.00 46.69 44.54 40.67 34.25 42.73 45.95 46.94 46.90 44.36 46.17 38.25 38.71 32.15 33.37 38.61 41.51 42.59 47.55 49.17 55.06 60.90 61.21 64.46 65.68
51.37 51.43 55.23 57.18 55.74 49.46 42.90 44.96 46.81 48.82 48.34 44.56 42.63 41.87 42.11 41.77 42.18 41.42 42.24 44.25 46.94 45.78 45.81 39.62 36.71 38.53 43.19 39.88 40.04 41.98 40.16 40.21 39.77 38.42 36.54 34.67 39.56 48.05 49.67 52.13 52.84 55.30 61.76 64.10 63.59
53.16 48.22 55.57 56.48 47.58 49.29 43.66 45.47 45.26 46.70 48.45 46.42 46.35 44.60 41.96 42.35 40.46 40.49 40.86 43.94 47.39 46.08 40.84 42.94 37.04 33.20 38.35 44.99 46.27 43.95 41.20 41.86 36.46 35.89 39.28 38.48 40.50 53.25 52.53 55.17 56.34 53.35 63.32 64.61 63.11
49.56 52.37 56.40 55.11 42.79 44.24 46.69 45.72 45.57 44.69 44.33 43.83 43.44 44.22 43.98 40.29 36.47 41.47 42.82 46.43 47.16 44.80 40.90 41.37 35.37 30.23 34.10 38.87 40.88 40.71 43.09 42.74 40.13 38.37 36.87 36.83 40.39 53.59 53.56 54.06 55.27 56.53 57.95 63.80 63.56
50.91 45.81 50.50 51.07 49.00 45.18 43.97 43.71 43.04 47.36 44.91 44.74 43.86 44.07 40.95 38.63 41.12 38.95 41.42 45.29 46.80 45.95 49.69 44.36 34.92 32.48 30.01 35.34 39.58 38.25 41.10 42.74 39.08 35.25 37.38 40.14 43.08 47.76 50.48 51.64 53.64 56.48 57.78 59.58 65.39
52.00 45.64 48.23 41.84 43.39 44.51 44.64 43.37 41.55 40.08 44.95 44.93 43.64 41.68 39.35 35.12 37.17 37.42 40.26 41.76 44.35 47.46 44.53 39.96 32.32 35.77 37.96 39.98 40.38 39.70 40.21 40.78 39.32 38.93 33.85 40.24 43.03 48.15 49.64 51.28 53.42 56.92 57.60 57.75 62.87
47.69 46.86 48.75 45.39 47.03 44.05 42.93 40.91 39.92 40.94 42.42 41.11 40.12 41.85 41.49 35.19 37.14 35.94 38.34 38.00 37.60 41.96 39.06 40.61 34.29 36.87 35.59 39.92 40.34 38.12 40.85 41.63 41.44 42.33 40.79 41.61 42.69 50.81 49.79 51.95 52.22 55.15 57.47 56.13 56.54
53.71 54.16 49.86 45.39 44.56 42.05 40.42 41.42 41.63 43.96 44.57 45.14 43.30 41.24 39.77 41.45 43.40 43.29 43.03 41.90 40.26 37.87 37.49 37.75 35.28 32.94 29.22 37.18 37.53 33.50 38.68 40.30 41.60 43.36 41.94 38.02 40.82 47.47 46.41 48.77 50.08 50.58 55.62 54.83 55.57

GFSSW_sfc_wetblb_078.txt.gz
Wetbulb
57.62 57.80 57.84 57.83 58.03 58.35 58.29 58.69 58.90 59.12 59.16 59.16 59.24 59.19 59.19 59.81 59.33 56.31 50.75 54.47 56.15 68.11 69.09 64.42 63.76 60.31 60.68 64.15 67.03 68.23 59.92 54.93 58.32 59.17 59.99 64.24 62.80 65.56 68.49 66.36 67.08 68.20 66.74 67.98 69.37
57.42 57.67 57.58 57.72 57.75 58.05 58.07 58.23 58.53 58.66 58.59 58.80 58.67 58.72 58.96 59.60 54.98 51.85 59.22 65.02 67.60 68.89 54.61 53.01 55.04 56.94 55.93 58.68 62.56 63.16 57.50 58.03 63.09 62.74 61.85 62.28 63.31 65.22 65.85 64.89 65.06 66.30 68.57 69.11 69.26
57.12 57.26 57.33 57.37 57.51 57.55 57.69 57.89 58.03 58.04 58.04 58.43 58.77 58.44 58.82 58.51 51.14 55.82 64.93 68.11 70.09 67.86 56.38 53.75 55.18 55.92 54.69 56.54 58.62 58.60 56.43 61.43 63.95 64.79 65.28 62.28 62.23 65.98 64.23 62.50 65.44 64.11 66.00 67.85 67.83
56.92 57.03 56.93 57.13 57.34 57.43 57.58 57.60 57.44 57.51 57.75 58.74 59.01 58.15 59.23 54.55 47.01 58.18 69.72 69.53 70.20 60.96 54.81 53.13 53.48 52.52 53.25 53.52 58.04 54.07 59.41 61.05 62.85 66.64 64.31 60.70 64.05 63.17 64.62 65.11 68.11 67.24 67.82 67.72 66.69
56.40 56.55 56.64 56.72 56.95 57.03 57.14 57.11 56.83 56.87 57.28 59.96 58.71 58.70 54.93 49.94 52.20 60.97 71.28 69.57 65.33 59.55 53.32 51.51 52.43 54.50 52.51 54.50 57.11 55.51 57.96 60.30 62.55 64.95 65.38 65.27 63.01 63.27 63.96 67.93 69.53 68.88 68.25 67.38 67.55
56.37 56.49 56.64 56.62 56.45 56.62 56.64 56.38 56.28 56.46 57.18 59.94 59.30 59.40 49.70 42.99 58.21 65.45 65.50 64.93 61.38 57.05 54.19 51.88 53.07 59.32 57.32 56.41 55.09 58.12 58.07 58.80 60.30 65.09 65.52 64.43 63.49 60.85 63.71 68.03 67.49 67.70 66.76 67.47 66.18
56.11 56.50 56.67 56.25 56.27 56.13 56.04 55.66 55.84 56.15 57.04 60.23 60.44 57.76 52.14 47.85 59.20 64.93 63.44 60.39 60.05 57.84 52.48 54.95 54.62 56.10 58.53 55.57 58.70 57.98 53.16 52.85 53.36 63.58 64.97 65.47 59.68 58.89 65.78 67.08 66.25 66.13 66.80 67.42 66.51
55.82 56.17 55.99 55.91 55.81 55.68 55.57 55.08 55.33 56.54 57.04 60.36 60.63 56.18 49.32 62.37 60.70 59.73 60.15 57.00 61.22 58.04 55.15 54.89 58.01 56.26 57.09 58.27 55.28 51.01 47.25 43.76 50.13 53.14 64.93 62.75 56.89 63.28 67.14 65.30 65.21 66.20 66.63 66.98 67.18
56.06 56.06 56.10 55.53 55.69 55.32 54.67 54.73 56.00 57.55 57.93 60.52 53.86 51.20 50.93 62.57 51.10 53.10 52.84 52.55 59.67 56.76 54.87 58.42 54.97 51.25 53.20 49.59 45.43 46.33 42.65 44.42 47.38 51.56 60.53 61.71 58.28 63.44 64.94 66.16 64.51 64.92 66.27 66.39 66.58
55.85 55.63 55.46 55.30 54.81 54.16 54.00 54.34 55.27 56.94 58.36 59.91 58.35 49.23 52.91 53.39 50.67 52.85 52.67 54.15 57.46 56.18 55.59 53.52 50.15 46.65 47.50 45.15 38.22 41.81 42.33 42.24 44.02 48.84 50.25 60.30 60.35 62.24 62.66 64.95 65.34 65.32 65.04 66.29 66.26
55.52 55.16 54.91 54.51 54.14 53.48 51.58 47.54 45.60 46.96 50.58 51.10 51.35 52.47 53.28 50.23 50.92 52.06 53.32 51.36 52.49 52.03 46.31 50.78 46.19 43.35 47.86 48.57 48.40 47.09 44.85 44.85 48.97 51.83 47.38 52.16 59.40 59.61 61.36 63.04 63.17 63.82 63.88 63.86 65.92
55.34 54.97 54.55 54.26 53.59 52.98 50.09 44.73 47.58 48.88 43.30 51.05 54.03 53.67 56.15 48.97 46.42 49.23 52.46 47.91 50.81 47.47 49.86 48.04 44.31 50.26 51.97 51.66 49.30 47.74 45.38 44.77 47.84 51.32 47.75 56.92 58.83 61.20 60.75 59.31 62.65 60.79 64.02 64.34 65.33
54.91 54.61 54.05 53.51 52.81 50.69 47.61 49.05 52.86 49.93 41.11 46.01 48.75 48.47 47.68 47.10 45.34 47.84 51.96 50.38 49.70 47.65 49.46 45.66 48.83 53.95 52.33 49.65 48.54 46.28 43.10 44.68 45.15 49.42 47.74 57.47 56.77 59.19 61.23 61.21 61.64 62.72 64.64 64.89 65.38
54.61 54.36 53.69 52.12 48.94 46.52 48.78 51.75 50.88 48.82 35.12 41.76 44.25 46.18 46.90 46.94 43.68 52.49 50.11 46.92 46.95 47.88 48.62 47.57 52.95 51.31 49.62 48.50 48.38 41.12 49.22 48.79 47.97 43.58 38.98 44.42 37.69 55.31 59.19 59.01 61.41 61.73 63.48 64.24 66.10
54.55 53.91 52.69 51.49 44.31 45.86 51.79 51.90 50.84 46.72 30.19 46.10 42.84 48.98 45.51 43.40 45.01 46.12 50.33 46.99 43.26 44.36 42.92 41.94 47.01 48.33 48.06 48.65 50.10 46.49 50.36 47.31 46.44 41.27 39.27 41.25 37.98 39.80 56.60 54.66 57.25 61.06 64.46 64.20 65.96
53.91 53.32 52.05 49.19 46.55 48.41 51.06 51.27 48.09 35.59 32.57 42.22 45.17 42.95 42.22 42.26 44.29 47.67 46.70 46.64 47.71 44.60 43.59 43.81 47.99 46.48 46.61 49.40 48.82 51.03 46.68 44.24 41.15 39.16 34.07 37.55 38.87 40.47 52.77 55.60 57.87 60.91 63.79 64.42 64.64
52.48 51.39 50.44 51.05 46.36 50.43 51.68 46.56 35.86 31.25 44.56 41.37 40.00 41.84 40.67 39.60 42.26 44.37 42.81 39.68 38.20 33.83 33.86 41.07 42.74 44.43 46.73 42.23 45.83 45.54 39.17 33.16 32.99 32.85 32.44 36.88 38.38 40.48 55.27 58.40 59.87 60.45 63.09 64.10 65.89
50.99 50.03 50.16 51.72 49.33 50.81 47.43 41.13 33.22 41.63 40.59 45.18 44.63 43.32 40.58 42.38 40.19 42.11 41.01 38.44 41.69 38.31 34.70 33.37 34.48 41.78 46.11 41.64 38.95 39.98 38.84 34.06 29.48 30.25 33.26 39.49 35.99 42.09 50.67 57.13 61.86 62.26 63.25 62.60 62.39
50.16 48.51 49.12 51.28 52.50 50.31 43.53 35.43 32.92 39.87 43.94 43.30 43.53 41.92 40.69 43.88 42.25 40.95 39.82 39.05 41.82 40.65 34.82 33.77 35.80 45.12 46.17 45.41 42.57 40.46 37.35 41.47 35.90 34.19 33.67 37.39 42.14 47.84 50.01 49.28 59.92 61.13 60.03 60.50 61.55
45.31 46.55 49.00 55.22 52.83 47.75 41.21 38.67 40.16 45.32 45.62 44.03 38.08 41.20 36.85 39.60 39.78 38.69 39.03 42.37 42.49 44.65 40.20 36.73 32.91 39.55 44.23 44.87 44.28 39.73 41.98 36.45 34.72 29.94 28.46 35.12 37.34 39.79 45.66 50.21 54.63 60.02 60.77 60.05 61.48
47.40 46.25 51.35 51.38 50.93 44.70 39.32 41.00 43.60 46.54 46.02 42.49 40.05 38.43 37.13 37.11 37.70 36.91 38.37 42.46 44.79 43.52 42.66 36.55 33.91 36.18 40.89 37.40 36.84 38.25 35.76 35.22 34.53 34.68 30.90 30.39 35.63 43.28 46.48 49.79 51.00 53.92 56.63 62.29 62.03
45.51 41.35 52.75 50.69 42.47 40.49 37.20 40.98 45.29 43.73 45.25 43.25 43.13 40.82 38.11 38.56 36.71 36.95 37.56 40.72 45.86 43.06 38.04 38.34 32.86 30.15 34.75 41.63 43.72 40.20 37.48 34.31 30.08 31.52 34.20 34.86 36.84 50.19 50.81 50.75 53.04 54.70 56.70 59.04 64.00
43.51 45.27 51.15 48.99 35.88 36.10 39.05 42.72 44.00 42.30 41.17 41.41 40.35 40.71 39.79 36.39 33.95 38.18 40.19 44.76 46.47 43.47 38.91 38.80 31.34 27.11 31.81 34.57 39.58 37.78 39.29 35.14 34.94 31.30 31.67 31.97 35.58 49.20 49.84 51.70 54.39 54.77 58.12 60.13 63.69
44.68 39.19 43.04 42.68 40.42 38.75 37.21 39.00 39.77 45.48 42.94 42.27 39.61 39.84 37.31 34.97 36.06 35.11 37.41 42.99 45.04 45.43 50.27 42.57 30.67 29.41 25.73 29.50 35.58 34.99 38.59 38.62 33.68 27.66 30.73 33.00 38.12 44.09 47.30 50.30 53.40 54.79 55.23 61.78 62.43
43.31 39.24 41.61 36.53 37.29 38.18 38.60 38.52 38.36 37.34 41.80 41.62 39.61 39.19 35.38 31.27 32.47 33.84 37.23 37.89 42.07 45.46 41.99 37.19 30.14 32.59 34.05 37.77 38.60 37.91 38.04 39.00 35.19 34.42 30.50 35.54 37.03 42.63 43.87 48.45 50.72 54.40 54.74 56.72 59.20
42.55 41.34 43.34 38.13 39.59 37.94 36.69 35.03 37.72 39.48 39.23 37.26 37.58 40.10 38.60 32.71 33.17 31.66 34.45 33.29 33.56 37.77 35.44 37.11 31.58 33.24 31.09 37.53 36.70 35.48 38.08 39.06 39.33 39.38 37.97 39.12 38.12 44.15 46.63 50.96 52.58 52.13 53.02 56.61 59.20
47.39 46.92 42.66 40.35 38.29 35.24 35.62 37.54 40.03 40.63 42.04 43.47 41.77 38.50 36.75 38.59 40.59 39.45 38.21 36.78 36.13 33.22 32.73 33.26 32.21 29.16 23.51 34.35 33.99 29.98 35.05 37.32 38.85 40.66 39.48 35.56 38.65 47.10 48.07 50.31 50.43 52.44 54.47 57.74 59.14

GFSSW_sfc_wetblb_081.txt.gz
Wetbulb
57.32 57.65 57.52 57.68 57.92 58.15 58.17 58.35 58.35 58.63 58.75 58.77 58.81 58.61 58.78 58.84 58.88 56.14 49.70 52.93 55.53 65.26 71.54 68.27 64.81 61.14 60.92 61.35 65.72 67.95 59.10 55.05 57.97 58.19 60.33 65.36 63.41 66.36 67.50 65.37 66.74 67.44 65.85 67.41 68.99
57.03 57.39 57.32 57.33 57.53 57.74 57.85 57.95 58.08 57.99 58.07 58.06 57.76 58.21 58.48 58.86 54.39 50.94 58.03 62.40 64.19 68.95 58.75 60.35 56.89 56.77 53.84 56.83 63.02 61.15 57.90 57.89 62.25 62.79 60.70 63.76 64.17 63.75 62.54 63.97 64.85 65.20 66.77 68.36 69.27
56.70 57.05 57.07 57.30 57.33 57.53 57.44 57.54 57.71 57.61 57.52 57.77 58.32 58.36 58.23 57.56 49.19 55.27 64.13 64.98 66.64 68.33 54.62 54.72 55.76 55.97 52.73 55.96 58.37 59.30 56.75 60.91 62.29 64.70 64.07 62.44 63.53 64.12 62.03 61.56 65.26 63.48 64.50 67.05 67.69
56.42 56.69 56.84 57.08 57.17 57.11 57.30 57.23 57.24 57.08 57.29 57.46 59.01 58.12 58.61 52.91 42.30 56.94 66.92 68.35 70.62 61.77 54.14 51.54 51.14 50.50 51.24 52.75 56.59 53.13 58.41 61.06 61.36 65.07 62.65 62.09 65.07 62.77 63.48 65.07 68.15 67.00 66.84 66.94 66.54
56.01 56.38 56.64 56.76 56.90 56.97 56.91 56.77 56.51 56.64 56.90 57.57 59.74 58.17 53.69 46.87 50.15 60.40 67.85 69.40 64.89 54.92 51.96 50.40 50.36 51.77 50.19 52.54 55.08 53.97 57.35 59.73 60.06 64.63 63.23 64.64 62.78 62.93 63.55 66.87 68.52 68.24 66.99 66.27 66.15
55.76 55.94 56.22 56.34 56.33 56.42 56.32 56.06 55.92 56.09 56.76 57.74 60.33 58.86 48.03 40.98 52.70 66.37 63.93 64.29 60.21 54.81 51.57 51.16 51.95 55.33 53.78 54.37 53.44 56.55 57.10 57.58 57.85 58.77 63.10 62.07 61.63 62.33 63.48 68.23 67.29 66.59 66.03 66.12 66.23
55.58 55.88 55.91 55.89 55.88 55.98 55.79 55.39 55.55 55.86 56.62 57.62 60.58 57.08 50.98 46.44 59.84 64.44 63.15 59.70 58.63 54.01 51.10 51.53 53.55 55.70 56.37 54.51 57.45 56.60 53.44 53.94 58.19 63.00 63.38 63.18 59.46 59.46 65.57 66.85 65.76 65.32 65.94 66.24 65.92
55.61 55.69 55.63 55.48 55.42 55.41 55.08 54.87 55.04 56.06 56.89 57.81 61.09 54.79 47.97 59.57 58.53 62.54 60.81 58.44 59.04 55.78 52.42 54.07 55.07 53.72 53.97 56.32 53.96 48.98 46.66 43.18 52.38 63.24 64.73 61.41 55.44 61.85 66.37 65.37 64.68 65.29 65.89 66.33 65.95
55.71 55.43 55.45 55.18 55.22 55.03 54.64 54.38 55.73 57.47 57.84 60.02 53.59 50.36 49.75 61.26 53.85 55.74 60.70 55.79 57.76 55.08 54.17 57.16 53.97 49.67 50.66 48.04 43.73 45.11 41.97 43.99 47.18 62.42 63.26 59.46 56.33 63.34 65.64 64.96 64.16 64.46 65.03 66.05 64.81
55.54 55.44 55.40 55.25 54.86 54.25 53.91 53.74 55.61 57.96 58.52 59.05 57.80 48.07 50.80 50.22 50.05 51.68 51.27 56.06 56.22 55.31 53.72 51.49 48.57 44.87 45.12 44.10 38.98 40.92 41.57 41.13 43.72 52.57 57.11 59.43 58.32 61.97 63.84 64.68 63.97 63.93 64.74 65.39 64.19
55.40 55.09 55.03 54.72 54.27 53.50 50.55 45.90 44.00 43.97 51.38 47.51 48.77 49.74 52.51 52.52 49.90 50.48 51.82 50.80 53.47 50.97 45.23 48.30 43.81 41.85 46.06 47.64 48.30 46.36 43.73 42.75 46.60 50.16 47.57 54.71 58.51 59.64 62.71 63.89 63.42 63.21 64.06 64.68 64.99
55.31 54.93 54.58 54.36 53.63 52.92 50.07 43.20 44.76 47.57 41.99 49.90 53.92 53.28 54.88 52.15 46.62 47.63 50.85 47.74 49.75 46.51 48.04 46.17 42.55 48.82 51.00 50.54 48.31 45.95 43.66 42.91 46.87 49.45 45.79 54.81 57.22 59.64 60.02 62.38 63.32 63.33 63.82 64.47 65.10
54.99 54.62 54.25 53.60 52.63 49.18 45.93 47.12 50.56 47.59 38.99 44.22 47.45 47.80 47.76 49.76 45.27 45.22 49.78 48.00 48.61 46.43 46.98 44.13 48.56 52.88 51.05 48.26 47.00 43.64 42.02 43.10 44.55 47.48 54.53 56.41 54.72 56.97 60.23 61.16 60.63 62.65 63.21 65.02 65.07
54.86 54.64 53.72 52.13 46.53 44.65 47.14 49.20 50.54 46.34 34.32 40.04 41.94 46.37 45.69 45.74 42.28 49.99 51.14 46.71 45.55 46.59 47.84 46.80 51.53 50.75 48.18 47.57 47.39 39.38 48.04 48.29 46.52 41.91 38.00 45.50 35.54 53.92 58.11 58.47 60.31 60.20 62.12 62.46 65.12
54.60 54.09 52.69 51.32 43.71 46.19 50.06 49.32 48.62 45.48 28.76 44.47 41.97 47.34 43.41 42.15 43.70 45.44 48.89 46.03 42.55 43.23 43.33 43.47 43.65 47.40 46.34 47.48 49.08 45.46 49.19 46.77 45.06 40.27 37.55 40.06 37.62 40.84 57.78 56.94 58.32 60.14 62.34 62.90 64.55
54.09 53.38 52.07 48.21 44.77 47.85 49.71 47.82 46.60 34.88 31.78 40.24 43.78 41.79 41.54 40.78 42.83 46.08 45.38 46.23 46.02 43.38 41.76 42.46 46.17 45.32 45.64 49.57 49.90 50.38 45.32 42.16 38.65 37.70 33.22 37.76 37.32 37.88 52.19 56.69 58.15 60.22 61.92 63.40 64.56
52.95 51.59 50.25 50.13 45.64 47.58 48.11 45.56 35.15 30.37 43.03 41.40 38.73 39.75 39.28 37.52 40.71 43.16 41.58 39.21 36.58 33.37 32.73 39.58 40.95 42.80 45.07 40.05 43.59 42.81 37.66 32.11 31.94 31.68 31.83 35.08 36.86 40.23 50.40 57.10 59.53 59.71 61.43 62.71 65.26
51.40 50.23 50.20 50.79 47.59 49.26 46.00 40.44 31.41 39.91 38.60 43.61 43.07 41.62 39.85 40.35 39.34 40.90 39.13 36.46 41.29 37.24 33.47 32.32 33.17 40.73 44.86 40.10 37.34 37.12 37.18 32.90 28.76 28.75 32.34 35.74 35.28 40.86 47.34 54.66 59.43 61.09 61.92 62.76 64.93
50.38 47.15 47.57 49.85 51.57 47.87 43.84 34.23 32.03 37.03 41.98 41.44 40.92 39.47 38.35 42.03 41.42 39.62 38.07 37.11 40.06 39.16 33.17 32.27 33.78 43.20 44.82 44.28 40.83 37.59 34.33 37.95 33.44 31.46 32.95 35.06 39.73 45.45 50.88 52.38 56.54 57.99 59.91 61.39 64.29
46.18 46.62 48.01 52.31 50.88 46.99 41.25 36.51 38.88 43.37 43.54 42.16 36.68 38.98 34.99 38.22 39.29 37.53 37.03 40.79 40.80 42.74 37.68 34.96 31.21 37.26 42.61 43.68 43.22 38.82 39.28 33.89 32.88 28.78 28.10 33.53 35.23 37.64 45.50 48.48 51.27 52.60 57.71 59.73 60.80
47.08 45.03 49.13 48.35 48.70 44.11 37.90 36.66 41.71 44.85 45.44 40.70 38.00 37.18 35.00 35.89 37.12 36.44 37.11 40.86 43.19 42.20 40.77 34.56 33.24 34.87 38.71 36.83 35.85 36.15 34.00 32.85 31.84 31.99 28.92 29.31 34.65 43.03 46.11 48.45 49.95 51.69 54.84 56.83 56.71
45.22 39.71 50.67 48.30 40.96 35.99 34.79 39.87 43.77 41.69 43.31 41.75 40.82 38.19 36.67 36.88 34.70 34.79 35.83 38.80 45.12 41.37 36.92 37.01 30.82 29.13 32.85 39.44 41.79 40.02 34.24 31.49 29.02 27.91 29.73 30.98 34.32 47.45 47.79 49.80 51.58 53.79 58.18 61.17 61.11
44.03 43.22 48.67 46.84 35.12 33.33 37.54 40.72 42.58 40.87 39.86 39.91 39.08 40.05 38.33 34.56 32.42 36.09 38.86 43.65 45.45 42.54 37.33 37.70 29.87 26.13 29.55 33.57 37.47 35.05 37.46 32.77 31.02 28.18 26.71 26.96 32.89 45.13 45.85 48.43 51.91 54.32 56.68 58.83 62.32
41.69 37.56 41.09 41.08 37.05 36.65 34.66 36.46 37.92 43.79 41.15 40.67 38.29 38.35 36.29 33.96 34.44 33.90 36.30 41.15 43.27 43.92 49.31 40.89 29.22 28.18 25.39 28.48 33.46 33.00 36.98 36.28 31.61 27.07 28.20 30.55 34.18 40.01 42.36 45.15 48.60 51.05 57.83 59.38 60.67
41.14 37.75 38.62 34.72 36.86 36.17 35.88 37.24 37.22 36.30 39.93 40.05 38.02 37.40 33.38 29.84 30.71 32.07 35.20 36.20 40.34 42.68 39.99 35.61 29.18 30.37 32.29 35.25 36.22 35.69 36.02 36.80 32.41 32.38 29.81 34.02 34.76 39.10 41.44 45.48 50.04 52.49 53.70 58.22 61.56
42.20 40.30 39.40 35.99 36.82 35.73 35.88 34.44 36.84 38.27 37.93 35.99 36.36 38.73 37.37 31.69 32.50 30.81 33.21 31.82 31.92 36.90 33.62 34.36 29.90 30.27 29.85 35.64 34.97 32.79 35.07 36.30 37.05 37.21 35.79 36.26 36.43 44.76 47.58 50.23 49.59 49.98 51.44 54.77 57.45
45.41 44.82 40.73 38.26 35.79 35.55 35.04 37.19 39.14 39.09 40.64 41.59 40.36 36.92 35.60 37.62 39.57 38.63 37.58 36.23 33.61 31.52 31.83 31.77 30.11 27.07 23.40 32.03 32.08 26.68 33.56 35.55 36.46 38.98 38.03 34.21 38.40 45.31 44.83 46.41 47.92 48.19 50.40 54.13 55.54

GFSSW_sfc_wetblb_084.txt.gz
Wetbulb
56.77 57.36 57.63 57.54 57.67 57.80 57.97 58.12 58.14 58.16 58.31 58.22 57.78 57.24 57.59 57.46 58.11 55.39 48.73 52.06 55.14 65.72 68.96 67.45 64.56 60.45 62.24 62.12 64.84 67.41 58.55 55.93 57.48 58.07 59.91 65.48 63.83 66.79 67.43 64.73 66.66 66.98 65.47 67.08 69.14
56.51 57.05 57.33 57.28 57.50 57.63 57.52 57.69 57.92 57.80 57.81 57.82 57.71 57.56 56.92 57.83 52.74 50.37 57.04 61.44 63.76 69.19 65.98 61.83 57.68 56.52 52.83 58.43 62.11 60.98 58.24 58.05 61.70 62.78 61.16 63.82 64.12 64.26 63.23 63.32 63.36 64.66 67.04 68.47 68.90
56.30 56.72 57.02 57.10 57.31 57.22 57.31 57.41 57.57 57.31 57.25 57.49 57.80 58.33 57.94 56.61 46.14 51.71 63.27 63.86 65.82 67.24 61.64 58.48 57.31 56.12 52.06 55.53 58.26 60.45 58.26 61.08 62.83 64.25 64.08 63.69 63.60 64.23 62.37 60.02 64.28 63.27 64.97 67.29 67.19
56.04 56.45 56.64 56.78 57.06 56.96 57.02 57.08 56.92 56.76 56.73 57.22 57.53 58.55 58.34 51.30 40.94 56.92 66.35 66.04 68.08 62.03 52.82 52.65 52.75 50.86 50.63 51.38 56.29 53.06 59.73 61.54 62.78 64.88 63.11 62.85 63.80 62.13 63.04 64.95 66.55 66.15 67.15 67.05 66.27
55.99 56.20 56.38 56.48 56.63 56.70 56.56 56.55 56.45 56.37 56.49 57.00 57.93 58.32 52.66 44.30 47.65 62.86 66.83 67.22 62.79 54.76 51.36 49.45 49.78 50.03 49.40 52.03 54.35 54.77 57.44 58.64 60.09 63.74 62.46 64.94 62.89 63.26 63.09 66.97 67.04 67.01 67.10 66.34 66.03
55.79 56.03 56.13 56.13 56.09 56.14 56.18 56.00 55.87 55.89 56.27 57.05 58.26 58.44 46.36 38.19 51.69 64.74 63.56 61.84 56.33 51.52 49.95 50.84 50.43 53.82 51.68 52.45 52.76 56.63 57.24 56.48 56.89 60.53 62.65 62.14 62.39 62.87 64.15 67.91 66.75 66.00 65.62 66.07 66.01
55.62 55.70 55.82 55.82 55.86 55.82 55.74 55.60 55.51 55.52 56.04 57.19 58.73 56.69 49.11 43.47 60.88 62.90 63.03 58.03 57.08 52.53 49.26 50.09 52.89 52.43 54.40 52.87 56.59 55.24 53.03 52.22 60.17 59.70 60.86 62.69 58.81 59.31 65.64 68.03 66.27 65.08 65.28 65.79 65.88
55.05 55.25 55.54 55.58 55.44 55.35 54.88 54.50 55.02 55.76 56.40 56.98 60.07 53.17 47.15 56.88 60.52 61.25 59.16 56.90 57.38 52.23 50.96 51.71 52.44 51.96 51.68 54.76 52.03 47.71 45.91 42.77 56.69 62.24 62.58 60.32 54.47 61.45 66.33 66.17 64.68 64.75 64.85 65.23 65.76
54.87 54.91 55.23 55.31 55.18 55.01 54.09 53.91 56.33 57.57 57.66 59.31 53.08 48.67 48.13 60.68 55.97 58.99 58.73 56.08 55.44 53.15 52.17 56.36 51.60 47.74 49.23 46.88 43.90 44.43 41.44 43.02 46.60 61.89 61.86 59.02 55.25 61.32 65.79 65.58 63.64 63.93 64.30 64.47 64.82
55.56 55.50 55.34 55.40 55.19 54.05 53.40 53.52 57.68 58.40 58.38 58.85 57.15 46.52 50.05 50.08 50.13 54.37 58.32 57.73 54.68 53.27 52.14 48.90 46.29 43.48 44.17 43.54 39.34 40.65 41.54 40.54 44.59 58.34 60.40 58.32 57.33 60.25 63.77 64.75 63.84 63.80 64.35 64.38 63.86
55.46 55.31 55.03 54.87 54.26 52.65 50.45 45.67 42.72 43.06 50.58 44.99 44.74 47.26 50.92 52.98 50.25 49.08 52.26 53.64 53.06 50.23 44.49 46.45 42.08 39.48 43.36 46.62 46.88 45.50 43.80 42.83 45.51 48.66 46.73 48.02 55.15 57.99 62.65 63.29 63.15 63.62 63.58 64.15 64.18
55.33 55.11 54.78 54.44 53.81 52.73 49.11 43.15 44.29 45.01 40.26 49.23 52.26 51.16 53.31 50.56 46.62 46.62 50.36 47.64 48.97 44.95 46.62 44.23 39.82 46.55 49.30 49.25 47.22 45.05 43.05 41.97 48.49 49.49 45.71 47.93 51.09 58.70 61.11 62.26 62.90 63.51 63.40 63.97 64.78
55.11 54.78 54.30 53.79 52.87 48.52 44.03 45.96 48.38 45.85 38.71 42.92 47.46 47.90 47.19 49.62 45.65 43.91 48.06 48.35 47.56 45.61 45.55 42.94 47.11 51.11 50.00 47.40 46.14 43.16 41.45 41.99 44.65 48.09 54.67 53.61 47.95 55.05 59.42 61.03 61.69 64.28 64.61 64.51 64.73
54.97 54.76 53.25 52.05 45.58 44.01 45.95 48.08 48.12 45.89 33.46 37.93 41.00 46.43 45.22 44.51 41.27 49.32 50.22 48.15 45.90 45.38 46.67 45.83 50.12 50.22 47.40 47.03 46.89 38.61 47.20 47.39 45.79 41.39 37.27 44.78 34.96 47.42 56.02 57.73 60.09 60.33 62.00 62.54 64.23
54.70 53.56 52.29 51.12 43.91 45.39 48.88 47.10 45.93 44.56 27.22 43.22 41.55 45.85 42.17 41.21 43.73 44.06 47.53 45.73 42.59 44.16 46.09 45.17 45.06 46.77 45.13 46.62 48.51 44.95 48.27 46.25 44.81 39.49 37.00 39.19 36.60 38.57 54.51 55.41 57.88 60.57 61.18 62.62 62.98
53.85 52.93 51.89 47.67 44.13 47.09 47.96 45.90 45.31 34.45 29.68 40.18 42.33 39.90 40.57 40.34 41.70 44.73 44.54 45.44 45.17 42.09 41.60 41.54 44.48 45.23 46.76 48.99 49.35 49.14 43.26 40.15 37.62 36.06 32.37 37.04 36.90 37.11 51.81 55.35 58.32 60.58 62.34 62.87 63.28
52.55 51.79 49.92 49.08 44.63 46.79 48.14 44.41 34.55 29.70 41.51 39.90 38.78 38.66 38.12 37.69 40.83 41.73 40.69 38.78 35.37 33.94 32.22 38.79 39.89 42.16 43.59 39.37 41.81 41.89 37.39 30.82 30.97 30.96 31.64 32.92 36.58 38.83 44.76 49.35 58.32 59.78 61.37 63.08 63.96
51.10 49.94 50.16 50.30 47.84 47.97 46.56 40.75 30.22 38.21 36.79 41.67 41.37 40.89 39.11 39.83 39.27 40.18 38.27 35.95 39.69 35.83 32.69 31.77 32.82 39.71 43.81 38.95 37.41 36.40 36.62 32.07 27.74 27.95 31.91 35.08 34.18 42.23 49.61 52.26 55.27 60.02 60.85 62.30 63.21
50.23 46.72 46.67 49.24 50.39 46.87 43.42 34.19 33.12 35.96 40.73 39.95 38.93 37.25 37.06 41.00 39.60 38.42 36.71 35.64 38.38 37.32 32.60 32.13 32.67 42.00 43.36 42.81 39.59 36.53 33.94 35.78 31.83 29.25 31.79 34.07 38.94 44.56 49.92 51.14 52.30 53.63 58.62 59.81 62.01
46.32 46.28 46.21 48.64 48.98 45.25 39.64 34.83 37.08 42.82 43.24 42.30 35.99 37.43 33.96 37.50 38.31 35.57 35.96 40.46 39.69 40.93 36.08 33.38 30.75 36.41 41.06 42.46 41.81 37.96 37.81 33.26 32.49 28.54 28.01 32.59 34.11 37.15 44.24 46.74 49.84 52.28 53.01 55.51 58.23
46.00 43.02 47.69 46.60 46.77 42.37 33.62 35.13 40.00 42.98 44.06 40.18 37.73 36.92 35.36 34.36 36.14 35.30 35.08 40.57 42.96 41.50 39.65 33.24 32.62 34.30 37.37 34.75 32.98 35.23 32.94 31.98 31.75 30.96 29.21 28.98 34.09 41.31 41.44 45.23 48.04 51.07 55.96 58.18 60.40
43.99 39.17 48.11 46.81 38.91 33.37 33.25 36.88 42.00 40.94 42.42 41.94 41.07 39.26 37.23 35.14 33.08 35.25 36.27 38.13 43.80 41.64 36.83 36.34 30.84 27.98 30.27 37.72 39.74 36.55 32.87 30.37 29.75 28.98 28.53 30.37 34.50 42.85 42.43 45.23 49.27 50.53 53.55 59.19 61.84
42.43 40.53 46.14 44.80 33.82 32.04 35.68 38.99 40.94 39.26 38.98 39.43 38.28 38.80 36.50 32.66 31.49 35.25 38.39 42.64 43.49 43.19 38.08 37.12 29.81 25.59 28.29 32.94 36.31 34.95 36.36 30.23 29.31 27.78 27.36 29.34 32.93 43.61 44.59 46.93 50.68 50.91 52.93 60.40 61.72
40.24 36.90 40.48 39.95 35.68 35.22 33.51 35.01 36.60 42.45 39.68 39.94 37.85 38.10 35.36 32.48 33.46 32.60 35.18 40.81 41.96 43.96 48.18 40.51 29.94 28.51 26.02 28.48 32.66 32.36 35.87 34.83 30.03 27.64 27.97 30.02 33.95 38.07 45.17 47.19 48.81 49.71 51.89 55.99 56.76
40.25 36.57 37.05 32.79 35.32 34.85 34.73 36.16 36.18 35.39 39.15 39.25 37.40 37.05 33.13 29.45 30.53 31.54 34.43 36.09 40.01 42.04 39.59 35.15 30.23 30.79 31.92 34.54 35.22 34.47 35.33 35.52 31.87 32.13 29.91 33.14 34.79 37.69 44.84 47.07 47.87 48.75 50.98 54.01 55.47
41.66 38.71 37.24 34.57 35.11 35.41 35.85 33.12 35.96 37.04 36.64 35.52 35.61 38.04 36.77 31.92 31.37 30.85 32.59 31.47 31.25 36.83 33.08 33.48 30.95 31.25 30.49 35.11 34.06 32.17 34.41 34.99 35.62 35.71 34.65 35.23 35.57 44.23 46.28 47.19 46.33 45.43 47.01 50.90 55.47
44.10 42.69 40.11 37.20 34.78 33.57 34.52 36.32 37.86 37.74 39.66 40.32 38.90 36.03 35.36 36.39 37.72 35.92 36.34 35.06 32.59 30.92 31.10 30.79 28.96 26.00 22.56 30.79 30.75 28.05 32.54 34.51 35.76 39.98 38.32 32.27 37.38 41.77 41.34 42.88 45.41 44.39 45.50 48.36 51.15

GFSSW_sfc_wetblb_087.txt.gz
Wetbulb
56.87 57.23 57.62 57.82 57.87 57.79 57.96 57.96 58.00 58.02 57.81 57.81 57.91 57.76 56.46 56.64 56.94 55.83 50.71 55.96 57.54 65.44 71.40 68.64 66.25 68.12 66.45 67.51 67.38 68.10 59.93 57.51 58.29 58.57 60.32 64.35 63.81 66.84 67.45 66.26 66.74 67.77 66.78 67.86 68.84
56.58 56.86 57.29 57.46 57.53 57.66 57.66 57.70 57.70 57.57 57.41 57.48 57.44 57.59 57.11 56.54 54.64 51.82 57.82 60.83 63.27 69.25 66.67 62.70 59.54 64.38 59.84 62.88 66.18 63.33 60.71 58.71 62.85 63.48 62.66 64.81 65.38 65.01 64.95 64.88 64.90 66.13 68.30 68.78 68.76
56.53 56.85 57.01 57.30 57.33 57.46 57.35 57.44 57.50 57.32 56.98 57.12 56.86 57.58 57.71 57.52 51.13 52.53 62.56 63.58 65.21 69.64 65.81 62.48 60.99 58.15 55.27 60.68 63.00 62.88 60.30 62.76 63.24 65.16 65.81 64.45 64.69 64.40 63.76 61.97 65.37 64.22 65.51 67.06 67.17
56.40 56.68 56.65 56.82 56.92 57.01 57.09 56.98 56.91 56.88 56.64 56.93 56.72 58.08 57.99 55.58 45.95 58.41 65.93 65.75 71.33 65.55 62.48 58.97 58.32 55.61 54.69 55.91 61.56 58.58 61.98 63.48 63.64 65.64 64.67 64.12 65.07 63.02 64.08 65.66 68.52 68.11 67.83 66.75 66.31
56.38 56.16 55.97 56.16 56.24 56.50 56.67 56.62 56.46 56.42 56.53 56.78 57.13 58.13 56.03 49.98 49.81 65.35 66.74 68.83 65.12 59.49 58.10 56.57 54.97 55.74 52.34 56.23 58.81 59.44 59.83 61.02 62.54 64.86 64.83 66.10 63.39 63.17 64.90 67.65 68.67 68.54 67.40 66.88 67.06
55.38 55.21 55.33 55.56 55.56 56.16 56.35 55.99 55.86 55.91 56.04 56.80 57.24 58.34 51.31 43.97 56.80 64.86 64.45 64.38 59.78 56.91 54.90 57.26 55.58 58.09 55.43 56.39 57.82 59.51 59.57 60.52 60.05 61.35 64.38 63.72 63.43 64.43 64.98 67.38 67.41 67.49 67.01 67.89 68.16
54.94 54.87 55.00 55.43 55.51 55.49 55.31 55.13 54.96 55.53 55.83 56.51 57.69 56.94 50.78 46.80 62.84 64.48 64.23 60.80 58.22 56.16 53.97 55.44 57.56 57.52 58.75 57.42 59.86 58.69 55.01 56.51 62.86 60.22 62.58 64.74 60.84 60.84 65.97 66.79 66.32 66.67 67.66 67.97 68.46
54.65 54.88 54.90 54.98 55.00 54.94 54.62 54.02 54.63 56.21 56.12 56.69 59.07 56.98 49.32 58.80 64.17 62.94 61.70 59.06 58.70 57.22 55.99 55.73 57.56 57.70 57.27 58.76 55.34 54.68 52.82 50.91 61.89 62.58 63.67 63.34 58.41 63.11 67.21 65.68 64.96 65.64 66.50 66.80 67.84
54.96 55.04 54.92 54.74 54.70 54.29 53.57 53.75 58.38 58.34 57.48 59.21 57.05 55.56 51.83 61.84 59.70 60.97 60.49 56.83 57.98 57.50 56.96 56.50 54.98 54.50 55.03 54.51 52.18 52.10 51.49 49.23 57.33 63.91 62.97 62.09 59.19 64.34 67.45 66.75 64.88 65.67 65.81 66.47 67.44
54.78 55.59 55.44 54.72 54.67 53.46 53.13 53.62 57.13 59.45 59.26 59.77 57.87 51.85 54.21 54.14 57.58 60.37 61.58 59.04 56.29 54.70 53.79 52.13 51.52 51.43 52.55 52.99 47.28 49.74 49.67 49.60 52.88 61.65 62.40 60.74 60.48 63.22 66.22 66.48 65.74 65.96 66.26 66.25 66.86
55.61 55.58 54.94 54.12 53.56 53.05 52.22 53.81 50.15 51.64 55.06 49.90 49.40 50.06 52.92 56.04 54.83 58.34 59.67 57.92 56.73 54.75 49.33 50.14 48.23 46.71 52.59 53.25 52.59 51.79 51.11 50.30 52.24 57.93 54.78 53.82 54.59 60.34 64.52 65.82 65.11 65.73 65.69 66.20 66.94
55.62 55.03 54.24 53.58 52.78 52.29 51.62 48.79 50.37 50.70 47.16 51.41 53.15 52.98 54.81 55.83 48.81 53.04 59.70 53.46 53.23 49.20 51.07 47.84 45.89 50.52 53.62 53.36 52.20 51.74 50.61 50.18 51.30 52.33 51.67 51.96 55.58 61.42 63.74 64.76 65.59 65.64 65.86 66.53 67.21
55.34 54.24 53.79 52.90 52.43 51.00 48.98 50.80 52.83 51.91 46.87 46.76 50.89 51.04 51.72 54.36 48.57 48.76 56.30 53.78 52.69 50.12 49.74 46.03 48.22 52.17 52.59 51.82 51.02 51.26 50.87 49.48 49.69 51.14 58.94 55.22 54.60 58.99 62.20 64.25 66.20 66.53 67.35 67.64 67.57
54.91 54.60 52.96 51.93 49.12 49.31 50.51 52.85 52.28 51.69 43.03 42.45 46.08 49.80 50.85 51.61 46.46 51.33 53.91 53.83 51.98 50.07 50.91 49.78 52.80 51.66 51.99 51.38 52.56 49.81 52.24 51.16 50.01 49.59 46.76 51.59 46.15 52.78 60.37 62.06 63.93 65.45 66.66 66.99 67.83
54.63 53.67 52.15 50.92 49.39 51.08 52.38 52.38 51.26 49.76 33.73 45.17 46.42 50.74 47.81 47.16 48.78 48.66 51.17 50.36 49.94 50.71 51.49 49.19 51.19 50.86 50.75 52.18 53.35 51.30 52.78 51.80 50.75 49.31 47.38 46.73 46.86 49.10 58.74 58.71 62.31 64.84 66.40 67.36 68.17
53.62 52.17 51.56 49.75 49.83 52.80 52.12 51.74 50.64 41.87 32.91 43.15 45.23 44.67 45.19 45.91 46.25 48.25 48.71 50.42 49.62 49.98 49.69 47.23 49.83 52.41 53.39 53.33 54.27 52.65 49.60 47.99 47.59 47.53 43.55 46.64 46.79 46.74 52.94 54.62 56.13 63.68 66.32 66.90 68.01
52.46 51.04 50.67 50.87 51.56 52.54 53.31 51.20 41.83 36.58 45.30 42.24 42.90 43.85 44.27 43.24 44.93 46.01 45.13 44.76 43.81 44.47 45.20 44.43 44.55 46.86 47.37 48.79 50.67 51.19 48.80 42.23 41.19 41.30 42.39 44.89 45.47 49.76 53.75 55.59 57.83 57.80 64.44 67.38 68.14
50.93 50.07 51.48 52.89 54.56 53.28 52.62 46.30 36.51 39.97 40.83 45.30 44.23 45.10 42.56 44.18 43.86 44.29 43.71 42.37 45.45 43.42 42.31 41.50 39.06 44.56 47.00 45.61 47.42 49.79 49.21 43.51 38.18 39.16 42.11 44.32 44.26 48.40 54.48 57.50 60.02 62.04 64.30 66.12 67.71
50.08 53.70 53.75 53.19 53.68 53.16 50.10 38.82 37.03 39.42 42.57 42.42 43.76 42.26 41.66 43.68 44.18 43.61 42.33 41.71 43.40 44.20 42.74 40.97 39.98 45.46 46.27 46.78 46.06 44.65 44.70 46.27 43.10 41.75 43.25 44.72 46.42 51.07 53.61 55.09 57.84 58.85 61.57 62.41 65.00
54.11 53.08 52.34 52.01 53.77 52.32 46.35 37.97 40.86 43.70 43.99 43.95 39.76 41.77 39.77 40.81 42.02 41.70 40.77 43.66 42.81 45.24 44.63 42.42 39.95 43.28 44.81 46.54 47.12 46.05 45.64 43.48 45.14 39.09 38.93 41.54 43.74 44.79 47.59 50.31 55.32 57.23 59.37 63.07 64.70
52.37 51.22 53.22 52.10 52.47 48.38 40.64 40.67 42.27 45.08 45.05 42.51 40.67 40.32 39.98 39.89 41.06 39.18 38.88 43.46 44.27 44.68 45.41 43.48 43.06 41.52 44.68 41.64 40.12 44.47 43.66 42.44 45.04 42.85 41.37 39.56 41.93 46.37 47.97 51.24 54.61 57.06 58.85 62.10 64.80
50.82 46.78 53.23 52.55 45.90 42.95 40.82 41.88 42.06 43.07 44.88 43.53 43.43 41.53 39.66 39.87 39.78 40.00 38.73 41.69 45.34 45.07 41.55 42.98 42.44 38.02 39.21 43.12 44.22 43.49 41.28 41.57 43.58 40.83 41.67 44.76 41.54 49.24 51.34 53.92 55.27 55.75 57.84 60.54 64.31
49.13 47.79 53.42 51.72 41.58 40.54 42.83 42.05 43.28 42.64 41.92 41.65 40.48 41.52 41.41 38.56 38.11 40.48 41.29 43.88 45.90 45.91 42.61 43.51 39.39 36.69 37.57 41.97 43.98 41.63 42.07 41.60 40.54 42.85 41.20 41.91 40.85 49.70 53.15 53.84 54.73 55.21 56.77 60.62 62.52
48.44 44.04 47.83 46.39 43.40 42.41 40.52 40.46 40.27 44.07 42.49 43.02 41.54 42.45 40.62 39.27 40.95 38.55 40.03 42.60 43.98 46.65 47.67 45.34 40.06 38.29 38.08 38.62 41.52 39.23 40.26 41.54 41.48 41.49 40.30 42.31 41.99 45.77 50.37 51.37 52.94 54.15 56.36 59.48 60.38
47.38 42.90 43.10 40.15 42.26 42.01 41.69 41.15 39.79 39.06 43.03 43.54 41.35 40.64 39.11 37.64 38.32 37.75 39.78 41.73 43.99 44.36 43.79 44.03 38.38 39.27 39.29 39.80 39.95 39.16 39.52 39.98 39.60 40.66 40.21 41.44 41.58 45.97 49.31 50.40 50.90 53.46 55.45 56.52 54.07
48.61 45.74 44.31 42.33 41.71 43.09 41.05 40.13 39.95 40.61 41.26 39.91 39.57 40.91 41.79 38.55 39.04 37.61 39.71 39.91 39.02 43.19 40.51 41.97 37.57 38.61 35.56 38.30 38.20 36.46 38.85 39.08 39.56 39.93 40.09 40.70 41.08 47.12 49.23 50.47 49.95 51.01 53.57 51.74 50.68
49.75 47.71 48.47 40.96 41.74 42.23 41.72 41.27 40.68 42.36 43.55 43.96 42.16 41.50 40.52 41.23 43.50 43.96 43.53 42.62 42.14 40.91 39.16 39.46 38.63 36.24 32.96 36.51 36.66 33.85 37.57 38.39 39.94 42.76 42.28 39.23 42.89 46.71 46.87 47.11 47.55 48.11 49.89 48.25 47.37

GFSSW_sfc_wetblb_093.txt.gz
Wetbulb
57.59 57.82 57.96 57.98 58.11 58.24 58.35 58.42 58.61 58.52 58.59 58.46 58.37 58.43 58.03 58.33 57.13 58.54 54.25 62.43 63.46 69.18 71.30 67.20 69.13 69.00 70.55 69.90 70.93 71.21 63.68 59.38 60.06 61.42 62.33 65.03 64.55 66.86 69.33 68.82 69.11 70.51 69.12 69.08 70.55
57.62 57.64 57.60 57.55 57.77 57.84 57.92 57.96 58.18 58.24 58.33 57.98 58.03 58.13 58.50 58.52 57.91 57.04 66.15 66.63 68.28 72.52 70.05 65.93 65.43 66.29 67.25 67.51 68.49 66.59 64.44 60.96 64.12 64.60 65.53 66.19 66.04 65.29 65.79 67.03 67.62 68.82 69.68 69.94 70.73
57.49 57.23 56.93 56.64 57.16 57.19 57.40 57.63 57.79 57.68 57.62 57.72 57.56 57.88 58.85 59.10 57.87 56.32 68.54 67.75 66.51 72.37 68.46 67.28 64.83 65.52 63.36 66.19 68.00 66.44 62.75 64.40 65.12 67.66 67.07 65.42 65.69 67.42 65.22 65.68 68.04 66.98 67.61 68.91 69.67
56.65 56.36 56.39 56.11 56.63 56.90 56.74 56.81 57.07 56.98 57.07 57.29 57.67 57.82 59.04 60.44 52.00 65.46 66.81 67.87 67.65 69.66 68.18 63.91 62.57 61.60 59.38 59.19 66.10 63.80 65.27 66.00 65.94 66.48 66.78 66.68 68.42 66.87 67.21 67.44 71.29 70.35 69.31 69.04 68.90
55.88 55.93 55.89 55.86 56.08 56.37 56.54 56.64 56.52 56.40 56.48 57.18 57.60 58.10 59.52 56.00 54.72 67.87 66.21 66.94 63.57 67.38 65.34 61.23 60.24 60.24 56.17 58.81 62.11 63.73 65.11 65.76 65.99 66.42 67.41 68.90 66.76 67.01 67.24 70.56 72.10 71.12 69.04 68.37 68.71
55.87 55.86 55.86 56.04 56.25 56.40 56.23 56.24 56.11 56.04 56.14 56.68 57.73 58.28 57.81 51.53 60.87 65.61 63.44 61.64 61.09 65.15 63.98 61.81 60.03 60.72 57.87 58.29 59.72 61.28 65.91 65.00 65.02 65.10 67.66 66.24 66.69 67.86 68.49 71.50 70.67 69.55 67.96 68.40 68.55
55.85 55.87 55.91 55.95 56.22 56.28 56.27 55.49 55.36 55.62 55.94 56.78 58.03 59.59 56.51 53.72 63.77 64.95 64.44 60.90 63.37 64.92 61.57 61.87 60.88 58.46 59.10 57.67 61.46 62.73 63.25 64.30 63.10 63.63 65.14 67.44 63.97 64.26 69.58 70.38 68.83 68.33 68.13 68.22 68.58
55.93 55.85 55.44 55.76 56.01 55.84 55.28 54.94 55.64 57.53 57.55 57.16 58.40 60.36 55.64 59.11 64.63 64.40 65.20 61.71 63.56 64.76 62.43 61.79 60.64 59.14 58.99 60.95 59.18 60.59 62.97 58.94 63.10 63.22 65.25 66.27 59.02 66.54 69.18 68.75 67.41 67.58 67.55 67.79 68.23
55.61 55.44 55.86 56.18 55.86 55.29 54.31 54.40 57.08 59.49 58.85 57.85 59.47 59.82 52.82 63.91 61.71 64.10 63.27 59.77 61.14 62.00 61.87 60.84 59.49 57.48 59.25 56.64 56.04 58.49 57.46 57.65 60.56 64.38 64.67 64.92 60.29 66.85 69.33 68.18 66.21 67.31 67.12 67.87 68.28
56.21 56.03 56.44 56.14 55.59 54.69 54.46 54.35 57.52 58.83 59.55 61.46 61.60 55.75 59.39 54.66 60.46 62.85 62.83 60.66 58.63 58.79 57.49 56.60 56.08 54.07 55.79 56.17 51.33 54.55 57.32 57.67 58.84 62.81 63.82 62.70 63.56 66.63 68.21 68.36 66.72 66.94 67.27 67.20 67.51
56.36 56.29 56.01 54.98 54.67 53.40 54.53 59.39 58.05 57.44 57.19 54.57 54.25 55.63 56.29 58.87 61.93 60.03 61.14 59.03 58.15 56.91 52.99 55.01 51.14 49.81 52.70 54.83 57.08 57.18 58.66 57.39 59.69 63.25 61.57 62.01 61.74 66.82 67.92 67.79 67.30 67.20 66.72 66.73 68.28
56.25 56.01 55.48 54.56 53.85 53.52 56.39 57.73 55.99 57.16 52.77 55.15 54.95 55.73 57.93 60.55 56.19 58.17 61.81 56.67 55.80 51.32 53.87 52.98 50.23 53.53 54.49 55.31 54.75 56.27 57.08 57.22 59.50 62.76 61.63 61.76 62.58 65.36 67.76 67.33 66.22 67.79 67.44 67.62 68.23
56.07 55.48 54.69 54.05 53.56 54.95 59.35 56.60 59.77 58.84 52.37 53.48 54.27 54.78 56.69 58.60 55.58 56.03 58.83 57.58 54.01 51.66 51.65 50.82 52.64 54.96 53.25 54.04 54.29 56.41 56.52 57.06 58.01 58.34 59.81 58.41 58.64 61.15 64.69 67.05 68.16 69.50 69.46 68.54 67.14
55.64 54.80 53.75 52.85 50.60 60.13 57.12 59.10 60.02 59.12 49.05 48.56 50.58 53.55 56.61 56.40 52.51 58.79 59.24 57.20 54.64 51.36 52.02 52.36 54.33 52.88 52.46 54.46 55.95 53.42 57.85 58.28 56.86 55.56 53.45 58.80 52.17 59.39 62.35 63.64 66.41 68.78 69.68 67.95 67.55
55.34 54.30 53.11 50.97 58.50 57.66 57.84 60.27 59.57 57.57 40.22 48.81 49.96 57.87 56.16 53.01 53.41 54.86 59.22 57.07 53.75 53.04 53.31 50.81 51.94 51.55 51.78 54.29 56.37 53.74 56.82 57.08 56.70 54.85 55.60 55.34 53.03 56.09 62.83 61.77 64.68 67.25 68.78 68.49 68.49
54.71 53.69 53.14 56.20 59.01 59.85 60.42 60.49 57.52 46.00 39.46 46.25 50.78 50.82 51.19 52.36 51.60 55.97 55.96 57.69 57.51 54.79 54.69 53.51 55.48 54.60 54.37 56.24 57.35 58.11 55.96 56.42 56.45 54.96 49.50 53.51 53.38 54.60 57.06 60.80 62.35 66.68 68.46 69.99 69.40
53.59 52.19 53.82 60.48 58.00 60.74 60.52 57.55 46.54 42.71 49.70 46.11 47.46 49.69 49.90 48.99 50.29 51.18 52.11 50.51 50.01 48.56 49.92 53.00 53.16 54.58 56.45 54.90 57.78 57.14 54.43 48.11 46.71 47.68 47.71 53.76 51.79 55.78 60.08 61.60 62.19 62.71 67.74 69.53 70.67
51.57 50.93 57.74 60.37 62.30 61.33 59.65 52.73 42.14 45.52 46.34 49.92 48.35 48.74 46.80 48.95 49.48 49.75 49.64 48.58 52.27 52.52 50.84 48.27 46.44 52.97 56.25 56.12 54.53 54.70 54.24 48.87 43.31 44.84 47.73 53.29 50.83 54.69 61.53 63.77 65.24 66.10 67.51 69.39 70.16
50.82 60.90 61.43 62.25 61.88 61.52 56.01 43.52 43.59 46.72 47.94 47.52 48.29 45.28 45.70 48.02 48.81 49.61 49.56 49.26 51.24 52.83 49.12 48.68 47.87 52.60 54.14 57.21 55.72 54.49 51.97 55.06 50.75 51.23 48.24 52.05 55.07 58.69 61.79 62.95 64.67 65.78 67.67 68.84 68.95
60.71 60.93 59.42 61.14 61.49 59.08 52.88 44.32 47.45 49.33 48.95 48.75 44.82 46.56 44.73 46.73 47.12 48.64 49.08 50.63 49.70 51.59 53.69 51.55 46.52 50.98 51.41 53.53 54.73 53.47 56.73 50.70 51.01 46.19 44.55 49.46 51.39 52.15 57.86 60.06 62.86 64.80 66.16 65.76 68.34
59.61 56.27 59.63 61.76 60.63 55.50 47.28 48.03 48.44 50.53 50.76 48.19 47.15 46.28 46.60 46.05 47.33 46.60 47.77 49.14 50.41 51.51 52.96 52.49 50.14 48.17 50.36 49.96 49.99 52.00 51.61 53.47 52.93 50.93 47.36 46.10 49.11 58.33 59.24 60.70 62.22 62.54 64.00 64.87 66.15
58.35 52.43 58.99 60.81 53.20 53.54 49.53 49.27 45.76 49.19 50.44 49.69 48.58 48.37 46.81 47.32 46.89 46.78 46.60 49.05 51.26 52.37 50.13 52.10 50.35 46.59 47.59 51.50 52.66 52.71 52.53 53.50 49.06 48.64 50.31 49.25 48.36 59.67 61.04 61.42 63.81 61.36 60.08 61.77 63.05
55.25 54.36 59.49 58.75 49.01 48.64 49.75 47.67 48.99 48.63 48.66 48.00 47.25 47.87 49.61 47.27 45.29 47.80 47.96 49.55 51.76 51.60 51.29 51.87 48.49 45.15 45.61 48.73 51.08 49.87 51.62 52.50 53.16 52.43 50.33 47.56 48.26 59.77 61.33 61.03 63.04 62.20 62.51 60.98 61.73
55.08 51.32 54.08 55.59 54.31 50.52 48.40 46.80 45.52 48.78 48.54 49.01 47.29 50.33 48.53 47.81 50.13 46.73 46.83 48.42 50.64 50.49 49.79 52.69 48.84 47.59 43.26 47.38 49.55 48.02 49.10 50.96 50.93 48.48 49.78 50.10 51.11 56.15 58.59 59.12 61.24 61.44 62.12 62.25 62.92
54.47 50.38 53.25 49.36 49.28 49.85 49.54 47.74 44.73 45.12 48.54 49.75 48.34 48.06 48.12 46.08 46.78 47.27 48.57 48.59 49.74 49.48 51.68 51.56 46.87 47.40 47.99 47.74 49.09 49.11 48.91 48.28 48.75 50.30 48.56 51.10 52.46 55.32 57.34 58.31 59.80 61.03 60.68 60.14 60.48
54.27 53.70 53.36 51.97 50.49 49.38 46.73 47.68 45.80 46.16 47.87 46.07 46.28 47.49 49.03 48.22 48.59 47.08 48.72 49.82 49.01 50.74 50.89 51.11 47.26 48.43 45.86 46.22 46.56 45.60 47.39 47.11 47.81 48.65 50.54 52.94 50.87 56.83 57.19 57.36 57.49 58.05 58.34 58.24 58.69
59.19 58.09 54.73 48.31 50.03 49.11 48.09 47.56 46.59 48.58 48.66 49.06 48.07 47.72 46.92 47.55 50.68 51.71 52.17 51.53 51.84 50.27 48.19 49.16 48.66 46.69 42.77 46.78 45.10 42.36 46.68 47.45 48.04 48.98 50.24 49.93 52.87 55.24 54.27 53.94 55.15 56.08 56.57 56.47 57.17

GFSSW_sfc_wetblb_096.txt.gz
Wetbulb
58.07 58.28 58.30 58.19 58.00 58.39 58.33 58.58 58.78 58.84 58.97 58.90 58.82 58.71 58.96 59.16 58.92 57.67 52.67 59.84 63.01 71.04 71.06 64.20 62.85 63.61 67.92 67.90 70.75 70.33 61.15 57.81 58.74 58.56 60.80 65.73 64.26 66.15 68.43 66.94 67.84 70.59 67.31 67.94 69.90
57.83 57.85 57.57 57.30 57.36 57.75 57.90 57.98 58.41 58.52 58.56 58.32 58.49 58.49 58.73 59.39 57.40 54.96 63.75 69.90 70.76 70.61 60.85 62.97 60.98 64.31 64.76 65.86 67.94 65.12 60.27 59.99 64.64 64.39 62.71 64.77 63.38 64.71 65.22 66.46 67.54 66.80 67.97 68.74 69.50
57.32 57.01 56.84 56.97 57.10 57.42 57.49 57.66 57.75 57.88 58.04 58.00 58.13 58.43 58.73 59.78 56.32 55.86 70.05 70.14 70.96 69.89 64.55 66.24 66.00 65.43 62.66 66.13 66.57 65.41 61.00 64.88 65.66 67.19 66.43 64.91 64.04 64.81 64.68 64.08 67.11 64.73 65.70 67.50 68.23
56.59 56.68 56.75 56.63 56.77 57.06 56.94 56.99 57.17 57.13 57.26 57.30 57.95 58.48 58.80 58.94 52.55 62.81 70.06 69.65 69.47 62.21 65.23 65.60 64.02 61.24 61.54 61.53 64.81 61.39 61.38 63.62 66.91 68.05 66.82 65.38 66.29 65.07 65.98 65.67 69.10 67.90 67.59 67.85 67.58
56.64 56.47 56.38 56.36 56.60 56.62 56.75 56.49 56.78 56.72 56.88 57.24 57.76 58.33 58.31 55.66 53.79 67.05 68.00 67.47 59.23 58.83 63.96 64.44 61.16 60.17 59.36 60.10 61.66 61.37 60.21 64.47 66.33 67.71 67.38 67.88 65.72 66.21 62.80 66.48 69.59 68.88 67.95 67.64 67.56
56.33 56.28 56.28 56.21 56.30 56.45 56.62 56.49 56.31 56.37 56.45 57.00 57.61 58.11 56.13 52.06 61.89 66.14 62.00 59.01 56.72 60.62 65.55 64.21 60.44 62.08 60.31 58.17 58.88 64.50 64.20 64.29 64.87 66.69 67.82 65.79 65.40 66.98 65.41 69.18 68.47 67.99 67.22 67.49 67.39
56.06 56.08 56.24 56.05 56.22 56.43 56.26 55.91 55.71 55.92 56.44 57.34 57.70 58.40 57.42 54.87 62.47 65.05 62.14 59.62 58.21 62.13 64.10 63.68 62.00 60.67 59.76 57.23 60.80 61.99 60.91 64.53 64.15 65.69 66.02 67.49 63.59 64.58 68.97 69.88 68.01 67.09 67.21 67.12 67.45
55.61 55.65 56.03 55.96 56.43 56.03 55.74 55.91 55.31 56.97 58.44 58.50 57.94 58.38 54.78 60.41 61.06 63.38 63.25 59.54 60.13 62.60 64.77 63.65 62.61 59.10 58.41 59.92 59.61 58.33 61.37 59.23 62.98 63.67 66.38 65.67 59.49 66.02 68.79 68.08 66.46 66.42 66.55 66.69 67.31
56.49 56.57 56.20 56.01 55.81 55.36 54.99 55.10 56.07 59.23 60.78 58.87 57.10 57.87 54.04 63.53 57.78 62.71 63.73 59.05 61.12 63.22 64.10 62.06 59.63 56.45 57.12 54.96 55.27 56.65 55.55 57.95 59.35 63.55 65.07 64.74 59.54 65.29 68.76 67.40 65.96 65.90 65.88 66.26 66.64
56.78 56.60 55.77 56.26 55.43 54.56 54.72 54.70 57.52 57.84 58.90 59.37 60.72 55.52 56.20 55.79 58.23 61.77 63.41 61.48 59.01 60.15 58.95 57.31 55.69 52.97 53.70 54.00 49.50 52.71 54.55 58.04 58.41 60.92 63.33 61.68 61.48 64.19 67.25 66.69 66.28 65.93 66.12 66.44 66.12
56.79 56.42 56.34 55.05 54.60 54.10 54.45 58.20 56.91 57.34 56.37 53.76 54.86 55.65 56.93 59.53 61.09 60.88 60.75 58.75 58.37 57.44 52.78 55.21 50.55 48.87 51.56 54.65 56.91 57.25 56.76 57.75 58.90 60.95 61.28 57.00 56.13 62.09 66.46 66.25 65.62 65.95 65.06 65.75 66.41
56.66 56.34 55.89 55.24 54.79 54.02 54.73 58.32 56.18 57.64 52.71 55.62 56.35 55.52 57.79 58.74 55.57 58.32 60.75 55.14 54.57 51.62 54.22 52.67 48.88 52.57 53.51 54.25 53.89 55.62 55.12 57.23 59.14 60.89 60.87 57.82 57.04 62.20 66.00 66.43 66.67 65.99 65.52 66.54 66.99
55.53 55.99 55.24 54.51 53.88 53.80 58.21 58.73 59.34 58.72 51.55 54.67 54.71 53.95 56.59 58.91 55.56 55.51 58.01 56.07 52.81 51.26 51.55 50.55 51.90 54.15 52.85 52.17 51.97 53.00 53.73 57.59 55.46 57.70 62.54 61.22 56.46 53.19 64.98 66.89 67.52 67.59 68.03 67.67 67.61
56.13 55.57 54.75 53.29 50.75 59.55 58.22 58.94 59.50 58.43 47.88 50.43 50.63 53.28 56.88 57.58 54.63 58.81 59.04 56.33 54.84 51.64 51.99 51.06 54.40 52.84 52.27 50.95 53.01 50.65 56.39 56.91 58.78 56.92 52.53 59.67 52.09 60.11 63.35 62.80 61.77 65.21 67.51 68.08 68.57
55.87 54.82 53.92 52.47 56.50 57.51 58.79 59.07 59.34 56.27 38.95 50.01 50.91 57.10 55.80 53.17 54.71 55.64 59.10 57.02 53.08 51.77 51.84 49.96 51.56 51.58 51.04 51.49 54.80 53.19 57.43 57.87 58.09 56.56 54.40 54.80 54.16 57.47 60.89 59.30 56.59 61.45 67.46 68.10 68.42
55.36 54.59 52.97 56.03 56.90 59.22 59.62 59.46 57.18 45.22 38.84 46.43 50.62 50.56 51.72 52.84 52.91 54.97 55.81 57.39 57.05 53.96 53.54 52.21 55.17 53.75 52.98 54.12 57.06 57.31 55.35 55.27 56.80 55.07 49.11 53.87 52.88 55.21 58.17 57.05 59.40 61.14 67.96 67.93 68.67
53.95 52.96 53.05 59.94 57.37 61.31 59.82 56.29 45.87 41.25 50.88 46.04 47.24 50.54 50.17 49.48 50.34 52.59 51.81 51.03 50.09 48.29 48.84 52.14 52.33 53.60 54.93 52.46 55.82 55.30 53.68 47.60 47.77 47.60 46.71 54.29 53.12 55.74 57.75 58.87 62.84 64.06 67.64 66.15 66.07
52.49 51.56 55.61 59.14 62.22 61.19 58.48 52.47 41.85 45.52 47.99 50.54 49.04 48.95 47.68 49.50 49.61 51.42 50.65 49.35 52.04 52.04 50.46 47.77 46.62 52.73 54.29 53.32 52.99 53.43 53.48 48.09 43.49 44.60 47.26 53.19 50.66 55.04 62.06 63.55 63.69 66.48 67.37 68.23 64.18
51.27 60.07 59.37 62.55 63.03 61.59 55.62 45.53 41.54 46.61 49.73 48.38 48.85 45.87 46.72 48.62 49.30 49.01 49.42 49.65 50.46 52.73 48.74 48.71 48.31 54.69 54.43 55.81 55.55 53.54 51.39 55.18 49.73 50.54 47.67 51.55 55.58 59.03 61.79 62.44 64.28 67.24 67.46 66.50 68.87
57.97 59.60 60.80 60.62 61.36 59.40 50.87 41.45 46.34 50.37 49.74 49.09 45.43 47.58 44.31 46.28 46.42 47.57 48.05 51.40 50.43 53.02 54.40 52.02 45.84 52.86 53.40 55.46 56.46 54.95 56.24 50.04 51.66 44.83 43.94 49.99 51.63 52.70 57.79 61.56 64.62 64.55 65.38 66.41 67.55
58.21 56.83 60.89 61.49 60.31 53.89 43.53 44.63 49.29 50.94 51.35 49.11 48.12 46.05 47.14 46.16 47.72 47.63 48.47 51.02 51.89 51.91 53.45 52.05 50.06 49.41 51.78 50.61 51.03 52.25 51.31 52.53 52.59 50.99 46.24 45.87 48.76 59.23 60.12 62.46 62.33 62.38 63.03 64.13 65.92
59.52 52.34 59.09 59.08 52.98 53.48 48.77 49.72 47.44 50.15 51.34 49.50 49.28 49.14 47.59 48.08 47.58 46.18 47.25 49.55 52.04 52.36 49.89 52.99 49.90 46.51 48.19 51.99 53.42 52.56 52.80 52.87 48.54 48.39 50.55 47.76 49.77 57.75 61.23 62.98 62.09 61.57 62.21 63.18 64.19
56.44 54.63 58.92 58.40 45.34 49.22 50.02 48.92 50.17 49.78 49.33 48.63 47.04 48.16 49.34 47.25 46.16 48.50 49.02 50.81 51.94 51.05 50.44 52.73 49.21 44.94 46.22 49.09 51.40 49.81 51.87 52.44 53.07 53.07 48.36 46.35 48.59 59.48 60.51 60.80 61.88 61.07 61.93 62.59 62.99
56.74 50.27 54.38 55.26 53.54 50.69 48.78 47.66 46.60 49.78 49.79 50.45 48.59 50.22 47.07 46.44 48.81 47.29 47.64 49.51 51.35 51.34 52.10 54.37 49.51 46.93 42.13 46.17 49.83 47.50 50.01 51.67 51.29 48.01 49.41 48.22 51.23 56.71 57.33 57.80 60.23 61.23 62.06 62.12 62.27
55.12 49.65 53.24 48.49 49.55 50.12 50.36 48.02 45.48 45.93 49.78 51.03 49.10 48.96 46.88 45.14 45.95 46.63 48.55 48.81 50.12 50.04 52.05 50.65 45.66 48.13 49.04 49.45 49.12 48.88 48.54 49.79 49.34 50.60 48.67 50.59 52.84 54.74 57.52 57.56 58.66 60.12 60.55 60.16 60.01
53.40 53.08 53.52 51.24 51.42 50.45 47.61 48.06 46.80 46.89 49.03 46.83 47.89 49.28 49.45 47.82 48.45 44.88 48.25 48.69 48.14 50.90 50.58 51.22 46.89 48.62 46.67 47.89 47.98 47.08 49.11 49.75 49.72 50.13 51.53 52.33 51.06 55.65 57.52 58.27 57.90 59.21 59.22 58.64 58.96
58.58 58.47 55.42 49.84 50.41 49.29 47.85 48.21 47.47 49.53 48.86 49.99 49.26 48.57 49.04 49.68 51.75 52.49 52.82 52.39 52.52 50.55 49.26 49.39 47.85 46.99 43.02 46.97 45.46 43.01 47.12 47.87 48.29 50.32 53.16 49.50 52.22 56.14 55.98 56.46 56.34 57.00 57.24 56.81 57.43

GFSSW_sfc_wetblb_102.txt.gz
Wetbulb
57.62 57.60 57.69 57.58 57.49 57.71 57.86 58.16 58.16 58.48 58.31 57.95 58.34 58.67 58.69 59.26 59.19 56.47 49.79 52.70 55.12 64.45 70.85 63.48 62.16 57.88 55.39 57.59 66.48 68.87 59.38 56.40 58.06 58.92 61.26 65.11 63.48 66.22 66.76 64.80 65.05 66.10 64.90 66.11 68.58
57.29 57.41 57.01 56.75 57.23 57.40 57.51 57.72 57.81 57.52 57.26 57.15 57.92 58.17 58.62 59.35 55.30 52.02 58.52 63.43 67.00 67.11 61.71 54.77 55.44 54.58 51.04 55.20 58.59 63.30 56.63 57.61 62.44 62.85 62.90 64.16 64.09 64.29 63.09 64.39 65.32 63.92 66.06 68.44 69.41
56.60 56.66 56.51 56.46 56.48 56.62 56.93 56.85 56.89 56.99 57.56 57.05 57.60 58.12 58.39 58.32 50.23 52.70 65.87 67.09 68.22 69.06 57.61 54.59 55.73 55.27 51.23 56.21 60.07 61.67 58.09 60.25 62.52 64.73 66.17 63.67 62.94 65.19 61.80 60.64 62.68 62.20 63.91 67.62 67.66
56.64 56.51 56.32 56.39 56.61 56.56 56.58 56.49 56.69 56.61 56.79 57.31 56.78 57.90 58.54 54.15 43.89 59.03 72.11 67.83 71.12 65.23 55.54 52.91 52.02 52.37 52.56 52.74 61.80 58.51 61.88 62.44 63.79 65.77 64.46 63.07 64.38 60.98 62.51 63.89 65.79 65.93 66.24 67.21 67.22
56.12 56.01 55.97 55.93 56.01 56.03 56.07 56.20 56.20 56.18 56.19 56.64 57.24 57.85 54.72 49.63 49.52 59.35 72.12 69.04 66.85 57.30 53.55 52.00 52.53 55.14 51.78 55.86 62.51 60.93 62.88 62.55 65.11 64.62 64.26 64.69 63.71 64.69 63.54 67.40 68.75 66.76 66.35 66.53 66.96
55.87 55.76 55.84 55.86 55.84 56.03 56.08 56.13 55.89 55.87 56.11 56.50 57.03 57.68 51.23 42.35 55.98 64.58 64.54 61.71 56.17 52.74 52.29 53.55 57.82 59.34 56.72 56.81 57.39 61.35 62.94 63.17 64.35 64.78 64.76 63.39 63.57 63.57 64.55 67.63 67.07 65.38 64.18 65.72 67.32
56.16 56.14 56.05 56.01 56.05 56.08 55.92 55.80 55.59 55.46 55.83 56.23 56.95 56.18 51.82 47.38 59.04 61.96 58.15 53.75 52.66 50.37 52.01 53.92 58.28 58.88 57.06 52.65 56.81 57.34 58.20 62.51 62.83 64.74 63.81 63.88 59.24 60.93 64.74 66.14 64.72 64.37 63.81 63.68 66.38
56.32 55.95 56.22 56.02 56.12 55.81 55.42 55.03 54.77 55.63 56.14 56.79 57.38 53.64 45.38 57.45 56.63 54.95 57.52 53.20 53.58 49.84 52.52 59.03 60.39 59.29 55.63 53.98 52.59 50.73 57.14 54.29 61.84 63.95 64.61 63.19 54.98 60.76 64.29 64.91 64.03 64.01 63.90 63.66 66.62
55.74 56.36 55.90 55.33 55.15 55.02 54.51 55.05 55.87 57.02 57.25 58.53 51.32 48.14 46.79 60.19 54.58 55.81 57.39 55.01 52.40 50.23 52.58 60.00 58.66 54.28 50.99 47.08 44.00 45.78 43.28 53.57 59.26 64.40 63.30 61.45 55.16 61.89 64.86 64.68 63.92 64.29 63.15 63.07 66.21
56.46 55.63 55.27 55.00 54.79 54.52 54.74 55.10 55.30 55.86 58.21 57.62 55.27 47.72 50.93 52.01 52.33 55.22 57.16 56.47 52.15 51.17 52.14 51.80 51.33 45.23 44.86 42.67 38.05 41.67 44.58 50.47 55.50 60.99 61.13 58.32 57.66 61.34 63.66 64.15 64.77 64.29 62.86 62.01 64.85
56.15 55.67 55.05 55.20 55.38 54.27 51.57 50.97 50.12 49.92 50.97 45.45 47.19 51.19 54.73 54.12 54.92 53.36 57.69 53.96 51.81 49.68 45.96 50.27 43.89 41.16 44.72 45.34 46.74 46.25 46.18 55.35 58.75 61.61 59.01 57.49 56.45 59.61 62.05 63.43 64.14 62.51 60.94 61.76 64.85
55.48 55.00 54.87 54.35 54.78 53.65 49.37 47.66 52.66 50.78 44.89 52.82 51.92 53.67 56.31 51.89 49.86 52.55 57.31 51.78 49.62 46.45 48.51 45.06 41.50 47.09 49.08 48.88 47.41 46.30 46.42 54.38 57.79 60.60 58.93 58.60 58.30 61.84 62.64 63.35 63.43 61.93 60.29 61.80 63.67
55.40 54.76 54.52 53.92 53.99 48.97 48.25 50.93 56.35 53.74 43.57 47.73 51.39 50.51 51.03 51.77 50.32 50.85 54.00 51.07 48.71 46.24 46.47 42.76 46.69 50.97 49.55 47.33 45.96 44.83 43.39 53.65 54.34 57.45 58.73 57.58 55.12 57.96 61.07 63.60 63.41 63.25 61.91 63.26 63.02
55.58 55.09 54.59 53.33 49.16 49.71 49.76 53.34 53.51 53.21 36.87 43.05 45.40 51.46 51.86 52.02 49.83 57.17 54.47 51.13 48.25 46.41 47.09 46.02 50.35 49.94 47.88 46.57 46.29 39.42 47.84 55.88 56.08 53.67 50.84 56.57 44.94 53.50 57.05 59.94 62.02 63.05 62.48 62.20 62.93
55.47 55.55 54.25 52.39 46.82 46.55 51.72 51.92 55.18 47.23 29.77 48.74 47.32 54.21 49.10 49.69 51.46 52.09 56.22 51.46 46.39 47.43 45.93 44.36 46.69 46.66 46.21 47.43 48.36 45.38 49.55 54.28 55.98 51.29 51.93 53.16 48.42 49.31 56.79 58.12 60.86 62.95 63.29 64.16 64.30
55.38 54.84 53.42 50.16 48.15 50.67 52.85 53.54 48.81 37.56 33.26 46.45 48.34 45.77 45.34 48.71 49.52 52.98 52.39 52.21 52.17 48.61 47.95 46.99 50.45 47.81 47.13 49.61 49.69 50.54 54.18 53.37 51.72 48.48 42.98 49.27 49.68 50.84 54.06 58.36 60.82 62.86 63.07 64.85 65.60
54.10 52.98 51.30 54.03 48.89 52.46 53.11 48.66 38.45 36.02 47.82 45.46 44.95 46.83 44.29 44.34 47.91 49.67 48.24 45.29 43.02 38.27 38.57 46.12 47.18 49.13 49.62 45.58 47.33 47.56 42.75 36.55 39.86 43.59 41.27 50.33 49.04 50.19 57.60 61.17 62.52 63.31 64.45 65.12 65.16
52.45 51.59 50.14 53.18 51.55 52.63 50.78 44.21 35.68 44.29 43.34 48.01 47.87 46.61 42.42 45.13 44.84 48.10 46.34 43.44 46.16 43.77 39.94 38.97 39.25 46.41 49.69 46.61 43.75 43.33 43.63 38.02 35.64 37.42 40.62 50.26 46.27 51.69 58.87 60.38 62.13 63.52 63.40 64.43 64.88
51.19 47.81 48.88 52.75 54.01 52.01 45.47 36.11 36.82 42.77 46.97 46.43 45.11 41.40 41.46 46.82 45.47 45.78 45.45 44.30 45.90 44.97 39.80 38.81 41.06 50.35 50.09 50.08 48.00 43.16 41.25 45.50 40.98 39.51 41.74 46.40 49.99 55.07 59.36 58.91 60.32 59.43 63.43 64.40 64.31
47.64 48.99 49.68 55.38 55.57 50.37 43.16 38.87 41.30 47.94 49.81 46.62 40.60 43.37 41.03 43.74 43.51 42.63 43.86 46.72 47.14 49.23 46.23 43.58 39.30 45.34 49.92 49.10 48.88 46.27 47.91 44.60 40.63 35.52 34.97 43.83 45.74 47.16 53.82 59.78 61.85 59.95 62.15 63.75 62.80
49.93 47.91 53.18 56.14 53.64 47.19 38.87 39.39 45.48 49.94 50.24 44.25 42.42 41.12 40.85 42.67 44.64 43.50 44.57 46.44 48.47 46.70 47.84 42.55 41.17 42.98 46.19 43.34 43.54 45.72 43.69 43.08 42.01 39.57 37.12 39.70 43.25 57.62 58.39 60.54 60.99 62.86 63.30 62.19 62.28
47.93 44.33 55.89 52.48 44.99 42.56 40.59 43.99 48.04 45.64 47.52 45.32 45.49 43.11 42.80 43.91 42.91 44.17 43.68 44.60 48.71 46.33 44.56 44.81 40.13 36.99 41.91 47.33 48.75 47.44 44.67 42.61 39.51 37.90 43.84 42.39 47.54 59.56 58.91 59.63 60.70 61.28 61.86 63.35 63.95
45.96 47.14 51.23 51.25 39.18 39.60 42.27 45.12 44.76 45.53 44.68 45.23 43.46 43.88 44.58 41.76 40.92 45.38 46.79 49.49 48.58 46.55 41.63 44.55 38.97 37.02 39.47 41.72 45.01 42.40 43.34 40.62 41.16 42.25 39.94 39.80 45.59 59.34 59.50 59.08 60.22 60.53 61.84 62.51 62.48
47.08 41.12 44.66 44.39 41.17 41.22 39.87 40.62 41.02 47.01 46.67 46.19 42.91 44.00 40.75 42.17 42.55 43.87 45.47 48.73 49.43 46.55 56.54 50.12 38.27 39.02 36.78 37.54 41.68 40.46 43.43 43.13 39.87 37.71 41.16 44.15 50.26 55.49 56.91 57.29 59.05 59.27 59.64 59.88 61.63
48.44 41.80 42.74 38.83 41.04 40.84 41.54 42.32 43.00 42.38 45.53 45.85 44.57 45.17 41.98 37.76 43.08 42.34 45.10 46.54 48.71 52.36 47.50 44.77 37.90 38.94 41.22 44.23 43.62 43.13 43.72 44.18 40.93 43.94 40.93 48.63 50.57 55.37 56.93 56.08 55.57 56.46 56.55 56.52 56.91
46.63 46.53 48.17 42.98 42.34 42.39 40.74 38.43 42.71 43.56 43.74 41.91 43.86 45.93 44.84 41.46 42.25 39.94 41.19 42.24 42.98 47.43 44.04 42.98 38.33 40.69 39.87 44.47 43.89 42.01 44.62 47.50 49.19 51.21 50.08 50.99 50.48 56.13 55.90 55.41 54.20 54.63 54.46 54.07 54.86
52.20 51.41 49.21 45.72 40.01 39.09 38.80 41.99 45.20 46.37 45.65 47.20 46.73 44.28 42.87 44.12 45.44 42.98 45.06 43.43 42.90 41.79 41.97 41.59 39.25 39.20 36.54 41.49 40.73 37.13 41.71 45.17 50.03 51.40 51.88 48.20 51.80 55.19 53.96 53.73 52.99 53.55 53.71 53.42 52.86

GFSSW_sfc_wetblb_105.txt.gz
Wetbulb
57.11 56.94 57.15 56.85 56.69 56.80 57.07 57.40 57.41 57.56 57.38 57.04 57.69 58.24 58.30 58.51 58.44 55.93 47.80 51.69 54.34 64.47 71.41 66.48 61.76 58.12 56.42 57.68 65.41 67.12 58.17 55.20 57.47 58.69 60.33 63.16 61.57 65.56 67.03 63.81 64.86 65.58 64.38 65.93 68.34
56.79 56.56 56.56 56.45 56.42 56.29 56.45 56.58 56.69 56.59 56.98 57.15 56.76 57.44 58.36 58.60 54.25 51.24 57.28 62.24 64.27 68.64 60.59 58.34 56.15 54.44 49.84 52.42 56.87 61.76 56.53 56.66 61.36 61.61 62.49 63.01 62.97 63.72 63.04 62.84 62.58 63.34 65.83 67.70 68.35
56.80 56.65 56.49 56.49 56.49 56.41 56.51 56.53 56.32 56.50 56.46 56.56 56.91 56.61 58.13 57.45 47.91 47.11 63.75 64.73 67.41 67.35 57.31 54.52 56.21 52.82 49.37 53.40 56.92 61.65 57.45 60.43 61.49 63.36 64.54 63.20 62.78 64.21 62.42 61.62 62.16 61.42 63.29 66.55 66.70
56.43 56.38 56.40 56.46 56.30 56.12 56.12 56.12 56.10 56.28 56.18 56.18 56.61 57.15 58.23 52.80 36.65 56.12 70.82 66.66 68.27 62.24 55.17 51.96 51.22 50.43 50.05 50.94 59.56 57.39 61.34 62.11 62.89 65.06 64.53 62.51 64.15 61.74 63.37 64.37 65.88 64.93 66.28 66.43 65.83
56.12 56.03 56.11 56.27 56.18 55.86 55.95 55.95 55.78 55.78 55.99 56.14 56.42 57.06 54.10 46.82 45.63 54.01 72.51 66.47 64.32 59.03 52.54 50.15 50.02 52.11 50.02 52.51 61.03 58.89 62.40 63.01 65.64 64.61 64.03 64.32 62.56 61.72 62.65 66.58 66.78 67.03 66.88 65.81 65.78
56.12 56.21 55.93 56.10 55.93 56.08 56.37 55.84 55.50 55.61 55.72 56.05 56.22 57.01 49.74 38.49 49.18 60.29 63.48 64.28 60.68 54.23 51.19 51.68 52.12 55.39 54.51 54.50 58.16 61.68 62.07 62.67 64.37 64.28 63.66 62.77 62.41 64.04 63.87 67.64 65.72 66.18 65.47 65.83 66.44
55.96 56.37 56.39 55.83 55.69 55.94 55.65 55.42 55.15 55.08 55.35 55.72 56.16 55.76 50.60 45.03 59.24 60.73 60.07 56.14 53.92 51.90 49.95 52.03 55.21 57.50 56.77 53.32 55.58 56.71 58.84 62.01 62.99 63.54 62.23 63.38 59.51 60.65 65.00 66.04 63.97 64.40 65.33 65.99 66.92
56.49 55.83 55.79 55.77 55.36 55.12 54.81 54.37 54.37 54.75 55.49 55.93 56.50 52.27 43.14 54.44 55.76 54.33 55.78 52.33 52.07 48.34 48.95 54.22 57.17 56.88 56.25 56.81 51.85 49.66 56.34 55.80 61.41 63.89 62.48 62.12 54.90 61.73 64.62 64.47 63.16 62.98 64.49 65.67 66.61
55.77 55.70 55.68 55.41 54.88 54.57 54.82 55.02 55.77 56.07 56.38 57.17 49.78 47.18 43.77 57.37 53.49 54.30 54.99 54.22 50.74 47.74 48.34 54.67 57.94 53.94 52.39 45.87 42.90 44.09 43.31 53.55 57.72 63.93 62.37 59.91 55.71 61.66 64.44 64.00 63.16 62.45 62.10 64.42 65.52
55.84 55.67 55.27 55.23 54.96 55.04 54.76 55.06 55.04 55.78 57.80 57.28 54.57 45.48 49.77 49.13 52.22 54.11 54.22 55.29 49.90 49.46 49.62 50.18 49.69 44.99 42.74 42.12 38.04 40.69 42.36 50.20 56.21 61.03 62.09 58.43 56.90 60.78 63.26 63.37 63.71 63.36 61.30 63.71 64.82
55.85 54.92 54.87 54.46 54.31 54.32 50.74 50.37 48.72 47.24 49.81 43.82 44.53 48.30 52.12 54.24 54.30 52.30 55.68 52.84 49.59 47.54 43.60 47.46 43.38 40.62 44.11 45.09 45.69 45.22 45.60 55.02 58.41 59.96 57.29 56.46 57.53 59.35 62.17 63.18 63.60 64.21 59.42 63.09 64.27
55.80 55.23 54.52 54.13 53.65 53.15 48.30 45.40 50.41 50.22 44.75 51.04 50.49 51.23 54.11 51.78 48.22 50.29 54.46 49.24 47.29 43.43 47.08 43.85 40.91 46.21 48.33 47.76 46.38 45.02 50.59 54.19 57.52 60.37 58.86 56.05 56.81 60.03 61.57 62.24 63.39 63.83 59.19 62.85 63.64
55.55 55.19 54.53 54.04 52.83 49.23 46.26 48.15 52.61 50.49 42.29 46.71 50.25 49.47 49.73 50.72 47.98 48.43 53.20 50.33 47.11 44.45 45.05 42.14 45.48 49.59 48.01 45.92 45.22 41.51 43.28 53.10 54.04 57.28 59.19 57.41 55.22 57.44 60.73 62.72 63.87 65.04 60.77 63.62 63.53
55.29 55.02 54.45 53.13 47.13 48.24 47.35 50.13 51.75 50.69 36.17 42.75 44.24 50.06 50.51 50.05 47.55 54.31 54.23 51.39 47.10 45.69 45.72 44.36 49.24 48.52 45.45 45.41 45.43 36.95 46.25 55.40 55.34 52.00 47.68 56.88 46.10 53.68 59.02 60.24 62.37 62.94 60.89 62.48 63.57
55.36 55.16 54.05 52.13 45.40 46.01 50.34 50.16 49.88 45.87 30.87 48.05 47.23 51.86 48.44 48.32 49.73 50.90 53.72 50.33 45.34 46.26 45.14 43.84 45.70 45.74 44.82 46.27 47.18 44.37 48.73 53.55 55.06 51.46 50.80 53.49 47.12 47.62 58.29 57.63 60.02 62.12 61.19 62.44 64.24
55.08 53.80 53.08 49.69 48.12 50.10 51.98 50.35 47.08 37.55 34.20 45.32 48.32 47.52 44.56 46.79 48.64 51.94 51.01 51.26 50.83 46.96 45.59 45.80 48.60 47.14 46.55 48.34 48.40 50.39 53.41 52.17 49.84 47.60 42.34 50.55 48.73 48.65 53.40 57.10 59.45 61.96 62.68 62.48 64.30
53.76 52.33 50.79 52.50 48.94 50.33 50.57 47.54 38.50 33.99 46.16 44.08 43.56 45.80 42.92 41.14 46.10 48.58 47.05 43.55 42.02 37.66 36.89 44.07 45.91 47.54 48.32 43.00 45.29 45.52 44.99 38.75 39.96 40.82 40.75 47.12 47.63 48.47 56.23 59.71 61.01 61.58 62.37 63.35 63.82
52.06 50.93 50.00 51.96 49.86 51.82 48.48 43.03 34.52 43.19 42.24 46.54 46.33 44.49 40.51 43.87 44.79 45.74 44.83 42.44 43.56 42.30 37.73 37.05 37.67 45.24 47.34 45.31 42.19 41.91 43.14 36.98 34.85 37.36 39.62 47.60 43.27 48.64 57.81 60.86 62.38 64.40 64.10 65.14 65.30
50.74 47.25 47.67 50.56 51.85 49.59 44.21 34.49 35.84 39.97 45.77 45.36 43.63 40.94 40.09 45.68 45.32 44.64 43.44 41.78 45.06 43.99 38.90 36.43 39.43 48.23 48.60 47.82 47.09 41.67 40.07 43.61 38.45 37.13 41.25 44.60 47.81 54.15 58.55 57.83 61.24 61.97 63.57 64.34 64.63
47.21 48.62 48.69 53.46 53.34 48.65 41.79 37.63 39.28 46.29 48.33 44.23 38.72 41.45 38.55 41.88 42.86 41.27 42.41 44.55 45.01 46.94 42.99 40.33 37.26 43.55 48.44 47.70 48.75 43.93 46.31 40.69 38.14 33.45 33.88 42.72 43.75 46.65 54.79 56.93 57.43 60.71 61.21 62.85 64.70
47.69 48.30 52.22 52.81 51.28 44.95 37.81 37.46 43.66 48.12 48.87 43.62 40.25 40.21 39.64 42.12 42.91 42.27 40.28 44.97 46.10 45.57 46.09 41.02 39.56 42.14 44.05 41.45 42.60 44.97 42.71 40.89 39.78 37.71 37.86 38.15 43.78 57.16 57.30 60.22 60.36 61.19 61.66 62.71 64.12
46.02 43.81 52.39 51.86 43.77 39.86 38.48 42.78 46.25 44.22 45.95 44.58 43.97 42.33 41.97 43.91 41.81 43.08 41.59 42.49 47.39 45.47 42.04 42.92 38.31 36.26 40.08 45.22 45.82 43.86 43.10 41.47 38.03 37.26 40.50 41.74 45.59 59.32 60.18 60.97 61.15 61.23 62.03 62.68 62.23
44.57 45.15 50.55 50.47 37.71 38.23 40.32 44.59 44.37 44.08 43.48 43.70 42.12 43.19 44.61 42.15 41.07 45.04 46.01 48.19 47.09 46.55 42.21 42.29 37.61 35.43 38.49 40.64 44.02 41.36 41.39 38.82 39.70 40.70 39.16 39.78 45.82 59.31 59.80 59.54 61.06 60.93 61.63 62.52 63.65
45.98 39.83 42.99 43.11 38.83 38.19 37.72 38.74 40.26 46.50 45.04 43.95 41.69 42.55 41.43 40.91 42.37 40.61 44.90 49.25 49.08 48.49 55.85 48.06 37.03 36.87 34.40 36.88 39.58 38.05 41.57 40.67 38.35 36.75 39.92 43.26 51.54 56.29 57.59 56.55 57.67 59.06 60.82 60.99 61.27
45.21 41.04 41.71 38.13 40.63 39.31 38.62 40.57 41.37 40.53 43.66 44.94 44.03 43.30 39.30 37.09 39.60 40.78 44.49 45.01 49.22 52.01 46.07 43.02 38.44 39.04 42.01 42.37 42.43 41.53 43.46 42.77 38.79 41.70 39.90 49.73 51.82 55.54 57.34 56.97 55.81 57.17 58.37 57.92 58.53
45.68 45.22 46.51 41.65 39.76 38.81 38.06 36.52 41.17 41.39 42.08 41.75 41.96 43.90 43.27 40.16 39.98 38.74 40.28 41.18 41.77 46.24 44.46 42.63 38.20 39.69 40.60 44.68 42.86 40.96 42.94 47.52 48.70 50.73 49.56 51.78 52.07 57.38 57.52 54.61 53.77 55.00 54.41 54.06 54.91
50.09 49.26 47.63 42.85 38.46 38.79 37.61 40.19 43.67 43.68 43.90 45.79 45.47 42.83 41.99 42.99 43.73 42.85 45.30 41.58 39.55 39.78 40.74 42.09 39.54 37.75 35.37 40.51 41.68 37.35 40.85 42.33 49.23 50.82 52.65 49.95 53.26 55.19 53.41 53.01 52.89 53.37 53.36 52.75 53.55

GFSSW_sfc_wetblb_108.txt.gz
Wetbulb
56.58 56.51 56.49 56.36 56.17 56.19 56.39 56.54 56.46 56.66 56.90 57.21 57.30 56.81 57.21 57.54 57.90 54.84 46.44 50.73 53.83 63.88 66.45 65.57 62.96 59.03 61.42 60.91 65.38 66.58 57.39 54.57 57.50 58.72 59.05 63.29 61.54 65.61 67.04 62.67 64.68 64.95 63.83 65.49 68.30
56.63 56.48 56.67 56.53 56.57 56.42 56.30 56.51 56.32 56.30 56.49 56.42 56.75 56.89 56.63 57.49 52.94 49.53 56.13 61.16 63.54 68.78 64.17 58.99 54.93 53.20 48.63 52.43 58.92 61.16 56.16 56.87 60.61 61.84 60.57 61.91 62.27 63.58 62.39 61.71 61.63 62.89 65.54 67.60 68.15
56.35 56.22 56.03 56.03 56.29 56.24 56.31 56.06 56.04 55.98 56.02 56.15 56.37 56.62 57.58 57.24 45.02 42.99 61.33 63.85 65.96 68.84 60.25 57.38 55.88 51.55 48.55 52.25 55.63 61.25 57.04 60.82 62.08 63.61 62.91 62.64 62.78 64.19 61.78 59.42 60.94 61.36 63.94 66.23 66.63
56.44 56.50 56.23 56.05 56.18 56.07 55.83 55.99 56.03 55.87 55.79 55.83 56.09 56.61 57.43 52.53 35.16 53.09 67.18 65.11 67.02 63.05 53.19 52.39 51.76 49.45 48.83 50.14 57.48 57.73 61.45 61.84 62.47 65.50 64.62 62.21 63.26 61.96 63.54 63.11 64.40 65.02 65.98 65.93 65.44
56.36 56.02 56.08 55.98 56.16 56.23 56.03 56.17 55.80 55.53 55.51 55.58 56.12 56.61 52.77 44.50 44.45 50.83 72.02 66.16 63.30 57.54 51.35 49.17 50.17 50.09 49.50 51.76 59.59 57.50 61.49 63.35 65.18 65.46 64.41 64.19 61.81 61.82 62.84 65.80 65.24 66.35 65.88 65.12 65.24
56.07 55.97 55.78 55.68 55.45 55.56 55.99 55.86 55.71 55.39 55.42 55.51 55.84 56.38 48.25 38.53 48.01 59.22 62.47 61.40 59.81 53.36 50.19 49.86 50.86 54.37 53.08 53.22 56.51 59.37 61.37 63.14 64.45 63.89 63.95 61.96 61.65 62.06 63.16 66.71 64.13 65.38 64.70 65.06 65.19
56.10 55.88 55.50 55.50 55.20 55.05 54.93 54.47 54.38 54.38 54.65 55.19 55.62 55.47 49.64 43.50 55.89 59.33 60.35 57.19 56.10 52.26 48.91 50.13 53.76 54.05 55.81 52.72 55.30 58.44 57.99 61.70 62.74 62.50 62.40 63.33 58.88 60.56 65.20 65.44 63.02 64.30 64.59 65.09 65.51
55.74 55.67 55.65 55.09 54.92 54.63 54.50 54.52 54.75 54.63 55.05 55.28 55.97 51.19 40.87 52.13 54.28 53.31 54.54 51.85 52.42 48.18 49.09 51.18 55.10 55.19 55.16 56.03 49.74 52.15 56.67 54.61 61.26 62.59 63.08 61.08 54.83 62.22 65.13 64.37 62.66 63.62 64.28 64.86 65.53
55.49 55.51 55.16 54.75 54.61 54.74 55.16 55.30 55.77 55.88 55.63 56.32 48.07 44.90 40.98 56.28 51.51 54.63 53.25 51.91 49.39 46.80 47.85 53.76 54.06 51.69 51.95 45.39 42.46 43.09 46.14 53.53 57.77 62.74 61.39 59.66 55.54 61.04 64.70 64.17 61.79 62.98 63.70 64.37 65.10
55.59 55.12 54.67 54.36 54.04 53.67 54.29 54.61 56.43 56.52 56.34 56.61 54.51 44.39 48.43 48.58 51.27 52.44 52.04 52.13 48.40 47.57 47.37 47.23 47.71 44.78 42.24 41.56 38.63 39.32 40.39 52.19 55.67 60.31 61.60 58.54 57.79 60.97 63.28 63.33 62.52 62.47 63.32 64.10 64.46
55.52 55.09 54.91 54.12 53.67 52.91 49.70 49.87 46.17 44.66 48.67 43.86 43.74 46.65 49.28 52.68 52.76 51.40 53.50 51.96 47.73 43.70 40.69 45.26 43.58 41.47 42.03 44.54 44.87 44.13 52.66 54.45 58.08 59.45 57.98 56.39 56.11 59.30 62.25 62.60 62.32 61.00 61.09 63.01 63.95
55.49 54.98 54.70 54.10 53.56 52.74 47.79 44.23 46.98 48.85 43.63 49.76 49.92 48.91 51.41 50.06 47.24 49.23 53.84 49.47 45.71 40.99 44.40 43.32 41.53 46.74 47.99 46.46 45.45 48.36 53.08 53.87 57.69 60.11 56.83 56.01 56.21 60.22 61.47 61.95 63.05 63.26 58.70 62.15 63.17
55.31 54.94 54.43 53.87 52.85 49.49 45.18 47.01 50.62 49.56 41.21 45.71 49.12 48.28 48.25 50.72 47.75 47.77 51.52 48.06 45.19 43.57 43.86 42.72 45.40 48.25 47.05 44.73 44.14 40.69 49.84 53.04 53.24 57.62 57.77 56.34 54.76 57.48 61.16 62.54 63.61 64.61 60.96 63.13 63.57
55.26 54.73 54.16 53.16 46.58 47.24 46.31 49.26 49.98 49.32 36.53 43.45 43.73 48.53 48.96 48.27 45.93 52.42 52.64 50.52 45.88 44.00 45.43 43.99 48.23 47.11 45.04 44.36 44.32 37.59 47.15 56.26 55.39 50.47 47.46 55.46 46.07 54.95 58.32 59.52 61.60 62.70 60.01 61.96 63.55
55.02 54.16 52.99 52.49 45.70 45.94 48.05 48.36 47.52 44.49 30.17 47.42 47.19 51.15 47.05 45.23 47.94 48.96 52.86 49.58 44.35 45.72 44.96 43.65 44.79 44.80 43.90 45.19 46.20 43.60 47.77 56.00 54.53 51.02 48.76 52.91 46.66 49.36 58.05 56.97 59.27 61.74 61.33 62.36 63.79
54.65 53.32 52.62 49.23 47.91 49.01 50.85 47.55 45.31 37.57 32.50 44.00 48.08 46.39 43.70 44.56 47.13 50.23 49.52 50.27 49.24 45.92 44.28 45.07 47.34 46.47 46.18 47.52 47.70 52.56 52.82 51.30 49.47 48.06 42.41 48.58 47.96 48.23 54.25 56.68 58.99 60.91 62.86 62.44 63.78
53.74 52.04 50.84 51.38 47.03 49.60 49.58 47.03 37.46 32.52 44.60 42.48 41.85 44.24 41.71 40.21 44.93 47.83 45.54 42.68 41.25 37.23 36.35 42.66 44.19 46.00 47.00 42.15 43.78 45.60 44.22 40.54 39.16 40.49 39.86 44.52 47.49 47.26 55.00 59.54 60.43 60.24 61.96 61.87 64.02
52.07 50.17 49.62 51.16 49.10 49.73 47.16 42.13 33.14 41.93 40.71 44.58 44.67 42.82 39.46 41.35 41.79 44.94 44.06 41.42 43.12 40.97 36.37 36.62 36.45 43.96 46.24 44.54 41.51 42.68 43.75 39.88 35.04 37.17 39.76 46.74 44.16 48.12 57.44 59.41 62.21 62.48 63.58 61.77 63.04
50.83 45.93 46.70 48.97 50.87 48.13 43.42 33.99 34.74 38.56 44.46 44.01 41.98 39.63 39.21 43.89 43.94 43.53 42.18 41.56 43.56 42.89 38.00 35.32 37.80 46.35 46.37 45.60 46.03 40.51 40.56 43.79 39.02 35.30 40.26 43.40 47.53 53.53 58.15 59.42 61.27 62.12 62.97 62.57 62.72
46.94 47.22 48.32 51.71 51.38 47.07 40.79 36.66 37.84 43.98 45.97 43.55 37.09 40.07 37.79 41.33 42.74 40.49 41.17 43.25 43.43 45.28 41.75 39.51 35.57 42.04 46.18 47.54 47.13 43.10 44.95 39.01 36.88 32.78 33.20 41.58 43.92 46.27 54.55 56.60 60.45 61.13 62.66 63.19 63.34
46.27 46.59 50.57 50.88 49.04 44.03 36.77 36.10 41.92 46.18 46.99 41.72 39.93 39.75 39.25 42.00 42.22 40.93 39.55 43.74 44.90 44.85 44.15 39.76 38.66 40.89 42.41 39.76 42.60 43.40 40.54 39.03 39.07 37.54 37.80 37.98 42.55 56.45 56.57 57.18 59.55 61.27 63.08 63.62 63.98
44.60 43.55 50.50 48.92 43.17 38.13 37.56 41.26 45.12 42.83 44.62 42.64 43.40 42.47 41.74 41.75 41.92 42.19 40.13 42.02 46.25 44.80 42.56 41.85 37.14 35.63 40.04 43.24 43.81 42.55 41.26 40.32 37.71 38.26 39.73 40.72 43.50 59.71 60.17 61.51 60.29 60.85 62.38 63.38 64.30
43.79 44.53 49.96 49.09 37.75 36.83 39.61 41.78 43.05 42.84 42.21 42.48 42.63 43.70 41.96 38.65 39.37 42.48 43.84 47.63 48.37 45.06 42.39 42.27 36.53 33.56 37.04 38.84 41.99 39.92 39.88 38.42 39.21 41.35 39.95 39.72 43.55 59.58 60.12 60.18 61.36 60.46 61.70 62.12 62.82
44.05 40.21 42.78 41.13 37.55 38.20 36.45 37.78 38.67 44.83 43.20 43.17 41.58 42.50 39.91 40.28 39.95 42.06 43.86 48.16 49.57 50.10 52.86 48.00 37.27 35.65 33.83 34.91 38.54 38.16 41.65 39.91 38.35 36.75 38.64 41.37 49.68 56.29 57.45 58.44 60.18 61.09 61.69 62.25 62.91
43.37 40.07 40.71 38.49 39.66 36.99 38.00 39.01 39.94 39.33 42.40 44.26 42.41 41.14 38.88 37.19 39.92 40.01 42.40 44.90 48.11 50.14 45.53 43.26 37.68 38.67 39.32 40.95 41.68 40.63 42.05 44.08 37.95 39.56 40.97 44.38 49.96 54.51 57.17 57.50 59.05 60.12 60.60 60.30 60.09
44.92 44.11 43.70 39.21 37.23 36.67 37.58 37.61 38.80 40.72 41.16 40.50 40.81 42.67 40.99 37.91 38.42 38.21 39.82 39.97 41.59 44.24 43.73 43.76 40.04 39.65 40.44 43.60 42.38 40.06 44.92 43.13 49.04 47.61 48.87 50.48 51.31 57.83 58.25 57.10 57.63 58.25 57.99 57.05 56.91
48.16 47.74 45.51 39.88 37.32 37.57 36.73 39.04 42.21 42.34 42.14 43.20 43.40 41.82 40.54 40.64 41.56 40.86 40.55 40.96 39.09 39.58 40.82 41.20 39.84 38.07 35.09 39.89 42.34 38.61 42.21 41.28 48.13 50.30 51.30 47.99 52.08 56.39 54.30 54.98 54.39 53.95 54.73 54.66 54.91

GFSSW_sfc_wetblb_111.txt.gz
Wetbulb
56.70 56.58 56.45 56.32 56.32 56.30 56.29 56.44 56.90 56.77 56.64 56.65 56.76 56.93 56.72 56.75 57.29 56.26 49.67 54.53 56.90 64.74 68.69 64.79 65.09 63.21 66.80 66.47 67.53 66.77 59.44 56.33 57.41 58.36 59.90 63.21 61.94 65.45 66.69 63.89 65.05 65.98 65.40 67.35 69.78
56.48 56.46 56.27 56.21 56.21 56.19 56.17 56.23 56.21 56.23 56.16 56.37 56.44 56.59 57.04 57.40 54.03 51.17 57.73 60.44 62.96 68.19 63.45 60.01 58.29 59.51 59.49 62.08 65.24 63.62 60.06 57.38 61.26 61.89 60.80 61.94 62.58 63.06 62.72 63.29 63.10 64.26 67.16 68.58 69.34
56.61 56.42 56.42 56.16 56.12 56.10 56.00 55.98 55.76 55.76 55.72 55.91 56.30 56.29 57.10 57.46 49.35 46.79 60.68 62.82 64.57 68.13 63.44 60.48 58.95 57.83 54.97 58.16 60.32 62.60 59.16 61.77 62.64 63.26 63.70 61.93 62.11 64.70 62.30 60.84 63.23 62.83 65.22 67.24 68.18
56.60 56.43 56.40 56.30 56.31 56.16 56.16 55.89 55.91 55.80 55.63 55.59 55.99 56.36 57.69 55.01 41.38 57.74 66.34 64.10 67.49 66.42 61.26 58.26 56.37 54.43 53.80 55.35 60.67 60.19 62.41 62.80 63.67 64.42 62.49 62.14 63.31 62.93 63.68 63.82 65.80 66.21 67.04 67.35 67.19
56.63 56.11 55.86 55.94 55.97 56.11 55.97 55.80 55.80 55.57 55.29 55.68 55.80 56.37 55.23 49.68 48.25 53.41 67.48 64.91 65.99 59.69 57.26 56.53 54.37 55.00 54.08 56.38 60.38 60.53 62.11 63.79 65.20 63.97 64.29 64.05 62.02 62.10 62.44 65.57 66.97 67.11 67.01 66.66 66.55
56.20 56.18 55.83 55.50 55.29 55.17 55.28 55.21 55.21 54.96 55.02 55.11 55.60 56.14 52.30 44.40 54.52 64.21 67.01 62.47 62.63 57.72 54.40 56.37 55.01 57.91 56.73 56.76 58.55 60.67 63.04 64.20 64.73 63.01 63.77 61.35 61.53 62.77 63.43 66.04 65.65 65.73 65.61 66.14 66.09
56.08 55.75 55.58 55.25 54.94 54.85 54.60 54.34 54.18 53.79 53.84 54.40 55.15 55.93 51.31 48.47 56.38 63.58 63.09 60.38 59.53 57.08 53.64 54.26 56.79 57.63 59.36 57.31 59.45 62.63 60.89 62.72 63.36 63.55 62.52 62.73 59.44 59.88 64.68 64.56 64.38 64.46 65.16 66.18 67.28
55.79 55.72 55.66 54.97 54.74 54.73 54.99 55.33 54.94 54.48 54.66 54.89 55.64 55.05 46.86 53.30 56.83 61.81 58.27 57.16 56.25 54.63 54.57 55.80 57.49 58.50 59.21 60.60 53.74 59.05 60.53 56.18 62.29 63.65 63.03 62.39 56.33 62.03 64.97 63.72 63.56 64.26 65.33 66.24 67.52
55.60 55.50 55.13 54.68 54.37 54.05 53.81 55.03 55.55 55.34 55.70 56.18 54.12 52.07 46.05 58.34 53.82 58.51 57.92 53.76 56.38 54.99 54.90 55.65 55.35 55.98 57.75 54.37 50.17 53.29 52.47 55.57 58.85 63.28 62.56 61.00 57.68 62.46 65.17 62.91 64.07 64.88 65.59 66.37 67.24
55.55 55.48 54.88 54.73 53.80 53.34 53.14 54.78 57.25 57.18 56.48 56.48 55.36 49.55 53.07 52.16 54.81 55.64 56.20 55.97 53.10 53.07 51.25 51.45 53.66 53.41 53.73 51.56 47.84 48.04 50.22 56.75 57.25 60.85 61.52 59.54 57.68 60.66 63.57 62.63 63.86 65.06 65.63 66.31 66.82
55.76 55.09 54.72 54.63 54.24 52.95 52.06 55.16 51.68 51.18 52.83 50.38 50.42 49.58 51.30 55.93 55.84 53.33 55.96 52.97 52.42 50.65 46.53 51.06 50.54 50.02 53.32 53.17 50.62 50.89 54.47 57.08 58.84 61.05 59.85 57.36 56.61 59.60 62.71 64.03 63.83 64.61 65.26 65.92 67.07
55.55 55.04 54.90 54.17 53.48 52.70 51.12 50.55 52.45 53.76 49.12 52.20 52.07 50.90 52.83 53.98 50.53 52.36 56.58 51.99 48.99 44.87 49.06 49.31 46.93 53.47 53.41 50.31 50.72 59.10 57.60 56.47 59.12 60.02 58.86 57.51 57.56 60.26 62.09 63.03 64.03 64.35 65.21 66.23 67.42
55.50 54.76 54.24 53.91 52.88 51.22 50.36 51.47 54.57 55.01 48.81 49.60 52.08 51.65 52.10 53.72 50.99 51.48 54.17 52.73 47.22 46.27 48.62 47.69 50.02 54.12 51.70 49.46 48.99 52.24 54.09 56.44 56.57 58.69 59.59 58.77 56.27 58.80 61.92 63.46 64.47 65.36 65.72 66.60 67.27
54.90 54.51 53.56 52.84 49.62 51.84 51.21 54.10 54.53 54.41 46.42 48.42 49.97 52.03 52.98 52.30 50.09 54.75 56.47 53.05 50.08 46.47 49.93 50.91 51.39 52.31 49.64 49.43 50.41 47.99 53.08 58.74 56.77 54.99 51.73 57.06 47.62 54.64 59.55 60.71 62.22 63.70 64.93 64.94 66.93
54.87 54.02 52.60 51.98 50.17 51.50 52.97 54.90 53.37 50.85 36.64 49.83 50.75 55.13 52.22 50.52 51.87 51.44 56.70 54.65 49.15 49.26 50.27 49.41 49.61 49.13 48.62 50.15 50.76 49.31 53.04 59.04 57.30 55.07 54.39 53.49 51.06 53.89 58.76 58.10 60.65 63.20 64.75 65.16 66.66
54.26 53.63 52.43 50.89 50.80 53.92 54.92 53.77 51.41 44.68 36.19 46.51 50.35 49.53 47.91 50.01 51.24 52.60 52.66 55.17 53.66 50.26 50.72 50.29 51.98 52.41 51.76 51.76 52.05 55.59 57.92 57.31 56.43 54.82 46.45 52.38 52.05 52.12 55.82 57.44 60.62 63.12 64.54 65.99 66.34
52.88 51.82 51.34 52.64 53.45 54.47 54.48 52.61 45.29 39.34 47.92 44.86 46.39 48.82 47.51 47.45 49.87 50.77 50.19 49.64 47.74 45.04 45.95 49.13 48.91 50.99 51.39 48.99 51.51 54.42 52.50 46.82 46.15 46.56 45.42 52.49 52.19 53.97 59.32 61.23 62.12 62.19 64.27 65.58 66.99
51.61 50.58 51.69 53.20 54.83 54.20 53.70 49.69 39.56 44.15 44.93 48.49 47.97 47.38 45.11 47.08 48.30 49.76 49.10 47.73 48.28 47.96 46.14 44.76 42.78 49.27 50.71 50.36 48.17 53.88 52.06 46.55 40.52 42.55 46.72 53.08 49.89 53.79 60.66 62.81 64.60 64.63 64.46 65.51 66.54
50.46 51.81 52.74 54.75 54.18 53.49 51.97 42.61 42.06 44.39 47.27 46.74 46.69 44.95 45.16 47.37 47.18 48.20 48.22 48.70 50.19 49.81 45.29 44.19 43.90 49.72 50.45 51.53 51.34 47.73 46.46 52.89 48.57 48.57 48.42 51.78 53.99 57.85 61.11 61.23 63.54 63.81 64.30 64.63 65.49
53.39 54.70 55.29 55.79 55.24 54.09 49.28 41.39 44.82 47.30 48.50 47.97 42.89 45.02 42.99 45.58 45.63 46.45 46.07 48.09 47.85 49.53 50.36 47.30 43.68 48.92 50.56 51.21 50.77 50.38 52.18 45.73 47.65 43.63 42.68 48.47 50.60 54.21 57.26 59.02 61.44 62.59 63.19 64.88 66.27
53.50 54.30 56.07 56.00 54.91 52.50 45.31 44.87 46.33 49.76 49.17 46.58 44.64 44.51 45.04 45.16 46.81 44.85 44.75 46.98 48.28 48.87 49.89 49.11 47.05 47.38 49.29 48.52 48.09 48.47 48.00 48.55 49.62 48.21 45.89 45.54 50.23 58.34 58.76 60.69 61.59 63.46 64.05 65.49 65.66
52.56 51.26 56.02 54.11 50.84 46.38 46.70 46.84 45.05 47.09 48.43 47.17 47.01 47.16 45.77 45.78 44.77 45.32 44.00 46.00 50.02 50.03 47.72 48.96 47.71 45.06 46.74 49.46 49.99 51.33 50.35 51.31 45.92 46.49 50.47 50.29 51.69 61.05 61.99 62.65 63.24 63.02 64.43 65.15 65.89
52.28 52.60 54.82 54.82 46.39 46.45 47.26 46.14 47.69 47.93 47.47 47.17 45.96 46.89 47.60 45.53 44.09 45.94 46.83 50.56 51.34 48.87 48.17 49.16 45.56 43.64 44.44 47.35 48.76 48.05 47.84 50.30 52.54 53.24 50.48 47.95 50.41 61.03 62.50 62.47 63.36 62.17 63.54 64.53 65.53
50.27 48.26 51.21 48.11 46.20 46.73 44.88 44.68 44.69 47.78 47.65 47.83 46.65 47.15 46.85 45.83 47.33 45.57 46.86 49.88 51.05 51.95 52.89 51.75 45.31 44.77 43.36 44.86 47.35 46.02 47.58 48.73 49.69 48.34 49.88 50.91 52.82 57.52 59.45 61.19 60.95 61.79 62.93 63.65 64.59
51.25 47.89 47.26 46.78 46.10 45.53 45.78 45.36 44.17 44.18 47.68 49.18 47.25 45.91 45.59 44.60 44.74 43.65 45.26 47.91 50.15 51.35 49.80 49.31 43.95 45.77 46.00 46.81 48.11 48.92 47.88 48.03 47.06 49.08 48.47 51.98 53.99 57.46 59.95 60.87 61.60 62.23 62.48 62.72 62.42
52.70 51.68 49.07 45.96 44.25 46.44 43.73 44.90 44.15 45.17 45.70 43.80 45.69 46.32 46.67 44.67 44.78 43.17 45.12 45.26 44.23 48.21 50.21 50.30 45.42 45.94 44.89 46.89 46.07 48.06 50.31 51.45 51.48 50.25 52.80 54.47 54.56 61.15 61.70 61.70 60.53 61.13 61.14 60.14 60.66
53.59 53.91 51.29 43.74 44.92 46.07 45.76 46.09 45.89 46.70 46.70 46.57 46.37 46.91 45.91 46.01 47.52 47.98 47.57 46.92 45.03 45.18 45.73 47.90 47.74 45.38 41.89 46.13 45.43 44.18 49.30 51.28 51.90 54.06 54.59 52.75 56.73 60.76 59.08 59.32 58.76 58.72 58.71 57.93 58.75

GFSSW_sfc_wetblb_114.txt.gz
Wetbulb
56.88 56.82 57.03 56.72 56.74 56.88 56.61 56.73 56.53 56.76 56.53 56.65 56.82 56.79 57.10 57.65 58.18 58.85 53.00 57.42 58.77 65.29 66.55 66.83 64.65 67.88 70.94 69.15 69.88 69.54 62.44 58.83 58.23 58.65 60.26 64.60 63.19 66.63 68.16 66.43 66.60 67.44 67.36 69.65 71.59
57.21 57.04 56.91 56.76 56.77 56.56 56.57 56.38 56.50 56.37 56.27 56.50 56.61 56.37 56.91 57.61 57.66 55.27 63.75 60.50 61.52 68.98 64.10 62.08 60.28 64.71 64.55 66.00 68.14 66.10 63.01 59.63 63.32 63.17 61.39 63.25 63.52 64.46 65.00 65.52 65.61 66.27 69.16 70.49 70.94
57.26 57.10 57.10 56.66 56.86 56.98 56.70 56.29 56.17 56.30 56.28 56.22 56.31 56.50 56.91 58.95 55.10 51.18 63.44 64.42 64.05 68.86 64.15 62.80 61.72 60.79 58.73 64.31 65.67 64.64 61.46 63.68 64.08 64.69 64.18 62.45 63.92 65.89 65.00 63.56 65.73 65.32 67.18 69.10 69.30
57.31 56.83 56.65 56.43 56.28 56.41 56.43 56.41 56.43 56.14 55.99 56.02 56.06 56.70 57.19 58.51 46.93 59.70 67.12 65.06 66.84 64.97 63.02 60.86 59.92 56.61 57.21 60.34 64.90 62.19 64.64 64.98 63.77 64.90 62.45 61.74 63.77 64.14 64.82 65.57 68.19 68.36 68.94 68.94 68.25
56.72 56.67 56.25 56.04 55.84 55.70 55.76 55.78 55.91 55.91 55.60 55.93 56.12 56.63 58.05 54.50 52.72 57.01 66.77 65.66 65.51 61.83 60.90 58.44 56.90 56.51 55.37 61.65 63.92 63.50 63.82 65.98 64.98 63.87 64.37 64.11 64.03 63.07 64.62 67.43 68.58 68.55 68.35 67.84 67.84
56.68 56.37 56.05 55.94 55.49 55.22 55.14 54.97 55.04 54.88 55.25 55.53 56.08 56.50 55.95 50.60 58.49 64.39 65.28 62.13 64.04 62.08 59.14 59.28 57.25 58.23 60.04 62.37 63.10 62.96 64.50 65.51 64.14 63.12 63.48 61.83 61.85 63.53 65.40 67.71 67.31 67.24 66.82 67.56 67.30
56.21 55.97 55.95 55.54 55.19 55.07 54.83 55.15 54.84 54.44 54.00 54.83 55.71 57.45 54.55 53.31 58.02 66.06 64.48 61.98 63.07 60.41 58.66 60.39 59.11 58.61 62.71 61.46 63.26 63.77 61.45 64.45 63.17 62.75 61.65 62.47 58.50 60.62 65.87 67.02 65.37 65.54 66.91 67.61 68.08
55.86 55.92 55.65 55.18 54.87 54.68 54.42 54.82 55.76 55.62 54.91 55.36 56.05 57.61 52.50 55.62 59.75 62.26 63.09 59.63 62.79 59.69 60.00 60.25 59.92 60.45 62.92 63.53 60.35 60.93 61.40 58.45 62.37 61.92 62.76 61.16 56.57 62.30 65.89 64.60 64.08 65.56 66.46 67.42 68.26
55.74 55.63 55.54 55.15 54.69 54.06 53.47 54.19 55.80 56.19 56.07 56.38 57.50 55.55 50.80 58.24 55.67 60.23 59.09 55.11 59.30 58.39 57.57 57.99 58.74 57.81 61.58 59.24 55.86 59.58 55.46 56.97 59.14 63.20 61.60 60.08 57.55 62.01 64.55 63.05 63.90 65.27 66.30 67.78 68.79
55.84 55.56 55.20 55.07 54.93 54.09 53.38 55.20 56.98 57.19 58.20 58.74 57.88 53.76 55.70 54.18 56.46 58.44 59.22 57.00 55.31 55.33 53.37 53.93 55.05 54.10 59.42 58.19 52.10 54.14 54.55 59.50 57.42 60.71 61.68 61.38 59.07 61.33 63.54 63.96 64.37 65.45 66.88 67.82 68.61
56.09 55.17 55.20 54.93 54.56 53.57 54.60 59.58 57.39 56.60 56.88 54.68 54.18 53.36 54.44 57.87 58.95 56.91 58.51 55.56 54.01 52.62 49.37 52.18 50.84 50.15 56.61 59.27 55.68 55.84 55.14 58.75 60.61 61.72 60.40 59.83 58.28 61.01 62.83 62.64 63.91 64.30 66.52 67.57 68.42
55.40 54.83 55.07 54.58 54.05 53.08 55.44 56.21 55.99 56.87 52.59 56.28 55.51 54.92 56.42 56.85 52.97 56.85 58.34 53.40 51.77 47.81 50.98 50.55 48.71 53.56 58.52 59.01 53.82 56.74 55.62 58.95 61.29 63.22 60.84 59.77 59.92 62.93 62.47 61.56 65.47 65.21 65.69 67.29 68.30
55.25 54.48 54.04 53.88 53.63 53.75 57.32 56.78 59.54 59.12 53.51 53.47 54.85 54.52 55.57 56.66 52.81 54.71 56.91 54.62 50.95 48.80 49.42 49.31 50.43 55.49 56.94 55.62 53.02 58.89 57.20 58.98 58.57 61.44 62.34 60.33 57.99 60.73 61.75 63.09 65.63 66.72 67.81 67.44 67.17
55.07 54.48 53.63 53.06 51.62 59.75 57.22 58.75 59.44 58.86 50.77 50.33 52.57 54.22 55.75 55.96 51.46 57.61 58.01 54.75 49.88 47.76 49.58 50.75 54.39 53.77 55.81 55.31 54.84 53.40 56.94 59.78 60.15 58.60 53.93 61.86 48.50 59.05 60.27 61.88 64.22 65.49 66.82 67.61 68.19
54.86 54.17 52.91 51.46 57.69 57.70 57.44 60.34 59.77 57.52 41.17 50.81 52.54 57.68 55.83 53.41 53.73 53.35 57.85 55.67 49.73 48.46 50.72 49.65 51.78 53.51 54.07 55.80 55.32 53.36 57.53 59.31 59.89 58.43 57.51 56.94 50.80 54.82 61.16 58.88 60.40 63.89 65.81 66.83 68.03
53.88 53.29 52.86 54.62 58.00 59.26 60.27 59.86 57.69 47.54 39.13 48.33 52.43 51.54 51.09 52.95 53.38 54.23 54.93 57.64 55.65 51.22 52.43 53.21 56.62 56.75 55.60 56.60 55.29 55.10 56.87 57.58 57.52 57.13 50.17 55.54 55.52 54.68 58.48 60.59 62.99 64.09 65.03 66.69 67.65
52.92 51.91 52.93 57.87 58.55 60.50 60.36 57.60 48.92 43.40 50.09 47.22 48.88 51.09 50.26 50.73 51.73 51.99 51.24 51.33 49.91 46.84 46.31 51.58 52.79 55.20 56.51 54.23 55.88 56.24 55.61 49.19 47.91 48.82 49.44 55.15 53.38 56.75 61.58 62.86 63.79 64.18 64.89 67.60 67.68
51.38 51.11 54.35 58.82 61.06 59.65 58.78 53.16 42.86 46.16 47.22 51.22 50.50 50.33 47.84 50.35 51.81 51.73 50.46 49.40 52.08 50.71 48.41 47.02 45.47 52.56 54.45 53.16 52.51 53.57 54.50 48.73 43.61 47.18 50.10 55.83 51.16 56.03 62.18 64.88 65.86 66.35 65.59 68.21 68.48
50.90 59.53 60.32 62.46 61.12 60.40 55.87 47.37 45.71 47.16 49.45 48.89 49.75 47.54 47.54 49.45 50.54 51.35 50.91 50.50 51.78 52.02 47.73 47.25 47.66 53.68 53.84 54.52 53.63 52.78 51.73 56.08 51.25 53.19 50.96 53.72 56.41 59.44 62.57 63.46 64.57 65.93 66.30 65.28 67.75
60.88 61.59 60.79 61.45 61.82 58.58 52.87 44.06 48.11 50.82 50.89 50.51 45.92 48.61 46.07 47.77 48.43 49.80 50.17 52.56 51.48 52.92 54.23 50.56 46.51 51.44 52.63 54.12 53.93 53.01 56.93 51.18 52.30 46.89 45.54 51.54 52.99 55.84 59.44 62.01 64.02 64.52 65.55 64.78 66.91
59.82 57.44 60.90 62.41 60.54 55.84 48.25 47.67 48.74 51.87 51.42 49.39 47.47 47.97 48.84 48.10 49.24 48.64 48.49 50.66 52.48 52.30 53.43 52.61 50.11 49.25 52.05 50.10 49.72 50.51 50.26 52.31 53.02 51.53 48.20 47.77 51.81 62.88 62.46 63.50 64.41 65.63 65.21 65.67 66.97
59.09 53.50 61.46 61.28 53.22 53.82 49.28 49.51 46.95 50.05 52.37 50.39 50.31 49.91 49.34 49.72 48.79 48.26 47.07 49.72 52.84 53.18 50.63 53.21 50.86 48.41 48.44 52.40 53.94 52.71 51.13 51.82 48.59 48.97 51.70 52.30 54.55 63.65 64.37 64.97 65.39 66.46 66.57 67.63 68.60
58.36 56.98 61.74 59.32 50.06 50.61 50.82 48.91 50.25 49.56 50.84 50.47 49.12 50.14 52.20 49.83 46.77 49.14 48.53 52.51 53.44 52.49 52.31 53.80 49.84 46.19 47.50 50.42 52.82 51.23 52.13 52.62 52.90 53.02 51.15 48.57 53.10 64.33 65.04 65.41 65.95 65.08 66.04 66.74 67.60
56.68 51.45 55.77 57.36 55.58 51.26 49.04 48.24 47.41 50.87 50.27 51.64 50.82 51.14 50.84 49.36 50.39 46.89 48.02 51.66 53.19 53.88 53.28 54.67 51.21 49.46 44.93 48.49 51.09 49.80 50.96 52.51 52.31 49.67 50.47 51.86 56.03 61.10 63.22 63.39 63.00 64.00 65.28 66.32 67.93
58.84 53.07 52.90 51.32 51.36 51.75 51.15 48.94 46.49 46.06 50.06 52.13 50.58 50.06 49.48 48.44 49.22 48.63 48.45 51.12 52.35 52.75 54.07 53.36 48.68 50.54 50.30 51.27 51.19 50.78 50.76 51.37 51.01 51.98 50.17 51.83 53.62 60.40 63.62 64.45 63.38 64.11 65.02 65.52 65.59
57.12 55.74 55.55 53.40 51.32 50.62 48.95 47.91 45.73 47.00 48.54 46.56 48.98 50.00 51.16 48.68 48.95 47.37 47.29 49.70 48.26 52.74 53.69 53.27 48.46 50.72 48.24 49.47 51.66 50.54 51.81 51.67 51.87 52.34 52.94 53.50 56.84 63.73 65.61 65.21 64.68 63.66 63.04 62.98 64.90
61.47 60.72 56.46 47.36 50.16 49.95 49.01 48.00 47.37 49.42 49.73 49.93 47.74 50.71 49.50 49.51 51.20 51.54 51.83 50.52 49.94 48.69 50.59 50.42 50.14 48.84 46.31 49.27 48.83 48.54 52.10 53.15 54.12 56.00 56.68 51.87 59.86 63.98 62.84 62.34 62.08 61.20 61.33 61.43 61.74